﻿<?xml version="1.0" encoding="UTF-8" standalone="no" ?>
<gpx xmlns="http://www.topografix.com/GPX/1/1" creator="CompeGPS" version="1.1" xmlns:xsi="http://www.w3.org/2001/XMLSchema-instance" xsi:schemaLocation="http://www.topografix.com/GPX/1/1 http://www.topografix.com/GPX/1/1/gpx.xsd http://www.garmin.com/xmlschemas/GpxExtensions/v3 http://www.garmin.com/xmlschemas/GpxExtensionsv3.xsd http://www.garmin.com/xmlschemas/TrackPointExtension/v1 http://www.garmin.com/xmlschemas/TrackPointExtensionv1.xsd" xmlns:gpxtpx="http://www.garmin.com/xmlschemas/TrackPointExtension/v1">
  <metadata>
    <link href="http://www.compegps.com">
      <text>CompeGPS TEAM, SL</text>
    </link>
    <time>2019-08-27T16:50:25Z</time>
    <bounds maxlat="42.738319" maxlon="0.571511" minlat="42.699732" minlon="0.528443"/>
  </metadata>
  <trk>
    <name>pic_maupas</name>
    <userMyTwoNav></userMyTwoNav>
    <serialNumber></serialNumber>
    <trkseg>
      <trkpt lat="42.738307" lon="0.556631">
        <ele>1126.4</ele>
        <time>2019-08-22T13:53:08Z</time>
      </trkpt>
      <trkpt lat="42.738280" lon="0.556425">
        <ele>1126.5</ele>
        <time>2019-08-22T13:53:19Z</time>
      </trkpt>
      <trkpt lat="42.738203" lon="0.556330">
        <ele>1126.7</ele>
        <time>2019-08-22T13:53:28Z</time>
      </trkpt>
      <trkpt lat="42.738131" lon="0.556243">
        <ele>1126.8</ele>
        <time>2019-08-22T13:53:36Z</time>
      </trkpt>
      <trkpt lat="42.738045" lon="0.556151">
        <ele>1127.1</ele>
        <time>2019-08-22T13:53:44Z</time>
      </trkpt>
      <trkpt lat="42.737951" lon="0.556091">
        <ele>1127.5</ele>
        <time>2019-08-22T13:53:53Z</time>
      </trkpt>
      <trkpt lat="42.737855" lon="0.556059">
        <ele>1127.9</ele>
        <time>2019-08-22T13:54:03Z</time>
      </trkpt>
      <trkpt lat="42.737741" lon="0.556032">
        <ele>1128.1</ele>
        <time>2019-08-22T13:54:13Z</time>
      </trkpt>
      <trkpt lat="42.737645" lon="0.555973">
        <ele>1128.5</ele>
        <time>2019-08-22T13:54:20Z</time>
      </trkpt>
      <trkpt lat="42.737568" lon="0.555901">
        <ele>1128.6</ele>
        <time>2019-08-22T13:54:26Z</time>
      </trkpt>
      <trkpt lat="42.737481" lon="0.555853">
        <ele>1129.0</ele>
        <time>2019-08-22T13:54:33Z</time>
      </trkpt>
      <trkpt lat="42.737365" lon="0.555832">
        <ele>1129.4</ele>
        <time>2019-08-22T13:54:41Z</time>
      </trkpt>
      <trkpt lat="42.737258" lon="0.555821">
        <ele>1129.6</ele>
        <time>2019-08-22T13:54:49Z</time>
      </trkpt>
      <trkpt lat="42.737149" lon="0.555869">
        <ele>1129.9</ele>
        <time>2019-08-22T13:54:58Z</time>
      </trkpt>
      <trkpt lat="42.737061" lon="0.555953">
        <ele>1130.1</ele>
        <time>2019-08-22T13:55:06Z</time>
      </trkpt>
      <trkpt lat="42.737004" lon="0.556064">
        <ele>1130.1</ele>
        <time>2019-08-22T13:55:16Z</time>
      </trkpt>
      <trkpt lat="42.736946" lon="0.556183">
        <ele>1129.9</ele>
        <time>2019-08-22T13:55:23Z</time>
      </trkpt>
      <trkpt lat="42.736876" lon="0.556186">
        <ele>1130.0</ele>
        <time>2019-08-22T13:55:32Z</time>
      </trkpt>
      <trkpt lat="42.736767" lon="0.556162">
        <ele>1130.1</ele>
        <time>2019-08-22T13:55:42Z</time>
      </trkpt>
      <trkpt lat="42.736677" lon="0.556111">
        <ele>1130.3</ele>
        <time>2019-08-22T13:55:51Z</time>
      </trkpt>
      <trkpt lat="42.736587" lon="0.556011">
        <ele>1130.2</ele>
        <time>2019-08-22T13:55:58Z</time>
      </trkpt>
      <trkpt lat="42.736516" lon="0.555936">
        <ele>1130.3</ele>
        <time>2019-08-22T13:56:03Z</time>
      </trkpt>
      <trkpt lat="42.736463" lon="0.555851">
        <ele>1130.6</ele>
        <time>2019-08-22T13:56:07Z</time>
      </trkpt>
      <trkpt lat="42.736388" lon="0.555825">
        <ele>1130.9</ele>
        <time>2019-08-22T13:56:13Z</time>
      </trkpt>
      <trkpt lat="42.736311" lon="0.555906">
        <ele>1131.5</ele>
        <time>2019-08-22T13:56:21Z</time>
      </trkpt>
      <trkpt lat="42.736218" lon="0.555970">
        <ele>1131.9</ele>
        <time>2019-08-22T13:56:29Z</time>
      </trkpt>
      <trkpt lat="42.736149" lon="0.556032">
        <ele>1131.9</ele>
        <time>2019-08-22T13:56:40Z</time>
      </trkpt>
      <trkpt lat="42.736072" lon="0.556181">
        <ele>1131.9</ele>
        <time>2019-08-22T13:56:51Z</time>
      </trkpt>
      <trkpt lat="42.736068" lon="0.556316">
        <ele>1131.5</ele>
        <time>2019-08-22T13:57:00Z</time>
      </trkpt>
      <trkpt lat="42.736034" lon="0.556484">
        <ele>1130.9</ele>
        <time>2019-08-22T13:57:09Z</time>
      </trkpt>
      <trkpt lat="42.735997" lon="0.556615">
        <ele>1130.9</ele>
        <time>2019-08-22T13:57:16Z</time>
      </trkpt>
      <trkpt lat="42.735895" lon="0.556660">
        <ele>1130.9</ele>
        <time>2019-08-22T13:57:22Z</time>
      </trkpt>
      <trkpt lat="42.735819" lon="0.556724">
        <ele>1131.1</ele>
        <time>2019-08-22T13:57:27Z</time>
      </trkpt>
      <trkpt lat="42.735729" lon="0.556796">
        <ele>1132.4</ele>
        <time>2019-08-22T13:57:36Z</time>
      </trkpt>
      <trkpt lat="42.735664" lon="0.556911">
        <ele>1133.8</ele>
        <time>2019-08-22T13:57:43Z</time>
      </trkpt>
      <trkpt lat="42.735581" lon="0.556920">
        <ele>1135.2</ele>
        <time>2019-08-22T13:57:51Z</time>
      </trkpt>
      <trkpt lat="42.735487" lon="0.556908">
        <ele>1136.3</ele>
        <time>2019-08-22T13:57:58Z</time>
      </trkpt>
      <trkpt lat="42.735425" lon="0.556805">
        <ele>1137.6</ele>
        <time>2019-08-22T13:58:06Z</time>
      </trkpt>
      <trkpt lat="42.735356" lon="0.556723">
        <ele>1138.3</ele>
        <time>2019-08-22T13:58:12Z</time>
      </trkpt>
      <trkpt lat="42.735258" lon="0.556654">
        <ele>1139.4</ele>
        <time>2019-08-22T13:58:20Z</time>
      </trkpt>
      <trkpt lat="42.735176" lon="0.556553">
        <ele>1140.3</ele>
        <time>2019-08-22T13:58:28Z</time>
      </trkpt>
      <trkpt lat="42.735106" lon="0.556480">
        <ele>1141.0</ele>
        <time>2019-08-22T13:58:34Z</time>
      </trkpt>
      <trkpt lat="42.735043" lon="0.556380">
        <ele>1141.8</ele>
        <time>2019-08-22T13:58:41Z</time>
      </trkpt>
      <trkpt lat="42.734960" lon="0.556279">
        <ele>1142.7</ele>
        <time>2019-08-22T13:58:49Z</time>
      </trkpt>
      <trkpt lat="42.734874" lon="0.556187">
        <ele>1143.4</ele>
        <time>2019-08-22T13:58:57Z</time>
      </trkpt>
      <trkpt lat="42.734778" lon="0.556125">
        <ele>1144.0</ele>
        <time>2019-08-22T13:59:03Z</time>
      </trkpt>
      <trkpt lat="42.734697" lon="0.556064">
        <ele>1144.6</ele>
        <time>2019-08-22T13:59:09Z</time>
      </trkpt>
      <trkpt lat="42.734682" lon="0.556040">
        <ele>1145.5</ele>
        <time>2019-08-22T13:59:31Z</time>
      </trkpt>
      <trkpt lat="42.734592" lon="0.556021">
        <ele>1145.7</ele>
        <time>2019-08-22T13:59:39Z</time>
      </trkpt>
      <trkpt lat="42.734497" lon="0.555948">
        <ele>1145.9</ele>
        <time>2019-08-22T13:59:46Z</time>
      </trkpt>
      <trkpt lat="42.734405" lon="0.555915">
        <ele>1146.2</ele>
        <time>2019-08-22T13:59:52Z</time>
      </trkpt>
      <trkpt lat="42.734311" lon="0.555873">
        <ele>1146.7</ele>
        <time>2019-08-22T13:59:58Z</time>
      </trkpt>
      <trkpt lat="42.734211" lon="0.555826">
        <ele>1147.0</ele>
        <time>2019-08-22T14:00:05Z</time>
      </trkpt>
      <trkpt lat="42.734121" lon="0.555784">
        <ele>1147.1</ele>
        <time>2019-08-22T14:00:11Z</time>
      </trkpt>
      <trkpt lat="42.734037" lon="0.555714">
        <ele>1147.3</ele>
        <time>2019-08-22T14:00:19Z</time>
      </trkpt>
      <trkpt lat="42.733937" lon="0.555691">
        <ele>1147.5</ele>
        <time>2019-08-22T14:00:25Z</time>
      </trkpt>
      <trkpt lat="42.733835" lon="0.555645">
        <ele>1147.5</ele>
        <time>2019-08-22T14:00:31Z</time>
      </trkpt>
      <trkpt lat="42.733711" lon="0.555602">
        <ele>1147.4</ele>
        <time>2019-08-22T14:00:39Z</time>
      </trkpt>
      <trkpt lat="42.733588" lon="0.555578">
        <ele>1147.2</ele>
        <time>2019-08-22T14:00:47Z</time>
      </trkpt>
      <trkpt lat="42.733478" lon="0.555567">
        <ele>1147.3</ele>
        <time>2019-08-22T14:00:54Z</time>
      </trkpt>
      <trkpt lat="42.733348" lon="0.555548">
        <ele>1147.7</ele>
        <time>2019-08-22T14:01:04Z</time>
      </trkpt>
      <trkpt lat="42.733216" lon="0.555522">
        <ele>1147.7</ele>
        <time>2019-08-22T14:01:12Z</time>
      </trkpt>
      <trkpt lat="42.733116" lon="0.555505">
        <ele>1148.2</ele>
        <time>2019-08-22T14:01:18Z</time>
      </trkpt>
      <trkpt lat="42.733009" lon="0.555439">
        <ele>1149.0</ele>
        <time>2019-08-22T14:01:25Z</time>
      </trkpt>
      <trkpt lat="42.732929" lon="0.555363">
        <ele>1149.5</ele>
        <time>2019-08-22T14:01:31Z</time>
      </trkpt>
      <trkpt lat="42.732853" lon="0.555289">
        <ele>1149.7</ele>
        <time>2019-08-22T14:01:42Z</time>
      </trkpt>
      <trkpt lat="42.732792" lon="0.555217">
        <ele>1148.9</ele>
        <time>2019-08-22T14:01:52Z</time>
      </trkpt>
      <trkpt lat="42.732760" lon="0.555078">
        <ele>1148.4</ele>
        <time>2019-08-22T14:02:00Z</time>
      </trkpt>
      <trkpt lat="42.732751" lon="0.554912">
        <ele>1148.2</ele>
        <time>2019-08-22T14:02:09Z</time>
      </trkpt>
      <trkpt lat="42.732736" lon="0.554752">
        <ele>1147.9</ele>
        <time>2019-08-22T14:02:17Z</time>
      </trkpt>
      <trkpt lat="42.732753" lon="0.554599">
        <ele>1147.5</ele>
        <time>2019-08-22T14:02:24Z</time>
      </trkpt>
      <trkpt lat="42.732731" lon="0.554459">
        <ele>1147.0</ele>
        <time>2019-08-22T14:02:30Z</time>
      </trkpt>
      <trkpt lat="42.732668" lon="0.554324">
        <ele>1146.7</ele>
        <time>2019-08-22T14:02:36Z</time>
      </trkpt>
      <trkpt lat="42.732611" lon="0.554184">
        <ele>1146.5</ele>
        <time>2019-08-22T14:02:44Z</time>
      </trkpt>
      <trkpt lat="42.732585" lon="0.554030">
        <ele>1146.3</ele>
        <time>2019-08-22T14:02:51Z</time>
      </trkpt>
      <trkpt lat="42.732660" lon="0.553888">
        <ele>1146.2</ele>
        <time>2019-08-22T14:02:58Z</time>
      </trkpt>
      <trkpt lat="42.732718" lon="0.553732">
        <ele>1146.3</ele>
        <time>2019-08-22T14:03:06Z</time>
      </trkpt>
      <trkpt lat="42.732794" lon="0.553630">
        <ele>1146.5</ele>
        <time>2019-08-22T14:03:12Z</time>
      </trkpt>
      <trkpt lat="42.732870" lon="0.553534">
        <ele>1146.6</ele>
        <time>2019-08-22T14:03:21Z</time>
      </trkpt>
      <trkpt lat="42.732970" lon="0.553437">
        <ele>1146.8</ele>
        <time>2019-08-22T14:03:30Z</time>
      </trkpt>
      <trkpt lat="42.733116" lon="0.553341">
        <ele>1147.1</ele>
        <time>2019-08-22T14:03:38Z</time>
      </trkpt>
      <trkpt lat="42.733211" lon="0.553307">
        <ele>1147.9</ele>
        <time>2019-08-22T14:03:44Z</time>
      </trkpt>
      <trkpt lat="42.733296" lon="0.553301">
        <ele>1148.4</ele>
        <time>2019-08-22T14:03:51Z</time>
      </trkpt>
      <trkpt lat="42.733373" lon="0.553257">
        <ele>1148.7</ele>
        <time>2019-08-22T14:04:00Z</time>
      </trkpt>
      <trkpt lat="42.733447" lon="0.553168">
        <ele>1150.0</ele>
        <time>2019-08-22T14:04:11Z</time>
      </trkpt>
      <trkpt lat="42.733505" lon="0.553069">
        <ele>1151.1</ele>
        <time>2019-08-22T14:04:20Z</time>
      </trkpt>
      <trkpt lat="42.733540" lon="0.553020">
        <ele>1151.9</ele>
        <time>2019-08-22T14:04:47Z</time>
      </trkpt>
      <trkpt lat="42.733599" lon="0.552956">
        <ele>1153.4</ele>
        <time>2019-08-22T14:04:59Z</time>
      </trkpt>
      <trkpt lat="42.733683" lon="0.552904">
        <ele>1155.0</ele>
        <time>2019-08-22T14:05:07Z</time>
      </trkpt>
      <trkpt lat="42.733790" lon="0.552882">
        <ele>1157.0</ele>
        <time>2019-08-22T14:05:15Z</time>
      </trkpt>
      <trkpt lat="42.733906" lon="0.552905">
        <ele>1159.3</ele>
        <time>2019-08-22T14:05:24Z</time>
      </trkpt>
      <trkpt lat="42.733999" lon="0.552942">
        <ele>1160.2</ele>
        <time>2019-08-22T14:05:32Z</time>
      </trkpt>
      <trkpt lat="42.734089" lon="0.552948">
        <ele>1161.4</ele>
        <time>2019-08-22T14:05:46Z</time>
      </trkpt>
      <trkpt lat="42.734132" lon="0.552814">
        <ele>1163.7</ele>
        <time>2019-08-22T14:06:00Z</time>
      </trkpt>
      <trkpt lat="42.734166" lon="0.552750">
        <ele>1165.5</ele>
        <time>2019-08-22T14:06:12Z</time>
      </trkpt>
      <trkpt lat="42.734253" lon="0.552801">
        <ele>1167.1</ele>
        <time>2019-08-22T14:06:20Z</time>
      </trkpt>
      <trkpt lat="42.734359" lon="0.552831">
        <ele>1167.2</ele>
        <time>2019-08-22T14:06:28Z</time>
      </trkpt>
      <trkpt lat="42.734449" lon="0.552867">
        <ele>1167.7</ele>
        <time>2019-08-22T14:06:39Z</time>
      </trkpt>
      <trkpt lat="42.734532" lon="0.552920">
        <ele>1169.1</ele>
        <time>2019-08-22T14:06:49Z</time>
      </trkpt>
      <trkpt lat="42.734641" lon="0.552981">
        <ele>1170.2</ele>
        <time>2019-08-22T14:06:58Z</time>
      </trkpt>
      <trkpt lat="42.734723" lon="0.552950">
        <ele>1171.3</ele>
        <time>2019-08-22T14:07:07Z</time>
      </trkpt>
      <trkpt lat="42.734697" lon="0.552890">
        <ele>1173.4</ele>
        <time>2019-08-22T14:07:34Z</time>
      </trkpt>
      <trkpt lat="42.734771" lon="0.552764">
        <ele>1174.6</ele>
        <time>2019-08-22T14:07:53Z</time>
      </trkpt>
      <trkpt lat="42.734807" lon="0.552665">
        <ele>1177.6</ele>
        <time>2019-08-22T14:08:03Z</time>
      </trkpt>
      <trkpt lat="42.734814" lon="0.552509">
        <ele>1179.7</ele>
        <time>2019-08-22T14:08:12Z</time>
      </trkpt>
      <trkpt lat="42.734899" lon="0.552469">
        <ele>1181.3</ele>
        <time>2019-08-22T14:08:19Z</time>
      </trkpt>
      <trkpt lat="42.734971" lon="0.552384">
        <ele>1184.1</ele>
        <time>2019-08-22T14:08:28Z</time>
      </trkpt>
      <trkpt lat="42.734991" lon="0.552255">
        <ele>1186.8</ele>
        <time>2019-08-22T14:08:39Z</time>
      </trkpt>
      <trkpt lat="42.735019" lon="0.552126">
        <ele>1190.1</ele>
        <time>2019-08-22T14:08:51Z</time>
      </trkpt>
      <trkpt lat="42.735057" lon="0.552015">
        <ele>1193.2</ele>
        <time>2019-08-22T14:09:05Z</time>
      </trkpt>
      <trkpt lat="42.735052" lon="0.551861">
        <ele>1196.2</ele>
        <time>2019-08-22T14:09:17Z</time>
      </trkpt>
      <trkpt lat="42.735059" lon="0.551704">
        <ele>1198.8</ele>
        <time>2019-08-22T14:09:29Z</time>
      </trkpt>
      <trkpt lat="42.735139" lon="0.551677">
        <ele>1202.0</ele>
        <time>2019-08-22T14:09:42Z</time>
      </trkpt>
      <trkpt lat="42.735170" lon="0.551487">
        <ele>1204.8</ele>
        <time>2019-08-22T14:09:55Z</time>
      </trkpt>
      <trkpt lat="42.735191" lon="0.551356">
        <ele>1207.7</ele>
        <time>2019-08-22T14:10:07Z</time>
      </trkpt>
      <trkpt lat="42.735120" lon="0.551212">
        <ele>1210.0</ele>
        <time>2019-08-22T14:10:18Z</time>
      </trkpt>
      <trkpt lat="42.735086" lon="0.551055">
        <ele>1210.7</ele>
        <time>2019-08-22T14:10:26Z</time>
      </trkpt>
      <trkpt lat="42.735020" lon="0.550960">
        <ele>1211.5</ele>
        <time>2019-08-22T14:10:34Z</time>
      </trkpt>
      <trkpt lat="42.734897" lon="0.550998">
        <ele>1212.2</ele>
        <time>2019-08-22T14:10:43Z</time>
      </trkpt>
      <trkpt lat="42.734790" lon="0.550957">
        <ele>1214.0</ele>
        <time>2019-08-22T14:10:54Z</time>
      </trkpt>
      <trkpt lat="42.734705" lon="0.550973">
        <ele>1216.3</ele>
        <time>2019-08-22T14:11:05Z</time>
      </trkpt>
      <trkpt lat="42.734587" lon="0.550966">
        <ele>1217.7</ele>
        <time>2019-08-22T14:11:14Z</time>
      </trkpt>
      <trkpt lat="42.734490" lon="0.550975">
        <ele>1219.8</ele>
        <time>2019-08-22T14:11:24Z</time>
      </trkpt>
      <trkpt lat="42.734367" lon="0.550915">
        <ele>1222.4</ele>
        <time>2019-08-22T14:11:36Z</time>
      </trkpt>
      <trkpt lat="42.734259" lon="0.550816">
        <ele>1225.2</ele>
        <time>2019-08-22T14:11:51Z</time>
      </trkpt>
      <trkpt lat="42.734052" lon="0.550814">
        <ele>1227.7</ele>
        <time>2019-08-22T14:12:06Z</time>
      </trkpt>
      <trkpt lat="42.733922" lon="0.550845">
        <ele>1229.5</ele>
        <time>2019-08-22T14:12:18Z</time>
      </trkpt>
      <trkpt lat="42.733848" lon="0.550838">
        <ele>1232.9</ele>
        <time>2019-08-22T14:12:35Z</time>
      </trkpt>
      <trkpt lat="42.733757" lon="0.550759">
        <ele>1236.3</ele>
        <time>2019-08-22T14:12:48Z</time>
      </trkpt>
      <trkpt lat="42.733664" lon="0.550690">
        <ele>1238.9</ele>
        <time>2019-08-22T14:13:02Z</time>
      </trkpt>
      <trkpt lat="42.733667" lon="0.550613">
        <ele>1242.9</ele>
        <time>2019-08-22T14:13:16Z</time>
      </trkpt>
      <trkpt lat="42.733716" lon="0.550467">
        <ele>1246.8</ele>
        <time>2019-08-22T14:13:30Z</time>
      </trkpt>
      <trkpt lat="42.733708" lon="0.550367">
        <ele>1250.9</ele>
        <time>2019-08-22T14:13:45Z</time>
      </trkpt>
      <trkpt lat="42.733821" lon="0.550410">
        <ele>1254.3</ele>
        <time>2019-08-22T14:14:01Z</time>
      </trkpt>
      <trkpt lat="42.733940" lon="0.550456">
        <ele>1256.9</ele>
        <time>2019-08-22T14:14:17Z</time>
      </trkpt>
      <trkpt lat="42.734050" lon="0.550433">
        <ele>1259.7</ele>
        <time>2019-08-22T14:14:32Z</time>
      </trkpt>
      <trkpt lat="42.733982" lon="0.550388">
        <ele>1263.1</ele>
        <time>2019-08-22T14:14:46Z</time>
      </trkpt>
      <trkpt lat="42.733896" lon="0.550255">
        <ele>1265.4</ele>
        <time>2019-08-22T14:14:59Z</time>
      </trkpt>
      <trkpt lat="42.733777" lon="0.550174">
        <ele>1268.0</ele>
        <time>2019-08-22T14:15:14Z</time>
      </trkpt>
      <trkpt lat="42.733615" lon="0.550200">
        <ele>1270.8</ele>
        <time>2019-08-22T14:15:30Z</time>
      </trkpt>
      <trkpt lat="42.733501" lon="0.550189">
        <ele>1273.4</ele>
        <time>2019-08-22T14:15:42Z</time>
      </trkpt>
      <trkpt lat="42.733423" lon="0.550054">
        <ele>1275.6</ele>
        <time>2019-08-22T14:15:54Z</time>
      </trkpt>
      <trkpt lat="42.733278" lon="0.549992">
        <ele>1277.6</ele>
        <time>2019-08-22T14:16:09Z</time>
      </trkpt>
      <trkpt lat="42.733215" lon="0.550077">
        <ele>1277.5</ele>
        <time>2019-08-22T14:16:18Z</time>
      </trkpt>
      <trkpt lat="42.733118" lon="0.550174">
        <ele>1277.8</ele>
        <time>2019-08-22T14:16:28Z</time>
      </trkpt>
      <trkpt lat="42.733011" lon="0.550168">
        <ele>1278.4</ele>
        <time>2019-08-22T14:16:42Z</time>
      </trkpt>
      <trkpt lat="42.732987" lon="0.550044">
        <ele>1278.7</ele>
        <time>2019-08-22T14:16:55Z</time>
      </trkpt>
      <trkpt lat="42.732962" lon="0.549948">
        <ele>1281.7</ele>
        <time>2019-08-22T14:17:09Z</time>
      </trkpt>
      <trkpt lat="42.732864" lon="0.549880">
        <ele>1282.9</ele>
        <time>2019-08-22T14:17:17Z</time>
      </trkpt>
      <trkpt lat="42.732810" lon="0.549817">
        <ele>1284.6</ele>
        <time>2019-08-22T14:17:26Z</time>
      </trkpt>
      <trkpt lat="42.732678" lon="0.549676">
        <ele>1286.8</ele>
        <time>2019-08-22T14:17:38Z</time>
      </trkpt>
      <trkpt lat="42.732578" lon="0.549590">
        <ele>1290.0</ele>
        <time>2019-08-22T14:17:50Z</time>
      </trkpt>
      <trkpt lat="42.732475" lon="0.549548">
        <ele>1291.8</ele>
        <time>2019-08-22T14:18:12Z</time>
      </trkpt>
      <trkpt lat="42.732407" lon="0.549629">
        <ele>1291.3</ele>
        <time>2019-08-22T14:18:22Z</time>
      </trkpt>
      <trkpt lat="42.732345" lon="0.549707">
        <ele>1292.7</ele>
        <time>2019-08-22T14:18:32Z</time>
      </trkpt>
      <trkpt lat="42.732277" lon="0.549795">
        <ele>1294.3</ele>
        <time>2019-08-22T14:18:42Z</time>
      </trkpt>
      <trkpt lat="42.732150" lon="0.549797">
        <ele>1294.2</ele>
        <time>2019-08-22T14:18:55Z</time>
      </trkpt>
      <trkpt lat="42.732037" lon="0.549834">
        <ele>1292.4</ele>
        <time>2019-08-22T14:19:05Z</time>
      </trkpt>
      <trkpt lat="42.731911" lon="0.549845">
        <ele>1291.7</ele>
        <time>2019-08-22T14:19:20Z</time>
      </trkpt>
      <trkpt lat="42.731665" lon="0.549882">
        <ele>1291.2</ele>
        <time>2019-08-22T14:19:33Z</time>
      </trkpt>
      <trkpt lat="42.731559" lon="0.549926">
        <ele>1290.2</ele>
        <time>2019-08-22T14:19:42Z</time>
      </trkpt>
      <trkpt lat="42.731442" lon="0.549970">
        <ele>1289.3</ele>
        <time>2019-08-22T14:19:52Z</time>
      </trkpt>
      <trkpt lat="42.731353" lon="0.550016">
        <ele>1286.9</ele>
        <time>2019-08-22T14:20:05Z</time>
      </trkpt>
      <trkpt lat="42.731185" lon="0.550068">
        <ele>1283.2</ele>
        <time>2019-08-22T14:20:19Z</time>
      </trkpt>
      <trkpt lat="42.731034" lon="0.550105">
        <ele>1280.5</ele>
        <time>2019-08-22T14:20:29Z</time>
      </trkpt>
      <trkpt lat="42.730919" lon="0.550228">
        <ele>1278.3</ele>
        <time>2019-08-22T14:20:39Z</time>
      </trkpt>
      <trkpt lat="42.730889" lon="0.550348">
        <ele>1277.1</ele>
        <time>2019-08-22T14:20:48Z</time>
      </trkpt>
      <trkpt lat="42.730866" lon="0.550482">
        <ele>1276.3</ele>
        <time>2019-08-22T14:21:04Z</time>
      </trkpt>
      <trkpt lat="42.730869" lon="0.550608">
        <ele>1276.2</ele>
        <time>2019-08-22T14:21:14Z</time>
      </trkpt>
      <trkpt lat="42.730769" lon="0.550696">
        <ele>1279.2</ele>
        <time>2019-08-22T14:21:32Z</time>
      </trkpt>
      <trkpt lat="42.730654" lon="0.550623">
        <ele>1282.3</ele>
        <time>2019-08-22T14:21:46Z</time>
      </trkpt>
      <trkpt lat="42.730618" lon="0.550732">
        <ele>1284.2</ele>
        <time>2019-08-22T14:21:58Z</time>
      </trkpt>
      <trkpt lat="42.730514" lon="0.550719">
        <ele>1287.4</ele>
        <time>2019-08-22T14:22:11Z</time>
      </trkpt>
      <trkpt lat="42.730498" lon="0.550833">
        <ele>1291.5</ele>
        <time>2019-08-22T14:22:31Z</time>
      </trkpt>
      <trkpt lat="42.730501" lon="0.551003">
        <ele>1293.4</ele>
        <time>2019-08-22T14:22:43Z</time>
      </trkpt>
      <trkpt lat="42.730543" lon="0.551111">
        <ele>1296.4</ele>
        <time>2019-08-22T14:22:59Z</time>
      </trkpt>
      <trkpt lat="42.730589" lon="0.551205">
        <ele>1298.9</ele>
        <time>2019-08-22T14:23:13Z</time>
      </trkpt>
      <trkpt lat="42.730566" lon="0.551326">
        <ele>1302.1</ele>
        <time>2019-08-22T14:23:32Z</time>
      </trkpt>
      <trkpt lat="42.730450" lon="0.551331">
        <ele>1306.1</ele>
        <time>2019-08-22T14:23:49Z</time>
      </trkpt>
      <trkpt lat="42.730447" lon="0.551465">
        <ele>1309.4</ele>
        <time>2019-08-22T14:24:02Z</time>
      </trkpt>
      <trkpt lat="42.730417" lon="0.551544">
        <ele>1314.1</ele>
        <time>2019-08-22T14:24:22Z</time>
      </trkpt>
      <trkpt lat="42.730346" lon="0.551550">
        <ele>1317.2</ele>
        <time>2019-08-22T14:24:38Z</time>
      </trkpt>
      <trkpt lat="42.730380" lon="0.551661">
        <ele>1319.6</ele>
        <time>2019-08-22T14:24:49Z</time>
      </trkpt>
      <trkpt lat="42.730413" lon="0.551774">
        <ele>1320.9</ele>
        <time>2019-08-22T14:25:01Z</time>
      </trkpt>
      <trkpt lat="42.730436" lon="0.551901">
        <ele>1324.3</ele>
        <time>2019-08-22T14:25:16Z</time>
      </trkpt>
      <trkpt lat="42.730311" lon="0.551892">
        <ele>1327.1</ele>
        <time>2019-08-22T14:25:31Z</time>
      </trkpt>
      <trkpt lat="42.730204" lon="0.551751">
        <ele>1329.1</ele>
        <time>2019-08-22T14:25:46Z</time>
      </trkpt>
      <trkpt lat="42.730186" lon="0.551526">
        <ele>1331.8</ele>
        <time>2019-08-22T14:26:01Z</time>
      </trkpt>
      <trkpt lat="42.730124" lon="0.551446">
        <ele>1334.5</ele>
        <time>2019-08-22T14:26:18Z</time>
      </trkpt>
      <trkpt lat="42.730087" lon="0.551450">
        <ele>1334.4</ele>
        <time>2019-08-22T14:26:51Z</time>
      </trkpt>
      <trkpt lat="42.730058" lon="0.551325">
        <ele>1332.9</ele>
        <time>2019-08-22T14:27:05Z</time>
      </trkpt>
      <trkpt lat="42.730022" lon="0.551137">
        <ele>1331.1</ele>
        <time>2019-08-22T14:27:17Z</time>
      </trkpt>
      <trkpt lat="42.730021" lon="0.550947">
        <ele>1330.3</ele>
        <time>2019-08-22T14:27:27Z</time>
      </trkpt>
      <trkpt lat="42.729965" lon="0.550799">
        <ele>1332.0</ele>
        <time>2019-08-22T14:27:37Z</time>
      </trkpt>
      <trkpt lat="42.729854" lon="0.550675">
        <ele>1333.7</ele>
        <time>2019-08-22T14:27:46Z</time>
      </trkpt>
      <trkpt lat="42.729858" lon="0.550525">
        <ele>1333.7</ele>
        <time>2019-08-22T14:27:59Z</time>
      </trkpt>
      <trkpt lat="42.729802" lon="0.550518">
        <ele>1333.4</ele>
        <time>2019-08-22T14:30:04Z</time>
      </trkpt>
      <trkpt lat="42.729751" lon="0.550403">
        <ele>1336.5</ele>
        <time>2019-08-22T14:30:22Z</time>
      </trkpt>
      <trkpt lat="42.729687" lon="0.550414">
        <ele>1339.4</ele>
        <time>2019-08-22T14:30:36Z</time>
      </trkpt>
      <trkpt lat="42.729647" lon="0.550562">
        <ele>1341.7</ele>
        <time>2019-08-22T14:30:48Z</time>
      </trkpt>
      <trkpt lat="42.729592" lon="0.550511">
        <ele>1344.2</ele>
        <time>2019-08-22T14:31:02Z</time>
      </trkpt>
      <trkpt lat="42.729580" lon="0.550351">
        <ele>1346.1</ele>
        <time>2019-08-22T14:31:14Z</time>
      </trkpt>
      <trkpt lat="42.729553" lon="0.550175">
        <ele>1348.1</ele>
        <time>2019-08-22T14:31:27Z</time>
      </trkpt>
      <trkpt lat="42.729540" lon="0.549967">
        <ele>1350.3</ele>
        <time>2019-08-22T14:31:39Z</time>
      </trkpt>
      <trkpt lat="42.729548" lon="0.549730">
        <ele>1352.1</ele>
        <time>2019-08-22T14:31:55Z</time>
      </trkpt>
      <trkpt lat="42.729625" lon="0.549644">
        <ele>1353.0</ele>
        <time>2019-08-22T14:32:12Z</time>
      </trkpt>
      <trkpt lat="42.729634" lon="0.549505">
        <ele>1354.1</ele>
        <time>2019-08-22T14:32:33Z</time>
      </trkpt>
      <trkpt lat="42.729597" lon="0.549434">
        <ele>1356.1</ele>
        <time>2019-08-22T14:32:55Z</time>
      </trkpt>
      <trkpt lat="42.729585" lon="0.549380">
        <ele>1358.1</ele>
        <time>2019-08-22T14:33:13Z</time>
      </trkpt>
      <trkpt lat="42.729664" lon="0.549376">
        <ele>1361.5</ele>
        <time>2019-08-22T14:33:27Z</time>
      </trkpt>
      <trkpt lat="42.729670" lon="0.549265">
        <ele>1364.9</ele>
        <time>2019-08-22T14:33:42Z</time>
      </trkpt>
      <trkpt lat="42.729752" lon="0.549284">
        <ele>1368.3</ele>
        <time>2019-08-22T14:33:58Z</time>
      </trkpt>
      <trkpt lat="42.729814" lon="0.549289">
        <ele>1371.3</ele>
        <time>2019-08-22T14:34:13Z</time>
      </trkpt>
      <trkpt lat="42.729886" lon="0.549401">
        <ele>1373.9</ele>
        <time>2019-08-22T14:34:24Z</time>
      </trkpt>
      <trkpt lat="42.729946" lon="0.549439">
        <ele>1375.8</ele>
        <time>2019-08-22T14:34:33Z</time>
      </trkpt>
      <trkpt lat="42.730014" lon="0.549378">
        <ele>1375.8</ele>
        <time>2019-08-22T14:34:41Z</time>
      </trkpt>
      <trkpt lat="42.730097" lon="0.549307">
        <ele>1375.3</ele>
        <time>2019-08-22T14:34:50Z</time>
      </trkpt>
      <trkpt lat="42.730135" lon="0.549165">
        <ele>1375.4</ele>
        <time>2019-08-22T14:35:00Z</time>
      </trkpt>
      <trkpt lat="42.730146" lon="0.549013">
        <ele>1376.1</ele>
        <time>2019-08-22T14:35:10Z</time>
      </trkpt>
      <trkpt lat="42.730179" lon="0.548858">
        <ele>1377.5</ele>
        <time>2019-08-22T14:35:19Z</time>
      </trkpt>
      <trkpt lat="42.730244" lon="0.548678">
        <ele>1380.8</ele>
        <time>2019-08-22T14:35:32Z</time>
      </trkpt>
      <trkpt lat="42.730261" lon="0.548504">
        <ele>1383.2</ele>
        <time>2019-08-22T14:35:43Z</time>
      </trkpt>
      <trkpt lat="42.730330" lon="0.548374">
        <ele>1385.5</ele>
        <time>2019-08-22T14:35:54Z</time>
      </trkpt>
      <trkpt lat="42.730292" lon="0.548303">
        <ele>1388.1</ele>
        <time>2019-08-22T14:36:08Z</time>
      </trkpt>
      <trkpt lat="42.730322" lon="0.548276">
        <ele>1391.5</ele>
        <time>2019-08-22T14:36:24Z</time>
      </trkpt>
      <trkpt lat="42.730284" lon="0.548184">
        <ele>1394.2</ele>
        <time>2019-08-22T14:36:38Z</time>
      </trkpt>
      <trkpt lat="42.730376" lon="0.548162">
        <ele>1396.6</ele>
        <time>2019-08-22T14:36:50Z</time>
      </trkpt>
      <trkpt lat="42.730344" lon="0.548118">
        <ele>1399.0</ele>
        <time>2019-08-22T14:37:05Z</time>
      </trkpt>
      <trkpt lat="42.730343" lon="0.548066">
        <ele>1401.3</ele>
        <time>2019-08-22T14:37:19Z</time>
      </trkpt>
      <trkpt lat="42.730453" lon="0.548094">
        <ele>1402.9</ele>
        <time>2019-08-22T14:37:28Z</time>
      </trkpt>
      <trkpt lat="42.730557" lon="0.548124">
        <ele>1405.2</ele>
        <time>2019-08-22T14:37:38Z</time>
      </trkpt>
      <trkpt lat="42.730631" lon="0.548074">
        <ele>1407.7</ele>
        <time>2019-08-22T14:37:52Z</time>
      </trkpt>
      <trkpt lat="42.730557" lon="0.547939">
        <ele>1410.4</ele>
        <time>2019-08-22T14:38:05Z</time>
      </trkpt>
      <trkpt lat="42.730501" lon="0.547863">
        <ele>1413.3</ele>
        <time>2019-08-22T14:38:23Z</time>
      </trkpt>
      <trkpt lat="42.730567" lon="0.547847">
        <ele>1416.1</ele>
        <time>2019-08-22T14:38:38Z</time>
      </trkpt>
      <trkpt lat="42.730594" lon="0.547808">
        <ele>1418.7</ele>
        <time>2019-08-22T14:38:51Z</time>
      </trkpt>
      <trkpt lat="42.730465" lon="0.547734">
        <ele>1420.6</ele>
        <time>2019-08-22T14:39:03Z</time>
      </trkpt>
      <trkpt lat="42.730340" lon="0.547743">
        <ele>1422.8</ele>
        <time>2019-08-22T14:39:17Z</time>
      </trkpt>
      <trkpt lat="42.730168" lon="0.547765">
        <ele>1424.5</ele>
        <time>2019-08-22T14:39:30Z</time>
      </trkpt>
      <trkpt lat="42.730048" lon="0.547868">
        <ele>1426.1</ele>
        <time>2019-08-22T14:39:41Z</time>
      </trkpt>
      <trkpt lat="42.729962" lon="0.548005">
        <ele>1427.8</ele>
        <time>2019-08-22T14:39:53Z</time>
      </trkpt>
      <trkpt lat="42.729886" lon="0.548116">
        <ele>1429.1</ele>
        <time>2019-08-22T14:40:03Z</time>
      </trkpt>
      <trkpt lat="42.729839" lon="0.548070">
        <ele>1431.6</ele>
        <time>2019-08-22T14:40:18Z</time>
      </trkpt>
      <trkpt lat="42.729852" lon="0.547880">
        <ele>1432.3</ele>
        <time>2019-08-22T14:40:31Z</time>
      </trkpt>
      <trkpt lat="42.729822" lon="0.547745">
        <ele>1434.4</ele>
        <time>2019-08-22T14:40:46Z</time>
      </trkpt>
      <trkpt lat="42.729706" lon="0.547570">
        <ele>1436.5</ele>
        <time>2019-08-22T14:40:59Z</time>
      </trkpt>
      <trkpt lat="42.729609" lon="0.547405">
        <ele>1439.2</ele>
        <time>2019-08-22T14:41:13Z</time>
      </trkpt>
      <trkpt lat="42.729669" lon="0.547363">
        <ele>1441.5</ele>
        <time>2019-08-22T14:41:28Z</time>
      </trkpt>
      <trkpt lat="42.729771" lon="0.547407">
        <ele>1444.4</ele>
        <time>2019-08-22T14:41:43Z</time>
      </trkpt>
      <trkpt lat="42.729877" lon="0.547378">
        <ele>1446.7</ele>
        <time>2019-08-22T14:41:58Z</time>
      </trkpt>
      <trkpt lat="42.729825" lon="0.547259">
        <ele>1449.5</ele>
        <time>2019-08-22T14:42:14Z</time>
      </trkpt>
      <trkpt lat="42.729704" lon="0.547118">
        <ele>1452.4</ele>
        <time>2019-08-22T14:42:30Z</time>
      </trkpt>
      <trkpt lat="42.729738" lon="0.547111">
        <ele>1455.2</ele>
        <time>2019-08-22T14:42:47Z</time>
      </trkpt>
      <trkpt lat="42.729844" lon="0.547115">
        <ele>1457.6</ele>
        <time>2019-08-22T14:43:02Z</time>
      </trkpt>
      <trkpt lat="42.729956" lon="0.547110">
        <ele>1462.1</ele>
        <time>2019-08-22T14:43:20Z</time>
      </trkpt>
      <trkpt lat="42.730061" lon="0.547052">
        <ele>1465.2</ele>
        <time>2019-08-22T14:43:35Z</time>
      </trkpt>
      <trkpt lat="42.730130" lon="0.546957">
        <ele>1469.1</ele>
        <time>2019-08-22T14:43:53Z</time>
      </trkpt>
      <trkpt lat="42.730204" lon="0.546854">
        <ele>1473.3</ele>
        <time>2019-08-22T14:44:11Z</time>
      </trkpt>
      <trkpt lat="42.730136" lon="0.546793">
        <ele>1477.3</ele>
        <time>2019-08-22T14:44:30Z</time>
      </trkpt>
      <trkpt lat="42.730048" lon="0.546729">
        <ele>1480.4</ele>
        <time>2019-08-22T14:44:47Z</time>
      </trkpt>
      <trkpt lat="42.729944" lon="0.546611">
        <ele>1483.0</ele>
        <time>2019-08-22T14:45:05Z</time>
      </trkpt>
      <trkpt lat="42.729845" lon="0.546540">
        <ele>1485.0</ele>
        <time>2019-08-22T14:45:19Z</time>
      </trkpt>
      <trkpt lat="42.729709" lon="0.546479">
        <ele>1487.1</ele>
        <time>2019-08-22T14:45:34Z</time>
      </trkpt>
      <trkpt lat="42.729562" lon="0.546332">
        <ele>1489.7</ele>
        <time>2019-08-22T14:45:49Z</time>
      </trkpt>
      <trkpt lat="42.729482" lon="0.546330">
        <ele>1491.9</ele>
        <time>2019-08-22T14:46:03Z</time>
      </trkpt>
      <trkpt lat="42.729561" lon="0.546265">
        <ele>1495.3</ele>
        <time>2019-08-22T14:46:23Z</time>
      </trkpt>
      <trkpt lat="42.729522" lon="0.546190">
        <ele>1498.2</ele>
        <time>2019-08-22T14:46:39Z</time>
      </trkpt>
      <trkpt lat="42.729479" lon="0.546096">
        <ele>1500.0</ele>
        <time>2019-08-22T14:46:51Z</time>
      </trkpt>
      <trkpt lat="42.729429" lon="0.545983">
        <ele>1502.2</ele>
        <time>2019-08-22T14:47:04Z</time>
      </trkpt>
      <trkpt lat="42.729508" lon="0.545983">
        <ele>1505.1</ele>
        <time>2019-08-22T14:47:20Z</time>
      </trkpt>
      <trkpt lat="42.729646" lon="0.546016">
        <ele>1507.0</ele>
        <time>2019-08-22T14:47:34Z</time>
      </trkpt>
      <trkpt lat="42.729751" lon="0.546058">
        <ele>1508.4</ele>
        <time>2019-08-22T14:47:45Z</time>
      </trkpt>
      <trkpt lat="42.729739" lon="0.545968">
        <ele>1510.8</ele>
        <time>2019-08-22T14:48:03Z</time>
      </trkpt>
      <trkpt lat="42.729644" lon="0.545880">
        <ele>1512.5</ele>
        <time>2019-08-22T14:48:15Z</time>
      </trkpt>
      <trkpt lat="42.729573" lon="0.545793">
        <ele>1514.5</ele>
        <time>2019-08-22T14:48:25Z</time>
      </trkpt>
      <trkpt lat="42.729448" lon="0.545780">
        <ele>1516.1</ele>
        <time>2019-08-22T14:48:38Z</time>
      </trkpt>
      <trkpt lat="42.729322" lon="0.545769">
        <ele>1518.0</ele>
        <time>2019-08-22T14:48:51Z</time>
      </trkpt>
      <trkpt lat="42.729223" lon="0.545731">
        <ele>1519.7</ele>
        <time>2019-08-22T14:49:03Z</time>
      </trkpt>
      <trkpt lat="42.729096" lon="0.545596">
        <ele>1521.5</ele>
        <time>2019-08-22T14:49:15Z</time>
      </trkpt>
      <trkpt lat="42.729001" lon="0.545462">
        <ele>1522.8</ele>
        <time>2019-08-22T14:49:24Z</time>
      </trkpt>
      <trkpt lat="42.728935" lon="0.545399">
        <ele>1523.9</ele>
        <time>2019-08-22T14:49:32Z</time>
      </trkpt>
      <trkpt lat="42.728844" lon="0.545374">
        <ele>1525.1</ele>
        <time>2019-08-22T14:49:41Z</time>
      </trkpt>
      <trkpt lat="42.728729" lon="0.545466">
        <ele>1526.6</ele>
        <time>2019-08-22T14:49:55Z</time>
      </trkpt>
      <trkpt lat="42.728608" lon="0.545530">
        <ele>1527.9</ele>
        <time>2019-08-22T14:50:07Z</time>
      </trkpt>
      <trkpt lat="42.728461" lon="0.545622">
        <ele>1529.2</ele>
        <time>2019-08-22T14:50:18Z</time>
      </trkpt>
      <trkpt lat="42.728390" lon="0.545793">
        <ele>1530.7</ele>
        <time>2019-08-22T14:50:28Z</time>
      </trkpt>
      <trkpt lat="42.728345" lon="0.545990">
        <ele>1532.4</ele>
        <time>2019-08-22T14:50:39Z</time>
      </trkpt>
      <trkpt lat="42.728298" lon="0.546145">
        <ele>1533.2</ele>
        <time>2019-08-22T14:50:51Z</time>
      </trkpt>
      <trkpt lat="42.728240" lon="0.546273">
        <ele>1533.0</ele>
        <time>2019-08-22T14:51:00Z</time>
      </trkpt>
      <trkpt lat="42.728152" lon="0.546374">
        <ele>1533.0</ele>
        <time>2019-08-22T14:51:09Z</time>
      </trkpt>
      <trkpt lat="42.728069" lon="0.546425">
        <ele>1531.7</ele>
        <time>2019-08-22T14:51:26Z</time>
      </trkpt>
      <trkpt lat="42.728040" lon="0.546454">
        <ele>1531.9</ele>
        <time>2019-08-22T14:52:35Z</time>
      </trkpt>
      <trkpt lat="42.727936" lon="0.546400">
        <ele>1534.3</ele>
        <time>2019-08-22T14:53:10Z</time>
      </trkpt>
      <trkpt lat="42.727813" lon="0.546368">
        <ele>1537.5</ele>
        <time>2019-08-22T14:53:25Z</time>
      </trkpt>
      <trkpt lat="42.727787" lon="0.546217">
        <ele>1540.6</ele>
        <time>2019-08-22T14:53:42Z</time>
      </trkpt>
      <trkpt lat="42.727773" lon="0.546053">
        <ele>1541.9</ele>
        <time>2019-08-22T14:53:53Z</time>
      </trkpt>
      <trkpt lat="42.727797" lon="0.545932">
        <ele>1542.4</ele>
        <time>2019-08-22T14:54:03Z</time>
      </trkpt>
      <trkpt lat="42.727833" lon="0.545790">
        <ele>1543.5</ele>
        <time>2019-08-22T14:54:15Z</time>
      </trkpt>
      <trkpt lat="42.727880" lon="0.545657">
        <ele>1546.7</ele>
        <time>2019-08-22T14:54:29Z</time>
      </trkpt>
      <trkpt lat="42.727978" lon="0.545576">
        <ele>1549.8</ele>
        <time>2019-08-22T14:54:43Z</time>
      </trkpt>
      <trkpt lat="42.727991" lon="0.545411">
        <ele>1553.3</ele>
        <time>2019-08-22T14:55:00Z</time>
      </trkpt>
      <trkpt lat="42.728094" lon="0.545320">
        <ele>1556.5</ele>
        <time>2019-08-22T14:55:16Z</time>
      </trkpt>
      <trkpt lat="42.728152" lon="0.545199">
        <ele>1560.2</ele>
        <time>2019-08-22T14:55:34Z</time>
      </trkpt>
      <trkpt lat="42.728119" lon="0.545058">
        <ele>1564.8</ele>
        <time>2019-08-22T14:55:54Z</time>
      </trkpt>
      <trkpt lat="42.728033" lon="0.544957">
        <ele>1567.8</ele>
        <time>2019-08-22T14:56:11Z</time>
      </trkpt>
      <trkpt lat="42.727917" lon="0.544821">
        <ele>1570.6</ele>
        <time>2019-08-22T14:56:27Z</time>
      </trkpt>
      <trkpt lat="42.727810" lon="0.544764">
        <ele>1574.2</ele>
        <time>2019-08-22T14:56:44Z</time>
      </trkpt>
      <trkpt lat="42.727690" lon="0.544626">
        <ele>1577.4</ele>
        <time>2019-08-22T14:57:02Z</time>
      </trkpt>
      <trkpt lat="42.727563" lon="0.544572">
        <ele>1580.1</ele>
        <time>2019-08-22T14:57:16Z</time>
      </trkpt>
      <trkpt lat="42.727451" lon="0.544473">
        <ele>1583.0</ele>
        <time>2019-08-22T14:57:32Z</time>
      </trkpt>
      <trkpt lat="42.727408" lon="0.544436">
        <ele>1588.0</ele>
        <time>2019-08-22T14:57:57Z</time>
      </trkpt>
      <trkpt lat="42.727511" lon="0.544398">
        <ele>1589.8</ele>
        <time>2019-08-22T14:58:08Z</time>
      </trkpt>
      <trkpt lat="42.727621" lon="0.544344">
        <ele>1591.9</ele>
        <time>2019-08-22T14:58:22Z</time>
      </trkpt>
      <trkpt lat="42.727609" lon="0.544266">
        <ele>1595.1</ele>
        <time>2019-08-22T14:58:38Z</time>
      </trkpt>
      <trkpt lat="42.727492" lon="0.544252">
        <ele>1598.5</ele>
        <time>2019-08-22T14:58:54Z</time>
      </trkpt>
      <trkpt lat="42.727373" lon="0.544128">
        <ele>1602.4</ele>
        <time>2019-08-22T14:59:14Z</time>
      </trkpt>
      <trkpt lat="42.727392" lon="0.544099">
        <ele>1605.7</ele>
        <time>2019-08-22T14:59:31Z</time>
      </trkpt>
      <trkpt lat="42.727460" lon="0.544007">
        <ele>1608.5</ele>
        <time>2019-08-22T14:59:47Z</time>
      </trkpt>
      <trkpt lat="42.727383" lon="0.543945">
        <ele>1612.0</ele>
        <time>2019-08-22T15:00:03Z</time>
      </trkpt>
      <trkpt lat="42.727317" lon="0.543898">
        <ele>1615.5</ele>
        <time>2019-08-22T15:00:21Z</time>
      </trkpt>
      <trkpt lat="42.727401" lon="0.543883">
        <ele>1617.5</ele>
        <time>2019-08-22T15:00:35Z</time>
      </trkpt>
      <trkpt lat="42.727500" lon="0.543851">
        <ele>1620.1</ele>
        <time>2019-08-22T15:00:50Z</time>
      </trkpt>
      <trkpt lat="42.727433" lon="0.543796">
        <ele>1623.7</ele>
        <time>2019-08-22T15:01:07Z</time>
      </trkpt>
      <trkpt lat="42.727342" lon="0.543763">
        <ele>1627.2</ele>
        <time>2019-08-22T15:01:25Z</time>
      </trkpt>
      <trkpt lat="42.727425" lon="0.543686">
        <ele>1630.0</ele>
        <time>2019-08-22T15:01:41Z</time>
      </trkpt>
      <trkpt lat="42.727527" lon="0.543666">
        <ele>1632.0</ele>
        <time>2019-08-22T15:01:52Z</time>
      </trkpt>
      <trkpt lat="42.727527" lon="0.543606">
        <ele>1634.9</ele>
        <time>2019-08-22T15:02:07Z</time>
      </trkpt>
      <trkpt lat="42.727461" lon="0.543539">
        <ele>1637.0</ele>
        <time>2019-08-22T15:02:19Z</time>
      </trkpt>
      <trkpt lat="42.727380" lon="0.543482">
        <ele>1649.2</ele>
        <time>2019-08-22T15:03:43Z</time>
      </trkpt>
      <trkpt lat="42.727516" lon="0.543474">
        <ele>1651.8</ele>
        <time>2019-08-22T15:03:57Z</time>
      </trkpt>
      <trkpt lat="42.727631" lon="0.543502">
        <ele>1654.0</ele>
        <time>2019-08-22T15:04:08Z</time>
      </trkpt>
      <trkpt lat="42.727718" lon="0.543538">
        <ele>1656.4</ele>
        <time>2019-08-22T15:04:20Z</time>
      </trkpt>
      <trkpt lat="42.727825" lon="0.543560">
        <ele>1659.1</ele>
        <time>2019-08-22T15:04:33Z</time>
      </trkpt>
      <trkpt lat="42.727764" lon="0.543453">
        <ele>1663.5</ele>
        <time>2019-08-22T15:04:51Z</time>
      </trkpt>
      <trkpt lat="42.727780" lon="0.543410">
        <ele>1666.8</ele>
        <time>2019-08-22T15:05:06Z</time>
      </trkpt>
      <trkpt lat="42.727894" lon="0.543436">
        <ele>1669.8</ele>
        <time>2019-08-22T15:05:21Z</time>
      </trkpt>
      <trkpt lat="42.727991" lon="0.543484">
        <ele>1672.1</ele>
        <time>2019-08-22T15:05:33Z</time>
      </trkpt>
      <trkpt lat="42.728004" lon="0.543472">
        <ele>1674.7</ele>
        <time>2019-08-22T15:05:50Z</time>
      </trkpt>
      <trkpt lat="42.727923" lon="0.543388">
        <ele>1677.1</ele>
        <time>2019-08-22T15:06:02Z</time>
      </trkpt>
      <trkpt lat="42.727831" lon="0.543286">
        <ele>1679.5</ele>
        <time>2019-08-22T15:06:17Z</time>
      </trkpt>
      <trkpt lat="42.727736" lon="0.543242">
        <ele>1682.5</ele>
        <time>2019-08-22T15:06:30Z</time>
      </trkpt>
      <trkpt lat="42.727638" lon="0.543132">
        <ele>1685.4</ele>
        <time>2019-08-22T15:06:44Z</time>
      </trkpt>
      <trkpt lat="42.727558" lon="0.543039">
        <ele>1687.5</ele>
        <time>2019-08-22T15:06:55Z</time>
      </trkpt>
      <trkpt lat="42.727546" lon="0.542890">
        <ele>1688.1</ele>
        <time>2019-08-22T15:07:05Z</time>
      </trkpt>
      <trkpt lat="42.727533" lon="0.542746">
        <ele>1689.2</ele>
        <time>2019-08-22T15:07:17Z</time>
      </trkpt>
      <trkpt lat="42.727461" lon="0.542624">
        <ele>1692.1</ele>
        <time>2019-08-22T15:07:31Z</time>
      </trkpt>
      <trkpt lat="42.727459" lon="0.542476">
        <ele>1694.6</ele>
        <time>2019-08-22T15:07:42Z</time>
      </trkpt>
      <trkpt lat="42.727471" lon="0.542369">
        <ele>1697.1</ele>
        <time>2019-08-22T15:08:04Z</time>
      </trkpt>
      <trkpt lat="42.727371" lon="0.542310">
        <ele>1699.0</ele>
        <time>2019-08-22T15:08:20Z</time>
      </trkpt>
      <trkpt lat="42.727275" lon="0.542373">
        <ele>1700.4</ele>
        <time>2019-08-22T15:08:30Z</time>
      </trkpt>
      <trkpt lat="42.727177" lon="0.542363">
        <ele>1701.8</ele>
        <time>2019-08-22T15:08:41Z</time>
      </trkpt>
      <trkpt lat="42.727088" lon="0.542361">
        <ele>1705.5</ele>
        <time>2019-08-22T15:08:55Z</time>
      </trkpt>
      <trkpt lat="42.726996" lon="0.542323">
        <ele>1707.7</ele>
        <time>2019-08-22T15:09:07Z</time>
      </trkpt>
      <trkpt lat="42.726897" lon="0.542292">
        <ele>1710.7</ele>
        <time>2019-08-22T15:09:22Z</time>
      </trkpt>
      <trkpt lat="42.726849" lon="0.542322">
        <ele>1714.1</ele>
        <time>2019-08-22T15:10:19Z</time>
      </trkpt>
      <trkpt lat="42.726814" lon="0.542417">
        <ele>1714.8</ele>
        <time>2019-08-22T15:11:25Z</time>
      </trkpt>
      <trkpt lat="42.726734" lon="0.542474">
        <ele>1714.8</ele>
        <time>2019-08-22T15:11:36Z</time>
      </trkpt>
      <trkpt lat="42.726644" lon="0.542482">
        <ele>1715.3</ele>
        <time>2019-08-22T15:11:48Z</time>
      </trkpt>
      <trkpt lat="42.726556" lon="0.542470">
        <ele>1718.2</ele>
        <time>2019-08-22T15:12:04Z</time>
      </trkpt>
      <trkpt lat="42.726466" lon="0.542431">
        <ele>1721.2</ele>
        <time>2019-08-22T15:12:16Z</time>
      </trkpt>
      <trkpt lat="42.726357" lon="0.542426">
        <ele>1724.3</ele>
        <time>2019-08-22T15:12:48Z</time>
      </trkpt>
      <trkpt lat="42.726281" lon="0.542364">
        <ele>1725.5</ele>
        <time>2019-08-22T15:13:02Z</time>
      </trkpt>
      <trkpt lat="42.726191" lon="0.542344">
        <ele>1727.8</ele>
        <time>2019-08-22T15:13:15Z</time>
      </trkpt>
      <trkpt lat="42.726101" lon="0.542276">
        <ele>1730.8</ele>
        <time>2019-08-22T15:13:28Z</time>
      </trkpt>
      <trkpt lat="42.726033" lon="0.542180">
        <ele>1733.9</ele>
        <time>2019-08-22T15:13:40Z</time>
      </trkpt>
      <trkpt lat="42.725946" lon="0.542107">
        <ele>1735.8</ele>
        <time>2019-08-22T15:13:53Z</time>
      </trkpt>
      <trkpt lat="42.725843" lon="0.542024">
        <ele>1738.9</ele>
        <time>2019-08-22T15:14:07Z</time>
      </trkpt>
      <trkpt lat="42.725751" lon="0.541999">
        <ele>1740.4</ele>
        <time>2019-08-22T15:14:17Z</time>
      </trkpt>
      <trkpt lat="42.725650" lon="0.541963">
        <ele>1742.2</ele>
        <time>2019-08-22T15:14:30Z</time>
      </trkpt>
      <trkpt lat="42.725544" lon="0.541908">
        <ele>1744.0</ele>
        <time>2019-08-22T15:14:42Z</time>
      </trkpt>
      <trkpt lat="42.725454" lon="0.541861">
        <ele>1747.6</ele>
        <time>2019-08-22T15:14:57Z</time>
      </trkpt>
      <trkpt lat="42.725394" lon="0.541745">
        <ele>1751.5</ele>
        <time>2019-08-22T15:15:13Z</time>
      </trkpt>
      <trkpt lat="42.725341" lon="0.541622">
        <ele>1754.1</ele>
        <time>2019-08-22T15:15:27Z</time>
      </trkpt>
      <trkpt lat="42.725250" lon="0.541638">
        <ele>1757.0</ele>
        <time>2019-08-22T15:15:42Z</time>
      </trkpt>
      <trkpt lat="42.725167" lon="0.541717">
        <ele>1758.3</ele>
        <time>2019-08-22T15:15:52Z</time>
      </trkpt>
      <trkpt lat="42.725075" lon="0.541678">
        <ele>1760.4</ele>
        <time>2019-08-22T15:16:04Z</time>
      </trkpt>
      <trkpt lat="42.724971" lon="0.541653">
        <ele>1763.2</ele>
        <time>2019-08-22T15:16:20Z</time>
      </trkpt>
      <trkpt lat="42.724880" lon="0.541602">
        <ele>1765.1</ele>
        <time>2019-08-22T15:16:29Z</time>
      </trkpt>
      <trkpt lat="42.724802" lon="0.541539">
        <ele>1767.5</ele>
        <time>2019-08-22T15:16:43Z</time>
      </trkpt>
      <trkpt lat="42.724707" lon="0.541488">
        <ele>1770.1</ele>
        <time>2019-08-22T15:16:55Z</time>
      </trkpt>
      <trkpt lat="42.724585" lon="0.541441">
        <ele>1772.4</ele>
        <time>2019-08-22T15:17:07Z</time>
      </trkpt>
      <trkpt lat="42.724585" lon="0.541371">
        <ele>1774.6</ele>
        <time>2019-08-22T15:17:21Z</time>
      </trkpt>
      <trkpt lat="42.724701" lon="0.541332">
        <ele>1777.3</ele>
        <time>2019-08-22T15:17:34Z</time>
      </trkpt>
      <trkpt lat="42.724795" lon="0.541285">
        <ele>1780.0</ele>
        <time>2019-08-22T15:17:51Z</time>
      </trkpt>
      <trkpt lat="42.724893" lon="0.541239">
        <ele>1781.7</ele>
        <time>2019-08-22T15:18:03Z</time>
      </trkpt>
      <trkpt lat="42.724914" lon="0.541153">
        <ele>1784.3</ele>
        <time>2019-08-22T15:18:16Z</time>
      </trkpt>
      <trkpt lat="42.724880" lon="0.541077">
        <ele>1788.6</ele>
        <time>2019-08-22T15:18:41Z</time>
      </trkpt>
      <trkpt lat="42.724846" lon="0.541021">
        <ele>1793.6</ele>
        <time>2019-08-22T15:19:13Z</time>
      </trkpt>
      <trkpt lat="42.724777" lon="0.541050">
        <ele>1794.5</ele>
        <time>2019-08-22T15:19:29Z</time>
      </trkpt>
      <trkpt lat="42.724697" lon="0.541077">
        <ele>1793.5</ele>
        <time>2019-08-22T15:19:38Z</time>
      </trkpt>
      <trkpt lat="42.724611" lon="0.541073">
        <ele>1792.5</ele>
        <time>2019-08-22T15:19:46Z</time>
      </trkpt>
      <trkpt lat="42.724530" lon="0.541029">
        <ele>1793.6</ele>
        <time>2019-08-22T15:19:55Z</time>
      </trkpt>
      <trkpt lat="42.724446" lon="0.541001">
        <ele>1795.8</ele>
        <time>2019-08-22T15:20:06Z</time>
      </trkpt>
      <trkpt lat="42.724399" lon="0.540962">
        <ele>1798.0</ele>
        <time>2019-08-22T15:20:17Z</time>
      </trkpt>
      <trkpt lat="42.724324" lon="0.540894">
        <ele>1799.8</ele>
        <time>2019-08-22T15:20:44Z</time>
      </trkpt>
      <trkpt lat="42.724245" lon="0.540803">
        <ele>1803.4</ele>
        <time>2019-08-22T15:21:01Z</time>
      </trkpt>
      <trkpt lat="42.724145" lon="0.540753">
        <ele>1805.9</ele>
        <time>2019-08-22T15:21:14Z</time>
      </trkpt>
      <trkpt lat="42.724063" lon="0.540714">
        <ele>1807.5</ele>
        <time>2019-08-22T15:21:24Z</time>
      </trkpt>
      <trkpt lat="42.724019" lon="0.540607">
        <ele>1810.3</ele>
        <time>2019-08-22T15:21:37Z</time>
      </trkpt>
      <trkpt lat="42.723951" lon="0.540492">
        <ele>1813.4</ele>
        <time>2019-08-22T15:21:53Z</time>
      </trkpt>
      <trkpt lat="42.723866" lon="0.540410">
        <ele>1814.9</ele>
        <time>2019-08-22T15:22:05Z</time>
      </trkpt>
      <trkpt lat="42.723757" lon="0.540364">
        <ele>1815.8</ele>
        <time>2019-08-22T15:22:16Z</time>
      </trkpt>
      <trkpt lat="42.723663" lon="0.540335">
        <ele>1818.2</ele>
        <time>2019-08-22T15:22:27Z</time>
      </trkpt>
      <trkpt lat="42.723566" lon="0.540342">
        <ele>1820.0</ele>
        <time>2019-08-22T15:22:39Z</time>
      </trkpt>
      <trkpt lat="42.723447" lon="0.540313">
        <ele>1821.6</ele>
        <time>2019-08-22T15:22:51Z</time>
      </trkpt>
      <trkpt lat="42.723356" lon="0.540279">
        <ele>1824.1</ele>
        <time>2019-08-22T15:23:04Z</time>
      </trkpt>
      <trkpt lat="42.723265" lon="0.540247">
        <ele>1826.4</ele>
        <time>2019-08-22T15:23:17Z</time>
      </trkpt>
      <trkpt lat="42.723169" lon="0.540233">
        <ele>1829.0</ele>
        <time>2019-08-22T15:23:32Z</time>
      </trkpt>
      <trkpt lat="42.723085" lon="0.540210">
        <ele>1831.4</ele>
        <time>2019-08-22T15:23:45Z</time>
      </trkpt>
      <trkpt lat="42.723012" lon="0.540273">
        <ele>1832.5</ele>
        <time>2019-08-22T15:23:56Z</time>
      </trkpt>
      <trkpt lat="42.722915" lon="0.540300">
        <ele>1834.8</ele>
        <time>2019-08-22T15:24:07Z</time>
      </trkpt>
      <trkpt lat="42.722827" lon="0.540269">
        <ele>1836.5</ele>
        <time>2019-08-22T15:24:18Z</time>
      </trkpt>
      <trkpt lat="42.722734" lon="0.540247">
        <ele>1838.6</ele>
        <time>2019-08-22T15:24:29Z</time>
      </trkpt>
      <trkpt lat="42.722639" lon="0.540174">
        <ele>1841.2</ele>
        <time>2019-08-22T15:24:40Z</time>
      </trkpt>
      <trkpt lat="42.722574" lon="0.540088">
        <ele>1843.1</ele>
        <time>2019-08-22T15:24:51Z</time>
      </trkpt>
      <trkpt lat="42.722489" lon="0.540030">
        <ele>1845.1</ele>
        <time>2019-08-22T15:25:03Z</time>
      </trkpt>
      <trkpt lat="42.722402" lon="0.539970">
        <ele>1847.4</ele>
        <time>2019-08-22T15:25:16Z</time>
      </trkpt>
      <trkpt lat="42.722315" lon="0.539910">
        <ele>1850.0</ele>
        <time>2019-08-22T15:25:30Z</time>
      </trkpt>
      <trkpt lat="42.722236" lon="0.539921">
        <ele>1851.8</ele>
        <time>2019-08-22T15:25:40Z</time>
      </trkpt>
      <trkpt lat="42.722136" lon="0.539876">
        <ele>1854.6</ele>
        <time>2019-08-22T15:25:55Z</time>
      </trkpt>
      <trkpt lat="42.722064" lon="0.539956">
        <ele>1856.8</ele>
        <time>2019-08-22T15:26:06Z</time>
      </trkpt>
      <trkpt lat="42.721983" lon="0.540025">
        <ele>1859.0</ele>
        <time>2019-08-22T15:26:20Z</time>
      </trkpt>
      <trkpt lat="42.721916" lon="0.540073">
        <ele>1861.0</ele>
        <time>2019-08-22T15:26:50Z</time>
      </trkpt>
      <trkpt lat="42.721831" lon="0.540090">
        <ele>1862.2</ele>
        <time>2019-08-22T15:26:58Z</time>
      </trkpt>
      <trkpt lat="42.721765" lon="0.540086">
        <ele>1864.1</ele>
        <time>2019-08-22T15:27:09Z</time>
      </trkpt>
      <trkpt lat="42.721726" lon="0.540052">
        <ele>1867.8</ele>
        <time>2019-08-22T15:28:21Z</time>
      </trkpt>
      <trkpt lat="42.721664" lon="0.539955">
        <ele>1868.3</ele>
        <time>2019-08-22T15:28:32Z</time>
      </trkpt>
      <trkpt lat="42.721740" lon="0.539933">
        <ele>1871.5</ele>
        <time>2019-08-22T15:28:46Z</time>
      </trkpt>
      <trkpt lat="42.721676" lon="0.539836">
        <ele>1873.4</ele>
        <time>2019-08-22T15:28:58Z</time>
      </trkpt>
      <trkpt lat="42.721662" lon="0.539730">
        <ele>1875.6</ele>
        <time>2019-08-22T15:29:09Z</time>
      </trkpt>
      <trkpt lat="42.721754" lon="0.539768">
        <ele>1878.1</ele>
        <time>2019-08-22T15:29:21Z</time>
      </trkpt>
      <trkpt lat="42.721788" lon="0.539721">
        <ele>1880.2</ele>
        <time>2019-08-22T15:29:33Z</time>
      </trkpt>
      <trkpt lat="42.721725" lon="0.539623">
        <ele>1882.4</ele>
        <time>2019-08-22T15:29:47Z</time>
      </trkpt>
      <trkpt lat="42.721757" lon="0.539509">
        <ele>1885.7</ele>
        <time>2019-08-22T15:30:04Z</time>
      </trkpt>
      <trkpt lat="42.721844" lon="0.539560">
        <ele>1889.0</ele>
        <time>2019-08-22T15:30:18Z</time>
      </trkpt>
      <trkpt lat="42.721944" lon="0.539610">
        <ele>1891.8</ele>
        <time>2019-08-22T15:30:33Z</time>
      </trkpt>
      <trkpt lat="42.721954" lon="0.539569">
        <ele>1894.3</ele>
        <time>2019-08-22T15:30:47Z</time>
      </trkpt>
      <trkpt lat="42.721951" lon="0.539515">
        <ele>1896.5</ele>
        <time>2019-08-22T15:31:00Z</time>
      </trkpt>
      <trkpt lat="42.722053" lon="0.539527">
        <ele>1899.5</ele>
        <time>2019-08-22T15:31:16Z</time>
      </trkpt>
      <trkpt lat="42.721998" lon="0.539438">
        <ele>1902.0</ele>
        <time>2019-08-22T15:31:30Z</time>
      </trkpt>
      <trkpt lat="42.721929" lon="0.539325">
        <ele>1904.3</ele>
        <time>2019-08-22T15:31:44Z</time>
      </trkpt>
      <trkpt lat="42.721850" lon="0.539243">
        <ele>1907.1</ele>
        <time>2019-08-22T15:31:56Z</time>
      </trkpt>
      <trkpt lat="42.721769" lon="0.539163">
        <ele>1909.5</ele>
        <time>2019-08-22T15:32:10Z</time>
      </trkpt>
      <trkpt lat="42.721711" lon="0.539062">
        <ele>1911.8</ele>
        <time>2019-08-22T15:32:23Z</time>
      </trkpt>
      <trkpt lat="42.721696" lon="0.538987">
        <ele>1915.1</ele>
        <time>2019-08-22T15:32:47Z</time>
      </trkpt>
      <trkpt lat="42.721803" lon="0.539008">
        <ele>1916.8</ele>
        <time>2019-08-22T15:33:00Z</time>
      </trkpt>
      <trkpt lat="42.721894" lon="0.539067">
        <ele>1919.0</ele>
        <time>2019-08-22T15:34:28Z</time>
      </trkpt>
      <trkpt lat="42.721973" lon="0.539095">
        <ele>1919.9</ele>
        <time>2019-08-22T15:34:40Z</time>
      </trkpt>
      <trkpt lat="42.722064" lon="0.539114">
        <ele>1921.2</ele>
        <time>2019-08-22T15:34:49Z</time>
      </trkpt>
      <trkpt lat="42.722146" lon="0.539121">
        <ele>1922.8</ele>
        <time>2019-08-22T15:34:59Z</time>
      </trkpt>
      <trkpt lat="42.722238" lon="0.539066">
        <ele>1925.4</ele>
        <time>2019-08-22T15:35:11Z</time>
      </trkpt>
      <trkpt lat="42.722327" lon="0.539078">
        <ele>1928.0</ele>
        <time>2019-08-22T15:35:23Z</time>
      </trkpt>
      <trkpt lat="42.722426" lon="0.539084">
        <ele>1930.6</ele>
        <time>2019-08-22T15:35:36Z</time>
      </trkpt>
      <trkpt lat="42.722506" lon="0.538995">
        <ele>1933.8</ele>
        <time>2019-08-22T15:35:51Z</time>
      </trkpt>
      <trkpt lat="42.722575" lon="0.538923">
        <ele>1934.9</ele>
        <time>2019-08-22T15:36:20Z</time>
      </trkpt>
      <trkpt lat="42.722649" lon="0.538819">
        <ele>1933.7</ele>
        <time>2019-08-22T15:36:30Z</time>
      </trkpt>
      <trkpt lat="42.722726" lon="0.538724">
        <ele>1934.6</ele>
        <time>2019-08-22T15:36:39Z</time>
      </trkpt>
      <trkpt lat="42.722811" lon="0.538690">
        <ele>1936.2</ele>
        <time>2019-08-22T15:36:51Z</time>
      </trkpt>
      <trkpt lat="42.722899" lon="0.538702">
        <ele>1938.3</ele>
        <time>2019-08-22T15:37:02Z</time>
      </trkpt>
      <trkpt lat="42.722994" lon="0.538685">
        <ele>1940.9</ele>
        <time>2019-08-22T15:37:14Z</time>
      </trkpt>
      <trkpt lat="42.723097" lon="0.538699">
        <ele>1942.9</ele>
        <time>2019-08-22T15:37:25Z</time>
      </trkpt>
      <trkpt lat="42.723193" lon="0.538702">
        <ele>1945.7</ele>
        <time>2019-08-22T15:37:38Z</time>
      </trkpt>
      <trkpt lat="42.723276" lon="0.538679">
        <ele>1948.2</ele>
        <time>2019-08-22T15:37:49Z</time>
      </trkpt>
      <trkpt lat="42.723360" lon="0.538609">
        <ele>1951.1</ele>
        <time>2019-08-22T15:38:03Z</time>
      </trkpt>
      <trkpt lat="42.723427" lon="0.538586">
        <ele>1954.4</ele>
        <time>2019-08-22T15:38:41Z</time>
      </trkpt>
      <trkpt lat="42.723342" lon="0.538481">
        <ele>1955.8</ele>
        <time>2019-08-22T15:38:54Z</time>
      </trkpt>
      <trkpt lat="42.723412" lon="0.538474">
        <ele>1959.7</ele>
        <time>2019-08-22T15:39:13Z</time>
      </trkpt>
      <trkpt lat="42.723508" lon="0.538539">
        <ele>1962.4</ele>
        <time>2019-08-22T15:39:26Z</time>
      </trkpt>
      <trkpt lat="42.723599" lon="0.538483">
        <ele>1964.3</ele>
        <time>2019-08-22T15:39:36Z</time>
      </trkpt>
      <trkpt lat="42.723678" lon="0.538492">
        <ele>1966.4</ele>
        <time>2019-08-22T15:39:49Z</time>
      </trkpt>
      <trkpt lat="42.723745" lon="0.538509">
        <ele>1969.5</ele>
        <time>2019-08-22T15:40:01Z</time>
      </trkpt>
      <trkpt lat="42.723756" lon="0.538439">
        <ele>1972.6</ele>
        <time>2019-08-22T15:40:16Z</time>
      </trkpt>
      <trkpt lat="42.723737" lon="0.538312">
        <ele>1975.7</ele>
        <time>2019-08-22T15:40:32Z</time>
      </trkpt>
      <trkpt lat="42.723766" lon="0.538206">
        <ele>1980.0</ele>
        <time>2019-08-22T15:40:52Z</time>
      </trkpt>
      <trkpt lat="42.723805" lon="0.538127">
        <ele>1984.2</ele>
        <time>2019-08-22T15:41:13Z</time>
      </trkpt>
      <trkpt lat="42.723754" lon="0.538035">
        <ele>1987.4</ele>
        <time>2019-08-22T15:41:31Z</time>
      </trkpt>
      <trkpt lat="42.723686" lon="0.537943">
        <ele>1990.0</ele>
        <time>2019-08-22T15:41:48Z</time>
      </trkpt>
      <trkpt lat="42.723622" lon="0.537852">
        <ele>1991.9</ele>
        <time>2019-08-22T15:42:01Z</time>
      </trkpt>
      <trkpt lat="42.723614" lon="0.537733">
        <ele>1994.2</ele>
        <time>2019-08-22T15:42:16Z</time>
      </trkpt>
      <trkpt lat="42.723576" lon="0.537618">
        <ele>1996.9</ele>
        <time>2019-08-22T15:42:30Z</time>
      </trkpt>
      <trkpt lat="42.723503" lon="0.537637">
        <ele>1999.5</ele>
        <time>2019-08-22T15:42:42Z</time>
      </trkpt>
      <trkpt lat="42.723415" lon="0.537705">
        <ele>2001.7</ele>
        <time>2019-08-22T15:43:05Z</time>
      </trkpt>
      <trkpt lat="42.723359" lon="0.537609">
        <ele>2003.5</ele>
        <time>2019-08-22T15:43:43Z</time>
      </trkpt>
      <trkpt lat="42.723332" lon="0.537477">
        <ele>2003.8</ele>
        <time>2019-08-22T15:43:53Z</time>
      </trkpt>
      <trkpt lat="42.723328" lon="0.537339">
        <ele>2005.1</ele>
        <time>2019-08-22T15:44:06Z</time>
      </trkpt>
      <trkpt lat="42.723291" lon="0.537219">
        <ele>2007.1</ele>
        <time>2019-08-22T15:44:18Z</time>
      </trkpt>
      <trkpt lat="42.723244" lon="0.537112">
        <ele>2009.1</ele>
        <time>2019-08-22T15:44:28Z</time>
      </trkpt>
      <trkpt lat="42.723190" lon="0.537068">
        <ele>2010.9</ele>
        <time>2019-08-22T15:44:39Z</time>
      </trkpt>
      <trkpt lat="42.723168" lon="0.536954">
        <ele>2014.0</ele>
        <time>2019-08-22T15:44:56Z</time>
      </trkpt>
      <trkpt lat="42.723158" lon="0.536825">
        <ele>2016.7</ele>
        <time>2019-08-22T15:45:10Z</time>
      </trkpt>
      <trkpt lat="42.723133" lon="0.536697">
        <ele>2019.8</ele>
        <time>2019-08-22T15:45:26Z</time>
      </trkpt>
      <trkpt lat="42.723175" lon="0.536581">
        <ele>2022.8</ele>
        <time>2019-08-22T15:45:40Z</time>
      </trkpt>
      <trkpt lat="42.723229" lon="0.536478">
        <ele>2026.2</ele>
        <time>2019-08-22T15:45:57Z</time>
      </trkpt>
      <trkpt lat="42.723207" lon="0.536361">
        <ele>2029.2</ele>
        <time>2019-08-22T15:46:13Z</time>
      </trkpt>
      <trkpt lat="42.723227" lon="0.536239">
        <ele>2031.8</ele>
        <time>2019-08-22T15:46:26Z</time>
      </trkpt>
      <trkpt lat="42.723258" lon="0.536115">
        <ele>2035.2</ele>
        <time>2019-08-22T15:46:41Z</time>
      </trkpt>
      <trkpt lat="42.723313" lon="0.536031">
        <ele>2039.0</ele>
        <time>2019-08-22T15:47:30Z</time>
      </trkpt>
      <trkpt lat="42.723409" lon="0.535972">
        <ele>2042.1</ele>
        <time>2019-08-22T15:47:44Z</time>
      </trkpt>
      <trkpt lat="42.723483" lon="0.535888">
        <ele>2044.0</ele>
        <time>2019-08-22T15:47:55Z</time>
      </trkpt>
      <trkpt lat="42.723573" lon="0.535832">
        <ele>2046.2</ele>
        <time>2019-08-22T15:48:08Z</time>
      </trkpt>
      <trkpt lat="42.723666" lon="0.535757">
        <ele>2049.0</ele>
        <time>2019-08-22T15:48:24Z</time>
      </trkpt>
      <trkpt lat="42.723732" lon="0.535686">
        <ele>2051.8</ele>
        <time>2019-08-22T15:48:40Z</time>
      </trkpt>
      <trkpt lat="42.723833" lon="0.535676">
        <ele>2054.4</ele>
        <time>2019-08-22T15:48:56Z</time>
      </trkpt>
      <trkpt lat="42.723902" lon="0.535627">
        <ele>2057.4</ele>
        <time>2019-08-22T15:49:11Z</time>
      </trkpt>
      <trkpt lat="42.723954" lon="0.535540">
        <ele>2061.5</ele>
        <time>2019-08-22T15:49:32Z</time>
      </trkpt>
      <trkpt lat="42.724002" lon="0.535444">
        <ele>2065.8</ele>
        <time>2019-08-22T15:49:57Z</time>
      </trkpt>
      <trkpt lat="42.724083" lon="0.535412">
        <ele>2070.5</ele>
        <time>2019-08-22T15:50:24Z</time>
      </trkpt>
      <trkpt lat="42.724166" lon="0.535376">
        <ele>2075.6</ele>
        <time>2019-08-22T15:50:56Z</time>
      </trkpt>
      <trkpt lat="42.724231" lon="0.535308">
        <ele>2081.2</ele>
        <time>2019-08-22T15:51:27Z</time>
      </trkpt>
      <trkpt lat="42.724312" lon="0.535265">
        <ele>2086.2</ele>
        <time>2019-08-22T15:51:53Z</time>
      </trkpt>
      <trkpt lat="42.724339" lon="0.535187">
        <ele>2089.3</ele>
        <time>2019-08-22T15:52:12Z</time>
      </trkpt>
      <trkpt lat="42.724388" lon="0.535211">
        <ele>2093.5</ele>
        <time>2019-08-22T15:52:52Z</time>
      </trkpt>
      <trkpt lat="42.724465" lon="0.535165">
        <ele>2096.0</ele>
        <time>2019-08-22T15:53:23Z</time>
      </trkpt>
      <trkpt lat="42.724550" lon="0.535182">
        <ele>2100.1</ele>
        <time>2019-08-22T15:53:48Z</time>
      </trkpt>
      <trkpt lat="42.724627" lon="0.535147">
        <ele>2104.9</ele>
        <time>2019-08-22T15:54:17Z</time>
      </trkpt>
      <trkpt lat="42.724705" lon="0.535105">
        <ele>2109.0</ele>
        <time>2019-08-22T15:54:42Z</time>
      </trkpt>
      <trkpt lat="42.724771" lon="0.535043">
        <ele>2112.9</ele>
        <time>2019-08-22T15:55:07Z</time>
      </trkpt>
      <trkpt lat="42.724820" lon="0.534995">
        <ele>2116.4</ele>
        <time>2019-08-22T15:55:30Z</time>
      </trkpt>
      <trkpt lat="42.724907" lon="0.534971">
        <ele>2120.7</ele>
        <time>2019-08-22T15:55:59Z</time>
      </trkpt>
      <trkpt lat="42.724997" lon="0.534957">
        <ele>2123.7</ele>
        <time>2019-08-22T15:56:17Z</time>
      </trkpt>
      <trkpt lat="42.725039" lon="0.534907">
        <ele>2126.6</ele>
        <time>2019-08-22T15:56:35Z</time>
      </trkpt>
      <trkpt lat="42.725040" lon="0.534782">
        <ele>2128.7</ele>
        <time>2019-08-22T15:56:52Z</time>
      </trkpt>
      <trkpt lat="42.725034" lon="0.534651">
        <ele>2131.9</ele>
        <time>2019-08-22T15:57:08Z</time>
      </trkpt>
      <trkpt lat="42.725074" lon="0.534542">
        <ele>2135.7</ele>
        <time>2019-08-22T15:57:29Z</time>
      </trkpt>
      <trkpt lat="42.725110" lon="0.534469">
        <ele>2139.1</ele>
        <time>2019-08-22T15:57:48Z</time>
      </trkpt>
      <trkpt lat="42.725147" lon="0.534386">
        <ele>2142.1</ele>
        <time>2019-08-22T15:58:07Z</time>
      </trkpt>
      <trkpt lat="42.725143" lon="0.534269">
        <ele>2145.9</ele>
        <time>2019-08-22T15:58:30Z</time>
      </trkpt>
      <trkpt lat="42.725091" lon="0.534158">
        <ele>2148.4</ele>
        <time>2019-08-22T15:58:45Z</time>
      </trkpt>
      <trkpt lat="42.725078" lon="0.534040">
        <ele>2150.9</ele>
        <time>2019-08-22T15:59:00Z</time>
      </trkpt>
      <trkpt lat="42.725063" lon="0.533912">
        <ele>2152.6</ele>
        <time>2019-08-22T15:59:14Z</time>
      </trkpt>
      <trkpt lat="42.725028" lon="0.533773">
        <ele>2154.9</ele>
        <time>2019-08-22T15:59:32Z</time>
      </trkpt>
      <trkpt lat="42.724977" lon="0.533699">
        <ele>2156.7</ele>
        <time>2019-08-22T15:59:44Z</time>
      </trkpt>
      <trkpt lat="42.725012" lon="0.533596">
        <ele>2160.0</ele>
        <time>2019-08-22T16:00:02Z</time>
      </trkpt>
      <trkpt lat="42.725040" lon="0.533481">
        <ele>2163.6</ele>
        <time>2019-08-22T16:00:17Z</time>
      </trkpt>
      <trkpt lat="42.725067" lon="0.533415">
        <ele>2166.7</ele>
        <time>2019-08-22T16:00:36Z</time>
      </trkpt>
      <trkpt lat="42.725108" lon="0.533179">
        <ele>2214.9</ele>
        <time>2019-08-22T16:02:38Z</time>
      </trkpt>
      <trkpt lat="42.725160" lon="0.532968">
        <ele>2217.1</ele>
        <time>2019-08-22T16:02:59Z</time>
      </trkpt>
      <trkpt lat="42.725178" lon="0.532805">
        <ele>2219.9</ele>
        <time>2019-08-22T16:03:16Z</time>
      </trkpt>
      <trkpt lat="42.725164" lon="0.532669">
        <ele>2222.6</ele>
        <time>2019-08-22T16:03:42Z</time>
      </trkpt>
      <trkpt lat="42.725142" lon="0.532519">
        <ele>2223.8</ele>
        <time>2019-08-22T16:03:55Z</time>
      </trkpt>
      <trkpt lat="42.725088" lon="0.532386">
        <ele>2224.6</ele>
        <time>2019-08-22T16:04:04Z</time>
      </trkpt>
      <trkpt lat="42.725059" lon="0.532274">
        <ele>2225.5</ele>
        <time>2019-08-22T16:04:13Z</time>
      </trkpt>
      <trkpt lat="42.725037" lon="0.532163">
        <ele>2226.8</ele>
        <time>2019-08-22T16:04:21Z</time>
      </trkpt>
      <trkpt lat="42.725000" lon="0.532073">
        <ele>2228.1</ele>
        <time>2019-08-22T16:04:32Z</time>
      </trkpt>
      <trkpt lat="42.724940" lon="0.531990">
        <ele>2229.7</ele>
        <time>2019-08-22T16:04:43Z</time>
      </trkpt>
      <trkpt lat="42.724883" lon="0.531886">
        <ele>2230.9</ele>
        <time>2019-08-22T16:04:53Z</time>
      </trkpt>
      <trkpt lat="42.724794" lon="0.531843">
        <ele>2232.0</ele>
        <time>2019-08-22T16:05:04Z</time>
      </trkpt>
      <trkpt lat="42.724762" lon="0.531705">
        <ele>2233.7</ele>
        <time>2019-08-22T16:05:17Z</time>
      </trkpt>
      <trkpt lat="42.724708" lon="0.531607">
        <ele>2236.3</ele>
        <time>2019-08-22T16:05:37Z</time>
      </trkpt>
      <trkpt lat="42.724698" lon="0.531491">
        <ele>2238.7</ele>
        <time>2019-08-22T16:05:50Z</time>
      </trkpt>
      <trkpt lat="42.724687" lon="0.531371">
        <ele>2240.3</ele>
        <time>2019-08-22T16:06:01Z</time>
      </trkpt>
      <trkpt lat="42.724684" lon="0.531242">
        <ele>2241.8</ele>
        <time>2019-08-22T16:06:11Z</time>
      </trkpt>
      <trkpt lat="42.724650" lon="0.531150">
        <ele>2242.7</ele>
        <time>2019-08-22T16:06:20Z</time>
      </trkpt>
      <trkpt lat="42.724621" lon="0.531046">
        <ele>2246.0</ele>
        <time>2019-08-22T16:06:34Z</time>
      </trkpt>
      <trkpt lat="42.724603" lon="0.530898">
        <ele>2249.8</ele>
        <time>2019-08-22T16:06:50Z</time>
      </trkpt>
      <trkpt lat="42.724576" lon="0.530807">
        <ele>2250.8</ele>
        <time>2019-08-22T16:10:57Z</time>
      </trkpt>
      <trkpt lat="42.724558" lon="0.530762">
        <ele>2249.3</ele>
        <time>2019-08-22T16:13:49Z</time>
      </trkpt>
      <trkpt lat="42.724551" lon="0.530612">
        <ele>2249.4</ele>
        <time>2019-08-22T16:14:01Z</time>
      </trkpt>
      <trkpt lat="42.724547" lon="0.530484">
        <ele>2250.1</ele>
        <time>2019-08-22T16:14:12Z</time>
      </trkpt>
      <trkpt lat="42.724549" lon="0.530343">
        <ele>2251.0</ele>
        <time>2019-08-22T16:14:24Z</time>
      </trkpt>
      <trkpt lat="42.724559" lon="0.530187">
        <ele>2251.3</ele>
        <time>2019-08-22T16:14:35Z</time>
      </trkpt>
      <trkpt lat="42.724543" lon="0.530050">
        <ele>2252.8</ele>
        <time>2019-08-22T16:14:46Z</time>
      </trkpt>
      <trkpt lat="42.724550" lon="0.529987">
        <ele>2253.5</ele>
        <time>2019-08-22T16:15:22Z</time>
      </trkpt>
      <trkpt lat="42.724520" lon="0.529878">
        <ele>2253.8</ele>
        <time>2019-08-22T16:15:32Z</time>
      </trkpt>
      <trkpt lat="42.724470" lon="0.529745">
        <ele>2253.7</ele>
        <time>2019-08-22T16:15:42Z</time>
      </trkpt>
      <trkpt lat="42.724430" lon="0.529616">
        <ele>2254.0</ele>
        <time>2019-08-22T16:15:49Z</time>
      </trkpt>
      <trkpt lat="42.724409" lon="0.529477">
        <ele>2253.8</ele>
        <time>2019-08-22T16:15:57Z</time>
      </trkpt>
      <trkpt lat="42.724379" lon="0.529345">
        <ele>2252.0</ele>
        <time>2019-08-22T16:16:06Z</time>
      </trkpt>
      <trkpt lat="42.724343" lon="0.529248">
        <ele>2250.1</ele>
        <time>2019-08-22T16:16:14Z</time>
      </trkpt>
      <trkpt lat="42.724258" lon="0.529238">
        <ele>2250.0</ele>
        <time>2019-08-22T16:16:21Z</time>
      </trkpt>
      <trkpt lat="42.724179" lon="0.529206">
        <ele>2252.0</ele>
        <time>2019-08-22T16:16:32Z</time>
      </trkpt>
      <trkpt lat="42.724114" lon="0.529115">
        <ele>2252.8</ele>
        <time>2019-08-22T16:16:39Z</time>
      </trkpt>
      <trkpt lat="42.724063" lon="0.529078">
        <ele>2254.7</ele>
        <time>2019-08-22T16:16:53Z</time>
      </trkpt>
      <trkpt lat="42.723971" lon="0.528969">
        <ele>2254.0</ele>
        <time>2019-08-22T16:17:01Z</time>
      </trkpt>
      <trkpt lat="42.723925" lon="0.528851">
        <ele>2253.6</ele>
        <time>2019-08-22T16:17:11Z</time>
      </trkpt>
      <trkpt lat="42.723893" lon="0.528739">
        <ele>2252.7</ele>
        <time>2019-08-22T16:17:19Z</time>
      </trkpt>
      <trkpt lat="42.723851" lon="0.528623">
        <ele>2251.7</ele>
        <time>2019-08-22T16:17:29Z</time>
      </trkpt>
      <trkpt lat="42.723817" lon="0.528509">
        <ele>2250.7</ele>
        <time>2019-08-22T16:17:47Z</time>
      </trkpt>
      <trkpt lat="42.723738" lon="0.528551">
        <ele>2248.5</ele>
        <time>2019-08-22T16:17:59Z</time>
      </trkpt>
      <trkpt lat="42.723683" lon="0.528443">
        <ele>2247.9</ele>
        <time>2019-08-22T16:18:11Z</time>
      </trkpt>
      <trkpt lat="42.723610" lon="0.528467">
        <ele>2251.5</ele>
        <time>2019-08-22T16:22:01Z</time>
      </trkpt>
      <trkpt lat="42.723513" lon="0.528581">
        <ele>2252.0</ele>
        <time>2019-08-22T16:22:13Z</time>
      </trkpt>
      <trkpt lat="42.723424" lon="0.528664">
        <ele>2252.8</ele>
        <time>2019-08-22T16:22:23Z</time>
      </trkpt>
      <trkpt lat="42.723337" lon="0.528749">
        <ele>2253.0</ele>
        <time>2019-08-22T16:22:32Z</time>
      </trkpt>
      <trkpt lat="42.723271" lon="0.528863">
        <ele>2253.7</ele>
        <time>2019-08-22T16:22:42Z</time>
      </trkpt>
      <trkpt lat="42.723233" lon="0.528953">
        <ele>2256.2</ele>
        <time>2019-08-22T16:22:56Z</time>
      </trkpt>
      <trkpt lat="42.723165" lon="0.529050">
        <ele>2259.5</ele>
        <time>2019-08-22T16:23:10Z</time>
      </trkpt>
      <trkpt lat="42.723090" lon="0.529052">
        <ele>2261.4</ele>
        <time>2019-08-22T16:23:25Z</time>
      </trkpt>
      <trkpt lat="42.723022" lon="0.529016">
        <ele>2261.5</ele>
        <time>2019-08-22T16:23:37Z</time>
      </trkpt>
      <trkpt lat="42.722962" lon="0.528904">
        <ele>2259.1</ele>
        <time>2019-08-22T16:23:51Z</time>
      </trkpt>
      <trkpt lat="42.722914" lon="0.528781">
        <ele>2256.7</ele>
        <time>2019-08-22T16:24:02Z</time>
      </trkpt>
      <trkpt lat="42.722836" lon="0.528702">
        <ele>2256.0</ele>
        <time>2019-08-22T16:24:09Z</time>
      </trkpt>
      <trkpt lat="42.722766" lon="0.528660">
        <ele>2255.6</ele>
        <time>2019-08-22T16:24:20Z</time>
      </trkpt>
      <trkpt lat="42.722684" lon="0.528746">
        <ele>2256.3</ele>
        <time>2019-08-22T16:24:31Z</time>
      </trkpt>
      <trkpt lat="42.722619" lon="0.528855">
        <ele>2256.3</ele>
        <time>2019-08-22T16:24:40Z</time>
      </trkpt>
      <trkpt lat="42.722544" lon="0.528894">
        <ele>2255.6</ele>
        <time>2019-08-22T16:24:48Z</time>
      </trkpt>
      <trkpt lat="42.722459" lon="0.528865">
        <ele>2256.7</ele>
        <time>2019-08-22T16:25:02Z</time>
      </trkpt>
      <trkpt lat="42.722351" lon="0.528910">
        <ele>2259.9</ele>
        <time>2019-08-22T16:25:16Z</time>
      </trkpt>
      <trkpt lat="42.722291" lon="0.528964">
        <ele>2261.9</ele>
        <time>2019-08-22T16:25:26Z</time>
      </trkpt>
      <trkpt lat="42.722280" lon="0.529110">
        <ele>2262.7</ele>
        <time>2019-08-22T16:25:36Z</time>
      </trkpt>
      <trkpt lat="42.722231" lon="0.529246">
        <ele>2261.7</ele>
        <time>2019-08-22T16:25:44Z</time>
      </trkpt>
      <trkpt lat="42.722160" lon="0.529340">
        <ele>2260.4</ele>
        <time>2019-08-22T16:25:52Z</time>
      </trkpt>
      <trkpt lat="42.722081" lon="0.529401">
        <ele>2259.2</ele>
        <time>2019-08-22T16:25:58Z</time>
      </trkpt>
      <trkpt lat="42.722033" lon="0.529484">
        <ele>2258.0</ele>
        <time>2019-08-22T16:26:05Z</time>
      </trkpt>
      <trkpt lat="42.721986" lon="0.529595">
        <ele>2256.8</ele>
        <time>2019-08-22T16:26:12Z</time>
      </trkpt>
      <trkpt lat="42.721955" lon="0.529729">
        <ele>2255.5</ele>
        <time>2019-08-22T16:26:20Z</time>
      </trkpt>
      <trkpt lat="42.721904" lon="0.529840">
        <ele>2253.9</ele>
        <time>2019-08-22T16:26:29Z</time>
      </trkpt>
      <trkpt lat="42.721859" lon="0.529950">
        <ele>2251.3</ele>
        <time>2019-08-22T16:26:37Z</time>
      </trkpt>
      <trkpt lat="42.721795" lon="0.530058">
        <ele>2249.2</ele>
        <time>2019-08-22T16:26:46Z</time>
      </trkpt>
      <trkpt lat="42.721743" lon="0.530145">
        <ele>2247.9</ele>
        <time>2019-08-22T16:26:53Z</time>
      </trkpt>
      <trkpt lat="42.721696" lon="0.530253">
        <ele>2245.7</ele>
        <time>2019-08-22T16:27:00Z</time>
      </trkpt>
      <trkpt lat="42.721656" lon="0.530354">
        <ele>2243.3</ele>
        <time>2019-08-22T16:27:08Z</time>
      </trkpt>
      <trkpt lat="42.721613" lon="0.530450">
        <ele>2241.4</ele>
        <time>2019-08-22T16:27:16Z</time>
      </trkpt>
      <trkpt lat="42.721608" lon="0.530556">
        <ele>2240.4</ele>
        <time>2019-08-22T16:27:23Z</time>
      </trkpt>
      <trkpt lat="42.721559" lon="0.530672">
        <ele>2238.9</ele>
        <time>2019-08-22T16:27:33Z</time>
      </trkpt>
      <trkpt lat="42.721526" lon="0.530794">
        <ele>2237.6</ele>
        <time>2019-08-22T16:27:40Z</time>
      </trkpt>
      <trkpt lat="42.721503" lon="0.530903">
        <ele>2235.5</ele>
        <time>2019-08-22T16:27:47Z</time>
      </trkpt>
      <trkpt lat="42.721497" lon="0.531003">
        <ele>2232.6</ele>
        <time>2019-08-22T16:28:05Z</time>
      </trkpt>
      <trkpt lat="42.721441" lon="0.531017">
        <ele>2228.7</ele>
        <time>2019-08-22T16:29:24Z</time>
      </trkpt>
      <trkpt lat="42.721346" lon="0.530971">
        <ele>2229.6</ele>
        <time>2019-08-22T16:29:38Z</time>
      </trkpt>
      <trkpt lat="42.721250" lon="0.530975">
        <ele>2231.6</ele>
        <time>2019-08-22T16:29:50Z</time>
      </trkpt>
      <trkpt lat="42.721178" lon="0.531033">
        <ele>2229.8</ele>
        <time>2019-08-22T16:30:04Z</time>
      </trkpt>
      <trkpt lat="42.721115" lon="0.531122">
        <ele>2226.4</ele>
        <time>2019-08-22T16:30:19Z</time>
      </trkpt>
      <trkpt lat="42.721031" lon="0.531109">
        <ele>2223.5</ele>
        <time>2019-08-22T16:30:29Z</time>
      </trkpt>
      <trkpt lat="42.720947" lon="0.531176">
        <ele>2221.2</ele>
        <time>2019-08-22T16:30:39Z</time>
      </trkpt>
      <trkpt lat="42.720895" lon="0.531303">
        <ele>2219.9</ele>
        <time>2019-08-22T16:30:54Z</time>
      </trkpt>
      <trkpt lat="42.720838" lon="0.531419">
        <ele>2219.2</ele>
        <time>2019-08-22T16:31:02Z</time>
      </trkpt>
      <trkpt lat="42.720790" lon="0.531525">
        <ele>2218.7</ele>
        <time>2019-08-22T16:31:14Z</time>
      </trkpt>
      <trkpt lat="42.720731" lon="0.531608">
        <ele>2218.6</ele>
        <time>2019-08-22T16:31:23Z</time>
      </trkpt>
      <trkpt lat="42.720676" lon="0.531693">
        <ele>2217.9</ele>
        <time>2019-08-22T16:31:30Z</time>
      </trkpt>
      <trkpt lat="42.720600" lon="0.531764">
        <ele>2218.4</ele>
        <time>2019-08-22T16:31:40Z</time>
      </trkpt>
      <trkpt lat="42.720535" lon="0.531849">
        <ele>2218.2</ele>
        <time>2019-08-22T16:31:49Z</time>
      </trkpt>
      <trkpt lat="42.720460" lon="0.531912">
        <ele>2217.1</ele>
        <time>2019-08-22T16:32:00Z</time>
      </trkpt>
      <trkpt lat="42.720379" lon="0.531914">
        <ele>2216.0</ele>
        <time>2019-08-22T16:32:10Z</time>
      </trkpt>
      <trkpt lat="42.720299" lon="0.531876">
        <ele>2217.0</ele>
        <time>2019-08-22T16:32:22Z</time>
      </trkpt>
      <trkpt lat="42.720209" lon="0.531862">
        <ele>2219.8</ele>
        <time>2019-08-22T16:32:37Z</time>
      </trkpt>
      <trkpt lat="42.720145" lon="0.531765">
        <ele>2221.2</ele>
        <time>2019-08-22T16:32:49Z</time>
      </trkpt>
      <trkpt lat="42.720069" lon="0.531738">
        <ele>2222.6</ele>
        <time>2019-08-22T16:33:01Z</time>
      </trkpt>
      <trkpt lat="42.720018" lon="0.531663">
        <ele>2226.6</ele>
        <time>2019-08-22T16:33:21Z</time>
      </trkpt>
      <trkpt lat="42.719932" lon="0.531679">
        <ele>2230.4</ele>
        <time>2019-08-22T16:33:45Z</time>
      </trkpt>
      <trkpt lat="42.719846" lon="0.531711">
        <ele>2232.8</ele>
        <time>2019-08-22T16:33:59Z</time>
      </trkpt>
      <trkpt lat="42.719752" lon="0.531730">
        <ele>2235.3</ele>
        <time>2019-08-22T16:34:19Z</time>
      </trkpt>
      <trkpt lat="42.719675" lon="0.531722">
        <ele>2238.5</ele>
        <time>2019-08-22T16:34:38Z</time>
      </trkpt>
      <trkpt lat="42.719592" lon="0.531705">
        <ele>2241.5</ele>
        <time>2019-08-22T16:34:53Z</time>
      </trkpt>
      <trkpt lat="42.719517" lon="0.531722">
        <ele>2243.3</ele>
        <time>2019-08-22T16:35:09Z</time>
      </trkpt>
      <trkpt lat="42.719427" lon="0.531698">
        <ele>2245.7</ele>
        <time>2019-08-22T16:35:40Z</time>
      </trkpt>
      <trkpt lat="42.719363" lon="0.531649">
        <ele>2246.6</ele>
        <time>2019-08-22T16:35:59Z</time>
      </trkpt>
      <trkpt lat="42.719256" lon="0.531618">
        <ele>2248.2</ele>
        <time>2019-08-22T16:37:05Z</time>
      </trkpt>
      <trkpt lat="42.719164" lon="0.531577">
        <ele>2248.2</ele>
        <time>2019-08-22T16:37:17Z</time>
      </trkpt>
      <trkpt lat="42.719085" lon="0.531513">
        <ele>2250.9</ele>
        <time>2019-08-22T16:37:34Z</time>
      </trkpt>
      <trkpt lat="42.719010" lon="0.531436">
        <ele>2253.8</ele>
        <time>2019-08-22T16:37:49Z</time>
      </trkpt>
      <trkpt lat="42.718955" lon="0.531451">
        <ele>2255.8</ele>
        <time>2019-08-22T16:38:09Z</time>
      </trkpt>
      <trkpt lat="42.718878" lon="0.531500">
        <ele>2255.8</ele>
        <time>2019-08-22T16:38:41Z</time>
      </trkpt>
      <trkpt lat="42.718785" lon="0.531518">
        <ele>2257.3</ele>
        <time>2019-08-22T16:38:59Z</time>
      </trkpt>
      <trkpt lat="42.718755" lon="0.531432">
        <ele>2259.1</ele>
        <time>2019-08-22T16:39:15Z</time>
      </trkpt>
      <trkpt lat="42.718672" lon="0.531465">
        <ele>2259.7</ele>
        <time>2019-08-22T16:39:27Z</time>
      </trkpt>
      <trkpt lat="42.718580" lon="0.531474">
        <ele>2260.0</ele>
        <time>2019-08-22T16:39:41Z</time>
      </trkpt>
      <trkpt lat="42.718480" lon="0.531453">
        <ele>2261.0</ele>
        <time>2019-08-22T16:39:54Z</time>
      </trkpt>
      <trkpt lat="42.718388" lon="0.531417">
        <ele>2260.7</ele>
        <time>2019-08-22T16:40:05Z</time>
      </trkpt>
      <trkpt lat="42.718286" lon="0.531445">
        <ele>2261.4</ele>
        <time>2019-08-22T16:40:19Z</time>
      </trkpt>
      <trkpt lat="42.718191" lon="0.531476">
        <ele>2262.1</ele>
        <time>2019-08-22T16:40:29Z</time>
      </trkpt>
      <trkpt lat="42.718103" lon="0.531457">
        <ele>2262.2</ele>
        <time>2019-08-22T16:40:56Z</time>
      </trkpt>
      <trkpt lat="42.718025" lon="0.531427">
        <ele>2264.7</ele>
        <time>2019-08-22T16:41:14Z</time>
      </trkpt>
      <trkpt lat="42.717947" lon="0.531412">
        <ele>2267.7</ele>
        <time>2019-08-22T16:41:31Z</time>
      </trkpt>
      <trkpt lat="42.717855" lon="0.531471">
        <ele>2270.1</ele>
        <time>2019-08-22T16:41:48Z</time>
      </trkpt>
      <trkpt lat="42.717768" lon="0.531467">
        <ele>2271.7</ele>
        <time>2019-08-22T16:42:01Z</time>
      </trkpt>
      <trkpt lat="42.717689" lon="0.531454">
        <ele>2274.0</ele>
        <time>2019-08-22T16:42:15Z</time>
      </trkpt>
      <trkpt lat="42.717586" lon="0.531393">
        <ele>2275.9</ele>
        <time>2019-08-22T16:42:30Z</time>
      </trkpt>
      <trkpt lat="42.717497" lon="0.531350">
        <ele>2277.2</ele>
        <time>2019-08-22T16:42:43Z</time>
      </trkpt>
      <trkpt lat="42.717413" lon="0.531399">
        <ele>2279.0</ele>
        <time>2019-08-22T16:42:59Z</time>
      </trkpt>
      <trkpt lat="42.717314" lon="0.531438">
        <ele>2280.6</ele>
        <time>2019-08-22T16:43:10Z</time>
      </trkpt>
      <trkpt lat="42.717231" lon="0.531499">
        <ele>2281.7</ele>
        <time>2019-08-22T16:43:19Z</time>
      </trkpt>
      <trkpt lat="42.717148" lon="0.531551">
        <ele>2283.8</ele>
        <time>2019-08-22T16:43:34Z</time>
      </trkpt>
      <trkpt lat="42.717065" lon="0.531640">
        <ele>2285.4</ele>
        <time>2019-08-22T16:43:47Z</time>
      </trkpt>
      <trkpt lat="42.716981" lon="0.531667">
        <ele>2286.7</ele>
        <time>2019-08-22T16:44:01Z</time>
      </trkpt>
      <trkpt lat="42.716881" lon="0.531662">
        <ele>2287.8</ele>
        <time>2019-08-22T16:44:36Z</time>
      </trkpt>
      <trkpt lat="42.716788" lon="0.531699">
        <ele>2287.6</ele>
        <time>2019-08-22T16:44:46Z</time>
      </trkpt>
      <trkpt lat="42.716692" lon="0.531709">
        <ele>2287.9</ele>
        <time>2019-08-22T16:44:58Z</time>
      </trkpt>
      <trkpt lat="42.716597" lon="0.531722">
        <ele>2289.4</ele>
        <time>2019-08-22T16:45:07Z</time>
      </trkpt>
      <trkpt lat="42.716504" lon="0.531725">
        <ele>2291.0</ele>
        <time>2019-08-22T16:45:20Z</time>
      </trkpt>
      <trkpt lat="42.716415" lon="0.531794">
        <ele>2292.0</ele>
        <time>2019-08-22T16:45:34Z</time>
      </trkpt>
      <trkpt lat="42.716325" lon="0.531861">
        <ele>2292.7</ele>
        <time>2019-08-22T16:45:47Z</time>
      </trkpt>
      <trkpt lat="42.716242" lon="0.531906">
        <ele>2292.9</ele>
        <time>2019-08-22T16:46:00Z</time>
      </trkpt>
      <trkpt lat="42.716171" lon="0.531998">
        <ele>2292.8</ele>
        <time>2019-08-22T16:46:11Z</time>
      </trkpt>
      <trkpt lat="42.716083" lon="0.532004">
        <ele>2292.5</ele>
        <time>2019-08-22T16:46:20Z</time>
      </trkpt>
      <trkpt lat="42.716015" lon="0.532056">
        <ele>2291.8</ele>
        <time>2019-08-22T16:46:32Z</time>
      </trkpt>
      <trkpt lat="42.715911" lon="0.532092">
        <ele>2292.3</ele>
        <time>2019-08-22T16:46:43Z</time>
      </trkpt>
      <trkpt lat="42.715817" lon="0.532113">
        <ele>2292.4</ele>
        <time>2019-08-22T16:46:51Z</time>
      </trkpt>
      <trkpt lat="42.715730" lon="0.532148">
        <ele>2293.4</ele>
        <time>2019-08-22T16:47:04Z</time>
      </trkpt>
      <trkpt lat="42.715640" lon="0.532209">
        <ele>2294.9</ele>
        <time>2019-08-22T16:47:21Z</time>
      </trkpt>
      <trkpt lat="42.715534" lon="0.532257">
        <ele>2298.0</ele>
        <time>2019-08-22T16:47:39Z</time>
      </trkpt>
      <trkpt lat="42.715433" lon="0.532281">
        <ele>2298.7</ele>
        <time>2019-08-22T16:47:53Z</time>
      </trkpt>
      <trkpt lat="42.715338" lon="0.532271">
        <ele>2299.8</ele>
        <time>2019-08-22T16:48:09Z</time>
      </trkpt>
      <trkpt lat="42.715249" lon="0.532329">
        <ele>2301.2</ele>
        <time>2019-08-22T16:48:42Z</time>
      </trkpt>
      <trkpt lat="42.715150" lon="0.532387">
        <ele>2300.9</ele>
        <time>2019-08-22T16:49:05Z</time>
      </trkpt>
      <trkpt lat="42.715068" lon="0.532465">
        <ele>2299.6</ele>
        <time>2019-08-22T16:49:16Z</time>
      </trkpt>
      <trkpt lat="42.714990" lon="0.532507">
        <ele>2299.0</ele>
        <time>2019-08-22T16:49:26Z</time>
      </trkpt>
      <trkpt lat="42.714909" lon="0.532569">
        <ele>2298.7</ele>
        <time>2019-08-22T16:49:35Z</time>
      </trkpt>
      <trkpt lat="42.714817" lon="0.532632">
        <ele>2297.9</ele>
        <time>2019-08-22T16:49:46Z</time>
      </trkpt>
      <trkpt lat="42.714730" lon="0.532657">
        <ele>2297.5</ele>
        <time>2019-08-22T16:49:56Z</time>
      </trkpt>
      <trkpt lat="42.714639" lon="0.532672">
        <ele>2296.9</ele>
        <time>2019-08-22T16:50:40Z</time>
      </trkpt>
      <trkpt lat="42.714538" lon="0.532682">
        <ele>2295.8</ele>
        <time>2019-08-22T16:50:50Z</time>
      </trkpt>
      <trkpt lat="42.714457" lon="0.532761">
        <ele>2295.6</ele>
        <time>2019-08-22T16:51:02Z</time>
      </trkpt>
      <trkpt lat="42.714397" lon="0.532848">
        <ele>2295.6</ele>
        <time>2019-08-22T16:51:13Z</time>
      </trkpt>
      <trkpt lat="42.714325" lon="0.532915">
        <ele>2295.5</ele>
        <time>2019-08-22T16:51:23Z</time>
      </trkpt>
      <trkpt lat="42.714258" lon="0.533006">
        <ele>2295.5</ele>
        <time>2019-08-22T16:51:32Z</time>
      </trkpt>
      <trkpt lat="42.714185" lon="0.533078">
        <ele>2295.5</ele>
        <time>2019-08-22T16:51:42Z</time>
      </trkpt>
      <trkpt lat="42.714111" lon="0.533160">
        <ele>2295.4</ele>
        <time>2019-08-22T16:51:52Z</time>
      </trkpt>
      <trkpt lat="42.714054" lon="0.533246">
        <ele>2295.0</ele>
        <time>2019-08-22T16:52:01Z</time>
      </trkpt>
      <trkpt lat="42.713993" lon="0.533345">
        <ele>2294.8</ele>
        <time>2019-08-22T16:52:12Z</time>
      </trkpt>
      <trkpt lat="42.713925" lon="0.533446">
        <ele>2294.5</ele>
        <time>2019-08-22T16:52:21Z</time>
      </trkpt>
      <trkpt lat="42.713853" lon="0.533507">
        <ele>2294.4</ele>
        <time>2019-08-22T16:52:29Z</time>
      </trkpt>
      <trkpt lat="42.713786" lon="0.533584">
        <ele>2294.4</ele>
        <time>2019-08-22T16:52:43Z</time>
      </trkpt>
      <trkpt lat="42.713718" lon="0.533631">
        <ele>2293.0</ele>
        <time>2019-08-22T16:53:02Z</time>
      </trkpt>
      <trkpt lat="42.713628" lon="0.533658">
        <ele>2292.4</ele>
        <time>2019-08-22T16:53:15Z</time>
      </trkpt>
      <trkpt lat="42.713528" lon="0.533670">
        <ele>2293.1</ele>
        <time>2019-08-22T16:53:30Z</time>
      </trkpt>
      <trkpt lat="42.713436" lon="0.533725">
        <ele>2294.9</ele>
        <time>2019-08-22T16:53:46Z</time>
      </trkpt>
      <trkpt lat="42.713357" lon="0.533714">
        <ele>2296.3</ele>
        <time>2019-08-22T16:54:08Z</time>
      </trkpt>
      <trkpt lat="42.713308" lon="0.533736">
        <ele>2297.8</ele>
        <time>2019-08-22T16:54:34Z</time>
      </trkpt>
      <trkpt lat="42.713283" lon="0.533836">
        <ele>2297.8</ele>
        <time>2019-08-22T16:54:57Z</time>
      </trkpt>
      <trkpt lat="42.713281" lon="0.533962">
        <ele>2296.7</ele>
        <time>2019-08-22T16:55:12Z</time>
      </trkpt>
      <trkpt lat="42.713308" lon="0.534057">
        <ele>2295.1</ele>
        <time>2019-08-22T16:55:26Z</time>
      </trkpt>
      <trkpt lat="42.713323" lon="0.534168">
        <ele>2291.9</ele>
        <time>2019-08-22T16:55:45Z</time>
      </trkpt>
      <trkpt lat="42.713390" lon="0.534209">
        <ele>2289.3</ele>
        <time>2019-08-22T16:56:04Z</time>
      </trkpt>
      <trkpt lat="42.713342" lon="0.534278">
        <ele>2287.8</ele>
        <time>2019-08-22T16:56:14Z</time>
      </trkpt>
      <trkpt lat="42.713305" lon="0.534365">
        <ele>2288.1</ele>
        <time>2019-08-22T16:56:24Z</time>
      </trkpt>
      <trkpt lat="42.713236" lon="0.534432">
        <ele>2288.4</ele>
        <time>2019-08-22T16:56:33Z</time>
      </trkpt>
      <trkpt lat="42.713188" lon="0.534525">
        <ele>2288.5</ele>
        <time>2019-08-22T16:56:51Z</time>
      </trkpt>
      <trkpt lat="42.713128" lon="0.534604">
        <ele>2288.0</ele>
        <time>2019-08-22T16:57:06Z</time>
      </trkpt>
      <trkpt lat="42.713032" lon="0.534650">
        <ele>2287.9</ele>
        <time>2019-08-22T16:57:17Z</time>
      </trkpt>
      <trkpt lat="42.712974" lon="0.534750">
        <ele>2287.7</ele>
        <time>2019-08-22T16:57:26Z</time>
      </trkpt>
      <trkpt lat="42.712917" lon="0.534854">
        <ele>2286.9</ele>
        <time>2019-08-22T16:57:40Z</time>
      </trkpt>
      <trkpt lat="42.712854" lon="0.534955">
        <ele>2287.3</ele>
        <time>2019-08-22T16:57:51Z</time>
      </trkpt>
      <trkpt lat="42.712805" lon="0.535028">
        <ele>2287.4</ele>
        <time>2019-08-22T16:58:00Z</time>
      </trkpt>
      <trkpt lat="42.712780" lon="0.535132">
        <ele>2287.7</ele>
        <time>2019-08-22T16:58:12Z</time>
      </trkpt>
      <trkpt lat="42.712733" lon="0.535223">
        <ele>2287.7</ele>
        <time>2019-08-22T16:58:20Z</time>
      </trkpt>
      <trkpt lat="42.712669" lon="0.535278">
        <ele>2287.1</ele>
        <time>2019-08-22T16:58:29Z</time>
      </trkpt>
      <trkpt lat="42.712608" lon="0.535395">
        <ele>2287.0</ele>
        <time>2019-08-22T16:58:38Z</time>
      </trkpt>
      <trkpt lat="42.712564" lon="0.535507">
        <ele>2286.7</ele>
        <time>2019-08-22T16:58:48Z</time>
      </trkpt>
      <trkpt lat="42.712518" lon="0.535617">
        <ele>2286.5</ele>
        <time>2019-08-22T16:58:57Z</time>
      </trkpt>
      <trkpt lat="42.712471" lon="0.535718">
        <ele>2286.3</ele>
        <time>2019-08-22T16:59:09Z</time>
      </trkpt>
      <trkpt lat="42.712422" lon="0.535823">
        <ele>2284.1</ele>
        <time>2019-08-22T16:59:27Z</time>
      </trkpt>
      <trkpt lat="42.712355" lon="0.535876">
        <ele>2285.2</ele>
        <time>2019-08-22T16:59:43Z</time>
      </trkpt>
      <trkpt lat="42.712250" lon="0.535895">
        <ele>2287.4</ele>
        <time>2019-08-22T16:59:59Z</time>
      </trkpt>
      <trkpt lat="42.712139" lon="0.535917">
        <ele>2288.6</ele>
        <time>2019-08-22T17:00:09Z</time>
      </trkpt>
      <trkpt lat="42.712066" lon="0.535993">
        <ele>2289.2</ele>
        <time>2019-08-22T17:00:19Z</time>
      </trkpt>
      <trkpt lat="42.712045" lon="0.536102">
        <ele>2289.6</ele>
        <time>2019-08-22T17:00:31Z</time>
      </trkpt>
      <trkpt lat="42.712032" lon="0.536170">
        <ele>2286.5</ele>
        <time>2019-08-22T17:00:56Z</time>
      </trkpt>
      <trkpt lat="42.712026" lon="0.536227">
        <ele>2284.4</ele>
        <time>2019-08-22T17:01:09Z</time>
      </trkpt>
      <trkpt lat="42.711977" lon="0.536327">
        <ele>2283.3</ele>
        <time>2019-08-22T17:01:18Z</time>
      </trkpt>
      <trkpt lat="42.711908" lon="0.536408">
        <ele>2282.0</ele>
        <time>2019-08-22T17:01:26Z</time>
      </trkpt>
      <trkpt lat="42.711856" lon="0.536509">
        <ele>2281.3</ele>
        <time>2019-08-22T17:01:38Z</time>
      </trkpt>
      <trkpt lat="42.711767" lon="0.536523">
        <ele>2282.1</ele>
        <time>2019-08-22T17:01:52Z</time>
      </trkpt>
      <trkpt lat="42.711669" lon="0.536554">
        <ele>2283.9</ele>
        <time>2019-08-22T17:02:06Z</time>
      </trkpt>
      <trkpt lat="42.711617" lon="0.536663">
        <ele>2284.8</ele>
        <time>2019-08-22T17:02:17Z</time>
      </trkpt>
      <trkpt lat="42.711529" lon="0.536702">
        <ele>2285.9</ele>
        <time>2019-08-22T17:02:27Z</time>
      </trkpt>
      <trkpt lat="42.711500" lon="0.536799">
        <ele>2284.9</ele>
        <time>2019-08-22T17:02:40Z</time>
      </trkpt>
      <trkpt lat="42.711526" lon="0.536854">
        <ele>2282.0</ele>
        <time>2019-08-22T17:02:56Z</time>
      </trkpt>
      <trkpt lat="42.711463" lon="0.536941">
        <ele>2280.6</ele>
        <time>2019-08-22T17:03:05Z</time>
      </trkpt>
      <trkpt lat="42.711489" lon="0.537079">
        <ele>2279.5</ele>
        <time>2019-08-22T17:03:16Z</time>
      </trkpt>
      <trkpt lat="42.711462" lon="0.537179">
        <ele>2279.8</ele>
        <time>2019-08-22T17:03:36Z</time>
      </trkpt>
      <trkpt lat="42.711423" lon="0.537298">
        <ele>2279.8</ele>
        <time>2019-08-22T17:03:50Z</time>
      </trkpt>
      <trkpt lat="42.711338" lon="0.537363">
        <ele>2280.1</ele>
        <time>2019-08-22T17:04:00Z</time>
      </trkpt>
      <trkpt lat="42.711284" lon="0.537483">
        <ele>2279.7</ele>
        <time>2019-08-22T17:04:09Z</time>
      </trkpt>
      <trkpt lat="42.711268" lon="0.537589">
        <ele>2279.0</ele>
        <time>2019-08-22T17:04:17Z</time>
      </trkpt>
      <trkpt lat="42.711204" lon="0.537659">
        <ele>2279.1</ele>
        <time>2019-08-22T17:04:29Z</time>
      </trkpt>
      <trkpt lat="42.711202" lon="0.537785">
        <ele>2279.2</ele>
        <time>2019-08-22T17:04:45Z</time>
      </trkpt>
      <trkpt lat="42.711238" lon="0.537916">
        <ele>2277.5</ele>
        <time>2019-08-22T17:05:00Z</time>
      </trkpt>
      <trkpt lat="42.711242" lon="0.538018">
        <ele>2276.8</ele>
        <time>2019-08-22T17:05:12Z</time>
      </trkpt>
      <trkpt lat="42.711172" lon="0.538090">
        <ele>2276.3</ele>
        <time>2019-08-22T17:06:12Z</time>
      </trkpt>
      <trkpt lat="42.711128" lon="0.538209">
        <ele>2278.2</ele>
        <time>2019-08-22T17:06:34Z</time>
      </trkpt>
      <trkpt lat="42.711105" lon="0.538323">
        <ele>2278.1</ele>
        <time>2019-08-22T17:06:45Z</time>
      </trkpt>
      <trkpt lat="42.711043" lon="0.538427">
        <ele>2278.2</ele>
        <time>2019-08-22T17:06:58Z</time>
      </trkpt>
      <trkpt lat="42.710995" lon="0.538460">
        <ele>2280.9</ele>
        <time>2019-08-22T17:07:15Z</time>
      </trkpt>
      <trkpt lat="42.711065" lon="0.538547">
        <ele>2282.7</ele>
        <time>2019-08-22T17:07:36Z</time>
      </trkpt>
      <trkpt lat="42.711080" lon="0.538669">
        <ele>2281.9</ele>
        <time>2019-08-22T17:07:45Z</time>
      </trkpt>
      <trkpt lat="42.711121" lon="0.538786">
        <ele>2281.0</ele>
        <time>2019-08-22T17:07:56Z</time>
      </trkpt>
      <trkpt lat="42.711197" lon="0.538846">
        <ele>2280.4</ele>
        <time>2019-08-22T17:08:15Z</time>
      </trkpt>
      <trkpt lat="42.711283" lon="0.538921">
        <ele>2279.7</ele>
        <time>2019-08-22T17:08:24Z</time>
      </trkpt>
      <trkpt lat="42.711331" lon="0.539051">
        <ele>2278.3</ele>
        <time>2019-08-22T17:08:33Z</time>
      </trkpt>
      <trkpt lat="42.711377" lon="0.539169">
        <ele>2278.2</ele>
        <time>2019-08-22T17:08:41Z</time>
      </trkpt>
      <trkpt lat="42.711422" lon="0.539302">
        <ele>2277.6</ele>
        <time>2019-08-22T17:08:49Z</time>
      </trkpt>
      <trkpt lat="42.711436" lon="0.539427">
        <ele>2276.8</ele>
        <time>2019-08-22T17:08:57Z</time>
      </trkpt>
      <trkpt lat="42.711495" lon="0.539523">
        <ele>2276.4</ele>
        <time>2019-08-22T17:09:06Z</time>
      </trkpt>
      <trkpt lat="42.711552" lon="0.539599">
        <ele>2275.6</ele>
        <time>2019-08-22T17:09:17Z</time>
      </trkpt>
      <trkpt lat="42.711594" lon="0.539719">
        <ele>2274.4</ele>
        <time>2019-08-22T17:09:26Z</time>
      </trkpt>
      <trkpt lat="42.711653" lon="0.539824">
        <ele>2272.6</ele>
        <time>2019-08-22T17:09:35Z</time>
      </trkpt>
      <trkpt lat="42.711721" lon="0.539932">
        <ele>2270.7</ele>
        <time>2019-08-22T17:09:45Z</time>
      </trkpt>
      <trkpt lat="42.711776" lon="0.540026">
        <ele>2269.3</ele>
        <time>2019-08-22T17:09:54Z</time>
      </trkpt>
      <trkpt lat="42.711841" lon="0.540108">
        <ele>2269.3</ele>
        <time>2019-08-22T17:10:03Z</time>
      </trkpt>
      <trkpt lat="42.711930" lon="0.540171">
        <ele>2267.9</ele>
        <time>2019-08-22T17:10:13Z</time>
      </trkpt>
      <trkpt lat="42.712008" lon="0.540276">
        <ele>2265.0</ele>
        <time>2019-08-22T17:10:25Z</time>
      </trkpt>
      <trkpt lat="42.712048" lon="0.540371">
        <ele>2263.6</ele>
        <time>2019-08-22T17:10:42Z</time>
      </trkpt>
      <trkpt lat="42.712117" lon="0.540457">
        <ele>2263.8</ele>
        <time>2019-08-22T17:10:52Z</time>
      </trkpt>
      <trkpt lat="42.712209" lon="0.540520">
        <ele>2264.0</ele>
        <time>2019-08-22T17:11:02Z</time>
      </trkpt>
      <trkpt lat="42.712297" lon="0.540596">
        <ele>2264.2</ele>
        <time>2019-08-22T17:11:16Z</time>
      </trkpt>
      <trkpt lat="42.712380" lon="0.540683">
        <ele>2263.9</ele>
        <time>2019-08-22T17:11:28Z</time>
      </trkpt>
      <trkpt lat="42.712459" lon="0.540747">
        <ele>2264.2</ele>
        <time>2019-08-22T17:11:39Z</time>
      </trkpt>
      <trkpt lat="42.712498" lon="0.540831">
        <ele>2265.8</ele>
        <time>2019-08-22T17:11:51Z</time>
      </trkpt>
      <trkpt lat="42.712494" lon="0.540929">
        <ele>2269.6</ele>
        <time>2019-08-22T17:12:08Z</time>
      </trkpt>
      <trkpt lat="42.712436" lon="0.541010">
        <ele>2271.4</ele>
        <time>2019-08-22T17:12:22Z</time>
      </trkpt>
      <trkpt lat="42.712359" lon="0.541041">
        <ele>2273.4</ele>
        <time>2019-08-22T17:12:36Z</time>
      </trkpt>
      <trkpt lat="42.712371" lon="0.541181">
        <ele>2276.0</ele>
        <time>2019-08-22T17:12:52Z</time>
      </trkpt>
      <trkpt lat="42.712396" lon="0.541290">
        <ele>2276.7</ele>
        <time>2019-08-22T17:13:04Z</time>
      </trkpt>
      <trkpt lat="42.712413" lon="0.541414">
        <ele>2277.2</ele>
        <time>2019-08-22T17:13:16Z</time>
      </trkpt>
      <trkpt lat="42.712435" lon="0.541556">
        <ele>2277.7</ele>
        <time>2019-08-22T17:13:28Z</time>
      </trkpt>
      <trkpt lat="42.712445" lon="0.541675">
        <ele>2276.9</ele>
        <time>2019-08-22T17:13:38Z</time>
      </trkpt>
      <trkpt lat="42.712483" lon="0.541796">
        <ele>2277.2</ele>
        <time>2019-08-22T17:13:50Z</time>
      </trkpt>
      <trkpt lat="42.712479" lon="0.541934">
        <ele>2278.0</ele>
        <time>2019-08-22T17:14:01Z</time>
      </trkpt>
      <trkpt lat="42.712517" lon="0.542031">
        <ele>2277.6</ele>
        <time>2019-08-22T17:14:09Z</time>
      </trkpt>
      <trkpt lat="42.712545" lon="0.542107">
        <ele>2276.8</ele>
        <time>2019-08-22T17:14:33Z</time>
      </trkpt>
      <trkpt lat="42.712583" lon="0.542214">
        <ele>2275.4</ele>
        <time>2019-08-22T17:14:46Z</time>
      </trkpt>
      <trkpt lat="42.712610" lon="0.542346">
        <ele>2274.2</ele>
        <time>2019-08-22T17:14:57Z</time>
      </trkpt>
      <trkpt lat="42.712641" lon="0.542479">
        <ele>2274.7</ele>
        <time>2019-08-22T17:15:07Z</time>
      </trkpt>
      <trkpt lat="42.712678" lon="0.542580">
        <ele>2275.6</ele>
        <time>2019-08-22T17:15:16Z</time>
      </trkpt>
      <trkpt lat="42.712754" lon="0.542659">
        <ele>2276.4</ele>
        <time>2019-08-22T17:15:26Z</time>
      </trkpt>
      <trkpt lat="42.712765" lon="0.542774">
        <ele>2276.9</ele>
        <time>2019-08-22T17:15:36Z</time>
      </trkpt>
      <trkpt lat="42.712805" lon="0.542860">
        <ele>2277.8</ele>
        <time>2019-08-22T17:15:47Z</time>
      </trkpt>
      <trkpt lat="42.712822" lon="0.542905">
        <ele>2277.2</ele>
        <time>2019-08-22T17:16:45Z</time>
      </trkpt>
      <trkpt lat="42.712820" lon="0.543031">
        <ele>2277.1</ele>
        <time>2019-08-22T17:16:56Z</time>
      </trkpt>
      <trkpt lat="42.712869" lon="0.543172">
        <ele>2277.8</ele>
        <time>2019-08-22T17:17:09Z</time>
      </trkpt>
      <trkpt lat="42.712894" lon="0.543229">
        <ele>2277.7</ele>
        <time>2019-08-22T17:17:27Z</time>
      </trkpt>
      <trkpt lat="42.712953" lon="0.543336">
        <ele>2276.3</ele>
        <time>2019-08-22T17:17:38Z</time>
      </trkpt>
      <trkpt lat="42.713021" lon="0.543430">
        <ele>2274.4</ele>
        <time>2019-08-22T17:17:47Z</time>
      </trkpt>
      <trkpt lat="42.713059" lon="0.543562">
        <ele>2273.4</ele>
        <time>2019-08-22T17:17:56Z</time>
      </trkpt>
      <trkpt lat="42.713120" lon="0.543681">
        <ele>2273.2</ele>
        <time>2019-08-22T17:18:06Z</time>
      </trkpt>
      <trkpt lat="42.713143" lon="0.543809">
        <ele>2274.8</ele>
        <time>2019-08-22T17:18:19Z</time>
      </trkpt>
      <trkpt lat="42.713180" lon="0.543931">
        <ele>2274.8</ele>
        <time>2019-08-22T17:18:28Z</time>
      </trkpt>
      <trkpt lat="42.713241" lon="0.544049">
        <ele>2275.9</ele>
        <time>2019-08-22T17:18:43Z</time>
      </trkpt>
      <trkpt lat="42.713296" lon="0.544161">
        <ele>2278.2</ele>
        <time>2019-08-22T17:18:59Z</time>
      </trkpt>
      <trkpt lat="42.713353" lon="0.544273">
        <ele>2279.2</ele>
        <time>2019-08-22T17:19:35Z</time>
      </trkpt>
      <trkpt lat="42.713382" lon="0.544392">
        <ele>2278.7</ele>
        <time>2019-08-22T17:19:47Z</time>
      </trkpt>
      <trkpt lat="42.713452" lon="0.544467">
        <ele>2277.6</ele>
        <time>2019-08-22T17:19:59Z</time>
      </trkpt>
      <trkpt lat="42.713536" lon="0.544558">
        <ele>2276.9</ele>
        <time>2019-08-22T17:20:09Z</time>
      </trkpt>
      <trkpt lat="42.713596" lon="0.544658">
        <ele>2276.5</ele>
        <time>2019-08-22T17:20:19Z</time>
      </trkpt>
      <trkpt lat="42.713655" lon="0.544768">
        <ele>2275.7</ele>
        <time>2019-08-22T17:20:28Z</time>
      </trkpt>
      <trkpt lat="42.713725" lon="0.544849">
        <ele>2274.5</ele>
        <time>2019-08-22T17:20:47Z</time>
      </trkpt>
      <trkpt lat="42.713761" lon="0.544954">
        <ele>2274.1</ele>
        <time>2019-08-22T17:20:58Z</time>
      </trkpt>
      <trkpt lat="42.713813" lon="0.545074">
        <ele>2275.1</ele>
        <time>2019-08-22T17:21:09Z</time>
      </trkpt>
      <trkpt lat="42.713855" lon="0.545205">
        <ele>2275.6</ele>
        <time>2019-08-22T17:21:21Z</time>
      </trkpt>
      <trkpt lat="42.713938" lon="0.545321">
        <ele>2276.1</ele>
        <time>2019-08-22T17:21:34Z</time>
      </trkpt>
      <trkpt lat="42.714008" lon="0.545404">
        <ele>2277.6</ele>
        <time>2019-08-22T17:21:46Z</time>
      </trkpt>
      <trkpt lat="42.714080" lon="0.545448">
        <ele>2278.5</ele>
        <time>2019-08-22T17:22:04Z</time>
      </trkpt>
      <trkpt lat="42.714137" lon="0.545562">
        <ele>2277.7</ele>
        <time>2019-08-22T17:22:15Z</time>
      </trkpt>
      <trkpt lat="42.714196" lon="0.545680">
        <ele>2275.8</ele>
        <time>2019-08-22T17:22:29Z</time>
      </trkpt>
      <trkpt lat="42.714251" lon="0.545804">
        <ele>2274.8</ele>
        <time>2019-08-22T17:22:49Z</time>
      </trkpt>
      <trkpt lat="42.714315" lon="0.545880">
        <ele>2273.0</ele>
        <time>2019-08-22T17:23:19Z</time>
      </trkpt>
      <trkpt lat="42.714418" lon="0.545899">
        <ele>2273.3</ele>
        <time>2019-08-22T17:23:37Z</time>
      </trkpt>
      <trkpt lat="42.714510" lon="0.545945">
        <ele>2275.0</ele>
        <time>2019-08-22T17:23:54Z</time>
      </trkpt>
      <trkpt lat="42.714589" lon="0.545980">
        <ele>2276.0</ele>
        <time>2019-08-22T17:24:18Z</time>
      </trkpt>
      <trkpt lat="42.714682" lon="0.545944">
        <ele>2274.9</ele>
        <time>2019-08-22T17:24:29Z</time>
      </trkpt>
      <trkpt lat="42.714781" lon="0.545924">
        <ele>2274.0</ele>
        <time>2019-08-22T17:24:39Z</time>
      </trkpt>
      <trkpt lat="42.714876" lon="0.545926">
        <ele>2272.9</ele>
        <time>2019-08-22T17:24:50Z</time>
      </trkpt>
      <trkpt lat="42.714935" lon="0.545962">
        <ele>2272.3</ele>
        <time>2019-08-22T17:25:14Z</time>
      </trkpt>
      <trkpt lat="42.714966" lon="0.545959">
        <ele>2272.5</ele>
        <time>2019-08-22T17:26:00Z</time>
      </trkpt>
      <trkpt lat="42.714997" lon="0.546051">
        <ele>2275.3</ele>
        <time>2019-08-22T17:26:24Z</time>
      </trkpt>
      <trkpt lat="42.715035" lon="0.546142">
        <ele>2279.0</ele>
        <time>2019-08-22T17:27:04Z</time>
      </trkpt>
      <trkpt lat="42.715019" lon="0.546236">
        <ele>2283.6</ele>
        <time>2019-08-22T17:27:39Z</time>
      </trkpt>
      <trkpt lat="42.715063" lon="0.546336">
        <ele>2287.5</ele>
        <time>2019-08-22T17:28:08Z</time>
      </trkpt>
      <trkpt lat="42.715038" lon="0.546439">
        <ele>2291.2</ele>
        <time>2019-08-22T17:28:33Z</time>
      </trkpt>
      <trkpt lat="42.715093" lon="0.546508">
        <ele>2295.6</ele>
        <time>2019-08-22T17:29:11Z</time>
      </trkpt>
      <trkpt lat="42.715088" lon="0.546592">
        <ele>2298.8</ele>
        <time>2019-08-22T17:29:52Z</time>
      </trkpt>
      <trkpt lat="42.715074" lon="0.546695">
        <ele>2302.7</ele>
        <time>2019-08-22T17:30:21Z</time>
      </trkpt>
      <trkpt lat="42.715115" lon="0.546803">
        <ele>2306.3</ele>
        <time>2019-08-22T17:30:50Z</time>
      </trkpt>
      <trkpt lat="42.715082" lon="0.546887">
        <ele>2311.7</ele>
        <time>2019-08-22T17:31:30Z</time>
      </trkpt>
      <trkpt lat="42.715091" lon="0.546981">
        <ele>2315.6</ele>
        <time>2019-08-22T17:32:00Z</time>
      </trkpt>
      <trkpt lat="42.715122" lon="0.547070">
        <ele>2320.4</ele>
        <time>2019-08-22T17:32:32Z</time>
      </trkpt>
      <trkpt lat="42.715111" lon="0.547129">
        <ele>2325.4</ele>
        <time>2019-08-22T17:33:19Z</time>
      </trkpt>
      <trkpt lat="42.715127" lon="0.547221">
        <ele>2329.0</ele>
        <time>2019-08-22T17:33:52Z</time>
      </trkpt>
      <trkpt lat="42.715149" lon="0.547314">
        <ele>2334.6</ele>
        <time>2019-08-22T17:34:38Z</time>
      </trkpt>
      <trkpt lat="42.715189" lon="0.547399">
        <ele>2339.1</ele>
        <time>2019-08-22T17:35:17Z</time>
      </trkpt>
      <trkpt lat="42.715215" lon="0.547489">
        <ele>2343.3</ele>
        <time>2019-08-22T17:35:52Z</time>
      </trkpt>
      <trkpt lat="42.715212" lon="0.547590">
        <ele>2347.5</ele>
        <time>2019-08-22T17:36:27Z</time>
      </trkpt>
      <trkpt lat="42.715223" lon="0.547642">
        <ele>2348.6</ele>
        <time>2019-08-22T17:36:53Z</time>
      </trkpt>
      <trkpt lat="42.715161" lon="0.547695">
        <ele>2353.6</ele>
        <time>2019-08-22T17:37:25Z</time>
      </trkpt>
      <trkpt lat="42.715178" lon="0.547828">
        <ele>2360.4</ele>
        <time>2019-08-22T17:38:18Z</time>
      </trkpt>
      <trkpt lat="42.715200" lon="0.547940">
        <ele>2367.7</ele>
        <time>2019-08-22T17:39:08Z</time>
      </trkpt>
      <trkpt lat="42.715181" lon="0.548026">
        <ele>2372.4</ele>
        <time>2019-08-22T17:39:58Z</time>
      </trkpt>
      <trkpt lat="42.715192" lon="0.548133">
        <ele>2379.7</ele>
        <time>2019-08-22T17:40:57Z</time>
      </trkpt>
      <trkpt lat="42.715248" lon="0.548207">
        <ele>2386.3</ele>
        <time>2019-08-22T17:41:50Z</time>
      </trkpt>
      <trkpt lat="42.715214" lon="0.548248">
        <ele>2388.9</ele>
        <time>2019-08-22T17:42:25Z</time>
      </trkpt>
      <trkpt lat="42.715177" lon="0.548323">
        <ele>2391.4</ele>
        <time>2019-08-22T17:42:39Z</time>
      </trkpt>
      <trkpt lat="42.715129" lon="0.548444">
        <ele>2394.6</ele>
        <time>2019-08-22T17:42:56Z</time>
      </trkpt>
      <trkpt lat="42.715085" lon="0.548550">
        <ele>2398.2</ele>
        <time>2019-08-22T17:43:19Z</time>
      </trkpt>
      <trkpt lat="42.715034" lon="0.548569">
        <ele>2399.6</ele>
        <time>2019-08-22T17:43:33Z</time>
      </trkpt>
      <trkpt lat="42.714998" lon="0.548621">
        <ele>2373.4</ele>
        <time>2019-08-22T17:43:48Z</time>
      </trkpt>
      <trkpt lat="42.714910" lon="0.549058">
        <ele>2417.0</ele>
        <time>2019-08-22T18:11:05Z</time>
      </trkpt>
      <trkpt lat="42.714720" lon="0.548977">
        <ele>2438.6</ele>
        <time>2019-08-23T04:39:22Z</time>
      </trkpt>
      <trkpt lat="42.714632" lon="0.548958">
        <ele>2439.8</ele>
        <time>2019-08-23T04:39:35Z</time>
      </trkpt>
      <trkpt lat="42.714525" lon="0.549004">
        <ele>2441.0</ele>
        <time>2019-08-23T04:39:45Z</time>
      </trkpt>
      <trkpt lat="42.714432" lon="0.549054">
        <ele>2441.7</ele>
        <time>2019-08-23T04:39:53Z</time>
      </trkpt>
      <trkpt lat="42.714323" lon="0.549028">
        <ele>2445.8</ele>
        <time>2019-08-23T04:40:15Z</time>
      </trkpt>
      <trkpt lat="42.714165" lon="0.549019">
        <ele>2450.8</ele>
        <time>2019-08-23T04:40:46Z</time>
      </trkpt>
      <trkpt lat="42.714108" lon="0.548986">
        <ele>2455.2</ele>
        <time>2019-08-23T04:41:19Z</time>
      </trkpt>
      <trkpt lat="42.714010" lon="0.548903">
        <ele>2456.1</ele>
        <time>2019-08-23T04:41:35Z</time>
      </trkpt>
      <trkpt lat="42.713933" lon="0.548750">
        <ele>2463.4</ele>
        <time>2019-08-23T04:42:22Z</time>
      </trkpt>
      <trkpt lat="42.713824" lon="0.548665">
        <ele>2468.9</ele>
        <time>2019-08-23T04:42:57Z</time>
      </trkpt>
      <trkpt lat="42.713738" lon="0.548575">
        <ele>2472.4</ele>
        <time>2019-08-23T04:44:35Z</time>
      </trkpt>
      <trkpt lat="42.713726" lon="0.548560">
        <ele>2476.9</ele>
        <time>2019-08-23T04:45:08Z</time>
      </trkpt>
      <trkpt lat="42.713672" lon="0.548558">
        <ele>2479.1</ele>
        <time>2019-08-23T04:45:42Z</time>
      </trkpt>
      <trkpt lat="42.713599" lon="0.548516">
        <ele>2484.3</ele>
        <time>2019-08-23T04:46:06Z</time>
      </trkpt>
      <trkpt lat="42.713512" lon="0.548461">
        <ele>2487.7</ele>
        <time>2019-08-23T04:46:31Z</time>
      </trkpt>
      <trkpt lat="42.713439" lon="0.548405">
        <ele>2492.6</ele>
        <time>2019-08-23T04:47:00Z</time>
      </trkpt>
      <trkpt lat="42.713403" lon="0.548470">
        <ele>2495.2</ele>
        <time>2019-08-23T04:47:22Z</time>
      </trkpt>
      <trkpt lat="42.713309" lon="0.548554">
        <ele>2498.1</ele>
        <time>2019-08-23T04:47:43Z</time>
      </trkpt>
      <trkpt lat="42.713254" lon="0.548591">
        <ele>2500.5</ele>
        <time>2019-08-23T04:48:17Z</time>
      </trkpt>
      <trkpt lat="42.713153" lon="0.548652">
        <ele>2501.9</ele>
        <time>2019-08-23T04:48:39Z</time>
      </trkpt>
      <trkpt lat="42.713083" lon="0.548721">
        <ele>2505.4</ele>
        <time>2019-08-23T04:48:56Z</time>
      </trkpt>
      <trkpt lat="42.712990" lon="0.548741">
        <ele>2508.4</ele>
        <time>2019-08-23T04:49:20Z</time>
      </trkpt>
      <trkpt lat="42.712952" lon="0.548810">
        <ele>2511.9</ele>
        <time>2019-08-23T04:49:42Z</time>
      </trkpt>
      <trkpt lat="42.712881" lon="0.548806">
        <ele>2513.4</ele>
        <time>2019-08-23T04:50:27Z</time>
      </trkpt>
      <trkpt lat="42.712811" lon="0.548834">
        <ele>2517.4</ele>
        <time>2019-08-23T04:50:50Z</time>
      </trkpt>
      <trkpt lat="42.712739" lon="0.548825">
        <ele>2519.9</ele>
        <time>2019-08-23T04:51:11Z</time>
      </trkpt>
      <trkpt lat="42.712656" lon="0.548865">
        <ele>2525.0</ele>
        <time>2019-08-23T04:51:41Z</time>
      </trkpt>
      <trkpt lat="42.712570" lon="0.548844">
        <ele>2528.2</ele>
        <time>2019-08-23T04:52:03Z</time>
      </trkpt>
      <trkpt lat="42.712509" lon="0.548852">
        <ele>2529.5</ele>
        <time>2019-08-23T04:52:30Z</time>
      </trkpt>
      <trkpt lat="42.712438" lon="0.548947">
        <ele>2533.3</ele>
        <time>2019-08-23T04:52:55Z</time>
      </trkpt>
      <trkpt lat="42.712366" lon="0.549017">
        <ele>2536.2</ele>
        <time>2019-08-23T04:53:16Z</time>
      </trkpt>
      <trkpt lat="42.712333" lon="0.549046">
        <ele>2539.2</ele>
        <time>2019-08-23T04:54:01Z</time>
      </trkpt>
      <trkpt lat="42.712295" lon="0.548967">
        <ele>2542.0</ele>
        <time>2019-08-23T04:54:27Z</time>
      </trkpt>
      <trkpt lat="42.712216" lon="0.548967">
        <ele>2545.7</ele>
        <time>2019-08-23T04:54:52Z</time>
      </trkpt>
      <trkpt lat="42.712134" lon="0.548990">
        <ele>2549.8</ele>
        <time>2019-08-23T04:55:18Z</time>
      </trkpt>
      <trkpt lat="42.712047" lon="0.549032">
        <ele>2553.8</ele>
        <time>2019-08-23T04:55:46Z</time>
      </trkpt>
      <trkpt lat="42.711965" lon="0.549062">
        <ele>2556.6</ele>
        <time>2019-08-23T04:56:04Z</time>
      </trkpt>
      <trkpt lat="42.711909" lon="0.549129">
        <ele>2558.8</ele>
        <time>2019-08-23T04:56:56Z</time>
      </trkpt>
      <trkpt lat="42.711851" lon="0.549196">
        <ele>2559.7</ele>
        <time>2019-08-23T04:57:17Z</time>
      </trkpt>
      <trkpt lat="42.711746" lon="0.549241">
        <ele>2563.6</ele>
        <time>2019-08-23T04:57:42Z</time>
      </trkpt>
      <trkpt lat="42.711669" lon="0.549307">
        <ele>2565.2</ele>
        <time>2019-08-23T04:58:01Z</time>
      </trkpt>
      <trkpt lat="42.711591" lon="0.549378">
        <ele>2565.2</ele>
        <time>2019-08-23T04:58:14Z</time>
      </trkpt>
      <trkpt lat="42.711485" lon="0.549416">
        <ele>2566.9</ele>
        <time>2019-08-23T04:58:25Z</time>
      </trkpt>
      <trkpt lat="42.711394" lon="0.549481">
        <ele>2569.7</ele>
        <time>2019-08-23T04:58:41Z</time>
      </trkpt>
      <trkpt lat="42.711326" lon="0.549552">
        <ele>2573.0</ele>
        <time>2019-08-23T04:59:02Z</time>
      </trkpt>
      <trkpt lat="42.711309" lon="0.549530">
        <ele>2572.8</ele>
        <time>2019-08-23T04:59:34Z</time>
      </trkpt>
      <trkpt lat="42.711284" lon="0.549525">
        <ele>2572.5</ele>
        <time>2019-08-23T04:59:55Z</time>
      </trkpt>
      <trkpt lat="42.711297" lon="0.549523">
        <ele>2573.2</ele>
        <time>2019-08-23T05:02:29Z</time>
      </trkpt>
      <trkpt lat="42.711316" lon="0.549428">
        <ele>2571.3</ele>
        <time>2019-08-23T05:02:57Z</time>
      </trkpt>
      <trkpt lat="42.711373" lon="0.549342">
        <ele>2565.6</ele>
        <time>2019-08-23T05:03:23Z</time>
      </trkpt>
      <trkpt lat="42.711417" lon="0.549243">
        <ele>2562.7</ele>
        <time>2019-08-23T05:03:41Z</time>
      </trkpt>
      <trkpt lat="42.711369" lon="0.549182">
        <ele>2558.4</ele>
        <time>2019-08-23T05:03:59Z</time>
      </trkpt>
      <trkpt lat="42.711434" lon="0.549126">
        <ele>2552.9</ele>
        <time>2019-08-23T05:04:33Z</time>
      </trkpt>
      <trkpt lat="42.711419" lon="0.549016">
        <ele>2550.0</ele>
        <time>2019-08-23T05:05:00Z</time>
      </trkpt>
      <trkpt lat="42.711501" lon="0.548919">
        <ele>2547.3</ele>
        <time>2019-08-23T05:05:42Z</time>
      </trkpt>
      <trkpt lat="42.711444" lon="0.548802">
        <ele>2543.9</ele>
        <time>2019-08-23T05:05:58Z</time>
      </trkpt>
      <trkpt lat="42.711384" lon="0.548789">
        <ele>2539.8</ele>
        <time>2019-08-23T05:06:16Z</time>
      </trkpt>
      <trkpt lat="42.711345" lon="0.548868">
        <ele>2538.8</ele>
        <time>2019-08-23T05:06:56Z</time>
      </trkpt>
      <trkpt lat="42.711258" lon="0.548843">
        <ele>2537.8</ele>
        <time>2019-08-23T05:07:05Z</time>
      </trkpt>
      <trkpt lat="42.711156" lon="0.548824">
        <ele>2537.3</ele>
        <time>2019-08-23T05:07:16Z</time>
      </trkpt>
      <trkpt lat="42.711071" lon="0.548778">
        <ele>2537.0</ele>
        <time>2019-08-23T05:07:26Z</time>
      </trkpt>
      <trkpt lat="42.710992" lon="0.548736">
        <ele>2534.9</ele>
        <time>2019-08-23T05:07:44Z</time>
      </trkpt>
      <trkpt lat="42.710908" lon="0.548697">
        <ele>2532.8</ele>
        <time>2019-08-23T05:08:08Z</time>
      </trkpt>
      <trkpt lat="42.710807" lon="0.548732">
        <ele>2533.5</ele>
        <time>2019-08-23T05:08:21Z</time>
      </trkpt>
      <trkpt lat="42.710714" lon="0.548691">
        <ele>2532.3</ele>
        <time>2019-08-23T05:08:34Z</time>
      </trkpt>
      <trkpt lat="42.710626" lon="0.548652">
        <ele>2532.9</ele>
        <time>2019-08-23T05:08:51Z</time>
      </trkpt>
      <trkpt lat="42.710556" lon="0.548571">
        <ele>2532.3</ele>
        <time>2019-08-23T05:09:05Z</time>
      </trkpt>
      <trkpt lat="42.710485" lon="0.548507">
        <ele>2533.0</ele>
        <time>2019-08-23T05:09:18Z</time>
      </trkpt>
      <trkpt lat="42.710422" lon="0.548446">
        <ele>2532.9</ele>
        <time>2019-08-23T05:09:35Z</time>
      </trkpt>
      <trkpt lat="42.710352" lon="0.548440">
        <ele>2532.3</ele>
        <time>2019-08-23T05:10:03Z</time>
      </trkpt>
      <trkpt lat="42.710324" lon="0.548359">
        <ele>2529.1</ele>
        <time>2019-08-23T05:10:19Z</time>
      </trkpt>
      <trkpt lat="42.710244" lon="0.548315">
        <ele>2530.1</ele>
        <time>2019-08-23T05:10:34Z</time>
      </trkpt>
      <trkpt lat="42.710236" lon="0.548270">
        <ele>2532.7</ele>
        <time>2019-08-23T05:11:02Z</time>
      </trkpt>
      <trkpt lat="42.710212" lon="0.548288">
        <ele>2535.9</ele>
        <time>2019-08-23T05:11:29Z</time>
      </trkpt>
      <trkpt lat="42.710168" lon="0.548389">
        <ele>2539.5</ele>
        <time>2019-08-23T05:12:01Z</time>
      </trkpt>
      <trkpt lat="42.710079" lon="0.548322">
        <ele>2543.2</ele>
        <time>2019-08-23T05:12:22Z</time>
      </trkpt>
      <trkpt lat="42.710001" lon="0.548285">
        <ele>2548.3</ele>
        <time>2019-08-23T05:12:41Z</time>
      </trkpt>
      <trkpt lat="42.709913" lon="0.548262">
        <ele>2550.4</ele>
        <time>2019-08-23T05:12:57Z</time>
      </trkpt>
      <trkpt lat="42.709811" lon="0.548252">
        <ele>2551.4</ele>
        <time>2019-08-23T05:13:17Z</time>
      </trkpt>
      <trkpt lat="42.709710" lon="0.548179">
        <ele>2550.5</ele>
        <time>2019-08-23T05:13:31Z</time>
      </trkpt>
      <trkpt lat="42.709652" lon="0.548099">
        <ele>2554.3</ele>
        <time>2019-08-23T05:13:53Z</time>
      </trkpt>
      <trkpt lat="42.709570" lon="0.548063">
        <ele>2556.8</ele>
        <time>2019-08-23T05:14:23Z</time>
      </trkpt>
      <trkpt lat="42.709514" lon="0.547980">
        <ele>2555.9</ele>
        <time>2019-08-23T05:14:41Z</time>
      </trkpt>
      <trkpt lat="42.709454" lon="0.547879">
        <ele>2553.0</ele>
        <time>2019-08-23T05:15:01Z</time>
      </trkpt>
      <trkpt lat="42.709361" lon="0.547808">
        <ele>2553.8</ele>
        <time>2019-08-23T05:15:17Z</time>
      </trkpt>
      <trkpt lat="42.709269" lon="0.547704">
        <ele>2556.6</ele>
        <time>2019-08-23T05:15:32Z</time>
      </trkpt>
      <trkpt lat="42.709213" lon="0.547643">
        <ele>2557.5</ele>
        <time>2019-08-23T05:15:57Z</time>
      </trkpt>
      <trkpt lat="42.709129" lon="0.547594">
        <ele>2557.3</ele>
        <time>2019-08-23T05:16:11Z</time>
      </trkpt>
      <trkpt lat="42.709074" lon="0.547479">
        <ele>2556.0</ele>
        <time>2019-08-23T05:16:25Z</time>
      </trkpt>
      <trkpt lat="42.709027" lon="0.547395">
        <ele>2556.0</ele>
        <time>2019-08-23T05:16:38Z</time>
      </trkpt>
      <trkpt lat="42.708993" lon="0.547290">
        <ele>2556.9</ele>
        <time>2019-08-23T05:16:59Z</time>
      </trkpt>
      <trkpt lat="42.708909" lon="0.547230">
        <ele>2557.6</ele>
        <time>2019-08-23T05:17:21Z</time>
      </trkpt>
      <trkpt lat="42.708825" lon="0.547205">
        <ele>2562.6</ele>
        <time>2019-08-23T05:17:49Z</time>
      </trkpt>
      <trkpt lat="42.708729" lon="0.547149">
        <ele>2565.6</ele>
        <time>2019-08-23T05:18:08Z</time>
      </trkpt>
      <trkpt lat="42.708652" lon="0.547099">
        <ele>2566.6</ele>
        <time>2019-08-23T05:18:29Z</time>
      </trkpt>
      <trkpt lat="42.708569" lon="0.547059">
        <ele>2567.2</ele>
        <time>2019-08-23T05:18:58Z</time>
      </trkpt>
      <trkpt lat="42.708489" lon="0.547013">
        <ele>2566.9</ele>
        <time>2019-08-23T05:19:17Z</time>
      </trkpt>
      <trkpt lat="42.708401" lon="0.546978">
        <ele>2567.6</ele>
        <time>2019-08-23T05:19:39Z</time>
      </trkpt>
      <trkpt lat="42.708355" lon="0.546882">
        <ele>2568.4</ele>
        <time>2019-08-23T05:19:56Z</time>
      </trkpt>
      <trkpt lat="42.708314" lon="0.546769">
        <ele>2568.1</ele>
        <time>2019-08-23T05:20:09Z</time>
      </trkpt>
      <trkpt lat="42.708232" lon="0.546709">
        <ele>2570.8</ele>
        <time>2019-08-23T05:20:28Z</time>
      </trkpt>
      <trkpt lat="42.708164" lon="0.546654">
        <ele>2573.1</ele>
        <time>2019-08-23T05:20:47Z</time>
      </trkpt>
      <trkpt lat="42.708089" lon="0.546617">
        <ele>2575.4</ele>
        <time>2019-08-23T05:21:05Z</time>
      </trkpt>
      <trkpt lat="42.708021" lon="0.546642">
        <ele>2580.0</ele>
        <time>2019-08-23T05:21:35Z</time>
      </trkpt>
      <trkpt lat="42.707961" lon="0.546579">
        <ele>2584.6</ele>
        <time>2019-08-23T05:22:02Z</time>
      </trkpt>
      <trkpt lat="42.707872" lon="0.546545">
        <ele>2586.7</ele>
        <time>2019-08-23T05:22:20Z</time>
      </trkpt>
      <trkpt lat="42.707836" lon="0.546446">
        <ele>2589.3</ele>
        <time>2019-08-23T05:22:39Z</time>
      </trkpt>
      <trkpt lat="42.707753" lon="0.546444">
        <ele>2591.9</ele>
        <time>2019-08-23T05:23:02Z</time>
      </trkpt>
      <trkpt lat="42.707679" lon="0.546390">
        <ele>2594.0</ele>
        <time>2019-08-23T05:23:21Z</time>
      </trkpt>
      <trkpt lat="42.707617" lon="0.546307">
        <ele>2596.1</ele>
        <time>2019-08-23T05:23:38Z</time>
      </trkpt>
      <trkpt lat="42.707507" lon="0.546268">
        <ele>2598.2</ele>
        <time>2019-08-23T05:23:56Z</time>
      </trkpt>
      <trkpt lat="42.707429" lon="0.546173">
        <ele>2600.5</ele>
        <time>2019-08-23T05:24:11Z</time>
      </trkpt>
      <trkpt lat="42.707367" lon="0.546090">
        <ele>2603.1</ele>
        <time>2019-08-23T05:24:27Z</time>
      </trkpt>
      <trkpt lat="42.707281" lon="0.546050">
        <ele>2605.5</ele>
        <time>2019-08-23T05:24:45Z</time>
      </trkpt>
      <trkpt lat="42.707217" lon="0.545977">
        <ele>2608.9</ele>
        <time>2019-08-23T05:25:06Z</time>
      </trkpt>
      <trkpt lat="42.707155" lon="0.545900">
        <ele>2612.2</ele>
        <time>2019-08-23T05:25:28Z</time>
      </trkpt>
      <trkpt lat="42.707134" lon="0.545832">
        <ele>2614.2</ele>
        <time>2019-08-23T05:26:09Z</time>
      </trkpt>
      <trkpt lat="42.707087" lon="0.545744">
        <ele>2616.7</ele>
        <time>2019-08-23T05:26:34Z</time>
      </trkpt>
      <trkpt lat="42.707000" lon="0.545644">
        <ele>2618.4</ele>
        <time>2019-08-23T05:26:49Z</time>
      </trkpt>
      <trkpt lat="42.707002" lon="0.545500">
        <ele>2619.8</ele>
        <time>2019-08-23T05:27:03Z</time>
      </trkpt>
      <trkpt lat="42.707007" lon="0.545373">
        <ele>2621.8</ele>
        <time>2019-08-23T05:27:15Z</time>
      </trkpt>
      <trkpt lat="42.707023" lon="0.545245">
        <ele>2623.9</ele>
        <time>2019-08-23T05:27:27Z</time>
      </trkpt>
      <trkpt lat="42.707023" lon="0.545133">
        <ele>2627.8</ele>
        <time>2019-08-23T05:27:46Z</time>
      </trkpt>
      <trkpt lat="42.706978" lon="0.545063">
        <ele>2631.9</ele>
        <time>2019-08-23T05:28:06Z</time>
      </trkpt>
      <trkpt lat="42.706920" lon="0.544989">
        <ele>2635.9</ele>
        <time>2019-08-23T05:28:26Z</time>
      </trkpt>
      <trkpt lat="42.706845" lon="0.544984">
        <ele>2639.6</ele>
        <time>2019-08-23T05:28:44Z</time>
      </trkpt>
      <trkpt lat="42.706759" lon="0.544975">
        <ele>2640.9</ele>
        <time>2019-08-23T05:28:58Z</time>
      </trkpt>
      <trkpt lat="42.706685" lon="0.544986">
        <ele>2642.3</ele>
        <time>2019-08-23T05:29:15Z</time>
      </trkpt>
      <trkpt lat="42.706584" lon="0.545009">
        <ele>2644.4</ele>
        <time>2019-08-23T05:29:30Z</time>
      </trkpt>
      <trkpt lat="42.706485" lon="0.545040">
        <ele>2646.4</ele>
        <time>2019-08-23T05:29:43Z</time>
      </trkpt>
      <trkpt lat="42.706400" lon="0.544975">
        <ele>2651.9</ele>
        <time>2019-08-23T05:31:00Z</time>
      </trkpt>
      <trkpt lat="42.706411" lon="0.544882">
        <ele>2647.2</ele>
        <time>2019-08-23T05:31:22Z</time>
      </trkpt>
      <trkpt lat="42.706307" lon="0.544872">
        <ele>2645.1</ele>
        <time>2019-08-23T05:31:42Z</time>
      </trkpt>
      <trkpt lat="42.706222" lon="0.544833">
        <ele>2645.1</ele>
        <time>2019-08-23T05:31:54Z</time>
      </trkpt>
      <trkpt lat="42.706152" lon="0.544841">
        <ele>2645.6</ele>
        <time>2019-08-23T05:32:16Z</time>
      </trkpt>
      <trkpt lat="42.706072" lon="0.544781">
        <ele>2644.6</ele>
        <time>2019-08-23T05:32:35Z</time>
      </trkpt>
      <trkpt lat="42.705989" lon="0.544722">
        <ele>2644.3</ele>
        <time>2019-08-23T05:32:55Z</time>
      </trkpt>
      <trkpt lat="42.705908" lon="0.544676">
        <ele>2642.6</ele>
        <time>2019-08-23T05:33:29Z</time>
      </trkpt>
      <trkpt lat="42.705817" lon="0.544592">
        <ele>2640.9</ele>
        <time>2019-08-23T05:33:47Z</time>
      </trkpt>
      <trkpt lat="42.705708" lon="0.544603">
        <ele>2640.1</ele>
        <time>2019-08-23T05:34:03Z</time>
      </trkpt>
      <trkpt lat="42.705621" lon="0.544580">
        <ele>2640.6</ele>
        <time>2019-08-23T05:34:19Z</time>
      </trkpt>
      <trkpt lat="42.705568" lon="0.544485">
        <ele>2639.5</ele>
        <time>2019-08-23T05:34:46Z</time>
      </trkpt>
      <trkpt lat="42.705532" lon="0.544441">
        <ele>2638.2</ele>
        <time>2019-08-23T05:35:27Z</time>
      </trkpt>
      <trkpt lat="42.705434" lon="0.544367">
        <ele>2639.3</ele>
        <time>2019-08-23T05:35:42Z</time>
      </trkpt>
      <trkpt lat="42.705378" lon="0.544284">
        <ele>2641.4</ele>
        <time>2019-08-23T05:35:58Z</time>
      </trkpt>
      <trkpt lat="42.705277" lon="0.544204">
        <ele>2642.9</ele>
        <time>2019-08-23T05:36:13Z</time>
      </trkpt>
      <trkpt lat="42.705248" lon="0.544046">
        <ele>2643.9</ele>
        <time>2019-08-23T05:36:42Z</time>
      </trkpt>
      <trkpt lat="42.705229" lon="0.543909">
        <ele>2643.2</ele>
        <time>2019-08-23T05:36:51Z</time>
      </trkpt>
      <trkpt lat="42.705215" lon="0.543763">
        <ele>2643.4</ele>
        <time>2019-08-23T05:37:03Z</time>
      </trkpt>
      <trkpt lat="42.705165" lon="0.543642">
        <ele>2645.2</ele>
        <time>2019-08-23T05:37:14Z</time>
      </trkpt>
      <trkpt lat="42.705112" lon="0.543529">
        <ele>2648.9</ele>
        <time>2019-08-23T05:37:31Z</time>
      </trkpt>
      <trkpt lat="42.705091" lon="0.543407">
        <ele>2651.3</ele>
        <time>2019-08-23T05:37:45Z</time>
      </trkpt>
      <trkpt lat="42.705051" lon="0.543309">
        <ele>2654.4</ele>
        <time>2019-08-23T05:38:14Z</time>
      </trkpt>
      <trkpt lat="42.704985" lon="0.543240">
        <ele>2658.2</ele>
        <time>2019-08-23T05:38:35Z</time>
      </trkpt>
      <trkpt lat="42.704913" lon="0.543172">
        <ele>2662.5</ele>
        <time>2019-08-23T05:38:58Z</time>
      </trkpt>
      <trkpt lat="42.704853" lon="0.543130">
        <ele>2667.5</ele>
        <time>2019-08-23T05:39:28Z</time>
      </trkpt>
      <trkpt lat="42.704816" lon="0.543030">
        <ele>2671.1</ele>
        <time>2019-08-23T05:39:53Z</time>
      </trkpt>
      <trkpt lat="42.704729" lon="0.542982">
        <ele>2673.9</ele>
        <time>2019-08-23T05:40:08Z</time>
      </trkpt>
      <trkpt lat="42.704655" lon="0.542908">
        <ele>2677.4</ele>
        <time>2019-08-23T05:40:33Z</time>
      </trkpt>
      <trkpt lat="42.704588" lon="0.542919">
        <ele>2680.3</ele>
        <time>2019-08-23T05:40:53Z</time>
      </trkpt>
      <trkpt lat="42.704523" lon="0.542855">
        <ele>2684.8</ele>
        <time>2019-08-23T05:41:18Z</time>
      </trkpt>
      <trkpt lat="42.704512" lon="0.542760">
        <ele>2688.6</ele>
        <time>2019-08-23T05:41:40Z</time>
      </trkpt>
      <trkpt lat="42.704510" lon="0.542649">
        <ele>2690.4</ele>
        <time>2019-08-23T05:41:57Z</time>
      </trkpt>
      <trkpt lat="42.704517" lon="0.542539">
        <ele>2692.9</ele>
        <time>2019-08-23T05:42:15Z</time>
      </trkpt>
      <trkpt lat="42.704495" lon="0.542423">
        <ele>2695.1</ele>
        <time>2019-08-23T05:42:32Z</time>
      </trkpt>
      <trkpt lat="42.704388" lon="0.542323">
        <ele>2697.7</ele>
        <time>2019-08-23T05:42:46Z</time>
      </trkpt>
      <trkpt lat="42.704310" lon="0.542249">
        <ele>2699.3</ele>
        <time>2019-08-23T05:42:58Z</time>
      </trkpt>
      <trkpt lat="42.704272" lon="0.542138">
        <ele>2701.2</ele>
        <time>2019-08-23T05:43:09Z</time>
      </trkpt>
      <trkpt lat="42.704199" lon="0.542078">
        <ele>2703.6</ele>
        <time>2019-08-23T05:43:25Z</time>
      </trkpt>
      <trkpt lat="42.704115" lon="0.542027">
        <ele>2706.2</ele>
        <time>2019-08-23T05:43:43Z</time>
      </trkpt>
      <trkpt lat="42.704027" lon="0.541955">
        <ele>2708.5</ele>
        <time>2019-08-23T05:43:54Z</time>
      </trkpt>
      <trkpt lat="42.703951" lon="0.541923">
        <ele>2710.9</ele>
        <time>2019-08-23T05:44:04Z</time>
      </trkpt>
      <trkpt lat="42.703874" lon="0.541849">
        <ele>2713.6</ele>
        <time>2019-08-23T05:44:16Z</time>
      </trkpt>
      <trkpt lat="42.703807" lon="0.541775">
        <ele>2714.7</ele>
        <time>2019-08-23T05:44:32Z</time>
      </trkpt>
      <trkpt lat="42.703765" lon="0.541671">
        <ele>2715.3</ele>
        <time>2019-08-23T05:44:48Z</time>
      </trkpt>
      <trkpt lat="42.703693" lon="0.541571">
        <ele>2715.2</ele>
        <time>2019-08-23T05:45:05Z</time>
      </trkpt>
      <trkpt lat="42.703629" lon="0.541501">
        <ele>2718.1</ele>
        <time>2019-08-23T05:45:21Z</time>
      </trkpt>
      <trkpt lat="42.703558" lon="0.541385">
        <ele>2718.7</ele>
        <time>2019-08-23T05:45:36Z</time>
      </trkpt>
      <trkpt lat="42.703558" lon="0.541224">
        <ele>2719.2</ele>
        <time>2019-08-23T05:45:49Z</time>
      </trkpt>
      <trkpt lat="42.703563" lon="0.541078">
        <ele>2719.9</ele>
        <time>2019-08-23T05:46:07Z</time>
      </trkpt>
      <trkpt lat="42.703515" lon="0.541010">
        <ele>2722.6</ele>
        <time>2019-08-23T05:46:25Z</time>
      </trkpt>
      <trkpt lat="42.703541" lon="0.540885">
        <ele>2724.3</ele>
        <time>2019-08-23T05:46:37Z</time>
      </trkpt>
      <trkpt lat="42.703558" lon="0.540782">
        <ele>2725.7</ele>
        <time>2019-08-23T05:46:52Z</time>
      </trkpt>
      <trkpt lat="42.703583" lon="0.540691">
        <ele>2725.3</ele>
        <time>2019-08-23T05:47:02Z</time>
      </trkpt>
      <trkpt lat="42.703550" lon="0.540624">
        <ele>2729.6</ele>
        <time>2019-08-23T05:47:24Z</time>
      </trkpt>
      <trkpt lat="42.703448" lon="0.540537">
        <ele>2733.9</ele>
        <time>2019-08-23T05:47:46Z</time>
      </trkpt>
      <trkpt lat="42.703369" lon="0.540506">
        <ele>2737.8</ele>
        <time>2019-08-23T05:48:05Z</time>
      </trkpt>
      <trkpt lat="42.703328" lon="0.540421">
        <ele>2740.8</ele>
        <time>2019-08-23T05:48:24Z</time>
      </trkpt>
      <trkpt lat="42.703300" lon="0.540317">
        <ele>2744.0</ele>
        <time>2019-08-23T05:48:43Z</time>
      </trkpt>
      <trkpt lat="42.703228" lon="0.540299">
        <ele>2747.2</ele>
        <time>2019-08-23T05:49:05Z</time>
      </trkpt>
      <trkpt lat="42.703166" lon="0.540253">
        <ele>2748.7</ele>
        <time>2019-08-23T05:49:25Z</time>
      </trkpt>
      <trkpt lat="42.703159" lon="0.540156">
        <ele>2748.0</ele>
        <time>2019-08-23T05:49:35Z</time>
      </trkpt>
      <trkpt lat="42.703174" lon="0.540036">
        <ele>2747.0</ele>
        <time>2019-08-23T05:49:48Z</time>
      </trkpt>
      <trkpt lat="42.703112" lon="0.539977">
        <ele>2747.9</ele>
        <time>2019-08-23T05:50:09Z</time>
      </trkpt>
      <trkpt lat="42.703077" lon="0.539864">
        <ele>2751.1</ele>
        <time>2019-08-23T05:50:26Z</time>
      </trkpt>
      <trkpt lat="42.703085" lon="0.539760">
        <ele>2753.4</ele>
        <time>2019-08-23T05:50:45Z</time>
      </trkpt>
      <trkpt lat="42.703082" lon="0.539729">
        <ele>2754.3</ele>
        <time>2019-08-23T05:51:07Z</time>
      </trkpt>
      <trkpt lat="42.703016" lon="0.539717">
        <ele>2757.5</ele>
        <time>2019-08-23T05:51:25Z</time>
      </trkpt>
      <trkpt lat="42.702960" lon="0.539573">
        <ele>2761.9</ele>
        <time>2019-08-23T05:52:48Z</time>
      </trkpt>
      <trkpt lat="42.702939" lon="0.539455">
        <ele>2760.4</ele>
        <time>2019-08-23T05:52:58Z</time>
      </trkpt>
      <trkpt lat="42.702914" lon="0.539345">
        <ele>2763.4</ele>
        <time>2019-08-23T05:53:12Z</time>
      </trkpt>
      <trkpt lat="42.702840" lon="0.539228">
        <ele>2766.8</ele>
        <time>2019-08-23T05:53:28Z</time>
      </trkpt>
      <trkpt lat="42.702823" lon="0.539166">
        <ele>2770.6</ele>
        <time>2019-08-23T05:53:55Z</time>
      </trkpt>
      <trkpt lat="42.702777" lon="0.539080">
        <ele>2774.3</ele>
        <time>2019-08-23T05:54:27Z</time>
      </trkpt>
      <trkpt lat="42.702728" lon="0.538974">
        <ele>2779.9</ele>
        <time>2019-08-23T05:54:52Z</time>
      </trkpt>
      <trkpt lat="42.702725" lon="0.538863">
        <ele>2782.8</ele>
        <time>2019-08-23T05:55:13Z</time>
      </trkpt>
      <trkpt lat="42.702713" lon="0.538766">
        <ele>2786.8</ele>
        <time>2019-08-23T05:55:40Z</time>
      </trkpt>
      <trkpt lat="42.702748" lon="0.538654">
        <ele>2788.8</ele>
        <time>2019-08-23T05:56:08Z</time>
      </trkpt>
      <trkpt lat="42.702800" lon="0.538578">
        <ele>2793.0</ele>
        <time>2019-08-23T05:56:39Z</time>
      </trkpt>
      <trkpt lat="42.702858" lon="0.538500">
        <ele>2794.0</ele>
        <time>2019-08-23T05:57:01Z</time>
      </trkpt>
      <trkpt lat="42.702892" lon="0.538376">
        <ele>2797.4</ele>
        <time>2019-08-23T05:57:28Z</time>
      </trkpt>
      <trkpt lat="42.702858" lon="0.538303">
        <ele>2802.6</ele>
        <time>2019-08-23T05:58:10Z</time>
      </trkpt>
      <trkpt lat="42.702809" lon="0.538242">
        <ele>2807.7</ele>
        <time>2019-08-23T05:58:48Z</time>
      </trkpt>
      <trkpt lat="42.702732" lon="0.538237">
        <ele>2809.9</ele>
        <time>2019-08-23T05:59:20Z</time>
      </trkpt>
      <trkpt lat="42.702715" lon="0.538177">
        <ele>2815.8</ele>
        <time>2019-08-23T05:59:53Z</time>
      </trkpt>
      <trkpt lat="42.702760" lon="0.538140">
        <ele>2806.3</ele>
        <time>2019-08-23T06:02:54Z</time>
      </trkpt>
      <trkpt lat="42.702725" lon="0.538035">
        <ele>2802.8</ele>
        <time>2019-08-23T06:03:14Z</time>
      </trkpt>
      <trkpt lat="42.702698" lon="0.537983">
        <ele>2804.2</ele>
        <time>2019-08-23T06:03:40Z</time>
      </trkpt>
      <trkpt lat="42.702639" lon="0.537954">
        <ele>2806.8</ele>
        <time>2019-08-23T06:04:03Z</time>
      </trkpt>
      <trkpt lat="42.702577" lon="0.537948">
        <ele>2811.5</ele>
        <time>2019-08-23T06:04:26Z</time>
      </trkpt>
      <trkpt lat="42.702507" lon="0.537882">
        <ele>2815.6</ele>
        <time>2019-08-23T06:04:54Z</time>
      </trkpt>
      <trkpt lat="42.702422" lon="0.537851">
        <ele>2819.4</ele>
        <time>2019-08-23T06:05:24Z</time>
      </trkpt>
      <trkpt lat="42.702408" lon="0.537849">
        <ele>2823.8</ele>
        <time>2019-08-23T06:06:15Z</time>
      </trkpt>
      <trkpt lat="42.702302" lon="0.537831">
        <ele>2826.4</ele>
        <time>2019-08-23T06:06:33Z</time>
      </trkpt>
      <trkpt lat="42.702232" lon="0.537826">
        <ele>2830.8</ele>
        <time>2019-08-23T06:06:57Z</time>
      </trkpt>
      <trkpt lat="42.702201" lon="0.537845">
        <ele>2834.4</ele>
        <time>2019-08-23T06:07:23Z</time>
      </trkpt>
      <trkpt lat="42.702157" lon="0.537884">
        <ele>2839.1</ele>
        <time>2019-08-23T06:07:54Z</time>
      </trkpt>
      <trkpt lat="42.702131" lon="0.537901">
        <ele>2843.8</ele>
        <time>2019-08-23T06:08:52Z</time>
      </trkpt>
      <trkpt lat="42.702081" lon="0.537939">
        <ele>2848.0</ele>
        <time>2019-08-23T06:09:19Z</time>
      </trkpt>
      <trkpt lat="42.702044" lon="0.537993">
        <ele>2852.5</ele>
        <time>2019-08-23T06:09:52Z</time>
      </trkpt>
      <trkpt lat="42.701976" lon="0.538018">
        <ele>2857.1</ele>
        <time>2019-08-23T06:10:25Z</time>
      </trkpt>
      <trkpt lat="42.701891" lon="0.538055">
        <ele>2861.9</ele>
        <time>2019-08-23T06:11:06Z</time>
      </trkpt>
      <trkpt lat="42.701835" lon="0.538046">
        <ele>2864.0</ele>
        <time>2019-08-23T06:11:28Z</time>
      </trkpt>
      <trkpt lat="42.701812" lon="0.537955">
        <ele>2872.8</ele>
        <time>2019-08-23T06:12:44Z</time>
      </trkpt>
      <trkpt lat="42.701749" lon="0.537849">
        <ele>2875.4</ele>
        <time>2019-08-23T06:12:57Z</time>
      </trkpt>
      <trkpt lat="42.701695" lon="0.537760">
        <ele>2877.7</ele>
        <time>2019-08-23T06:13:10Z</time>
      </trkpt>
      <trkpt lat="42.701632" lon="0.537655">
        <ele>2880.2</ele>
        <time>2019-08-23T06:13:28Z</time>
      </trkpt>
      <trkpt lat="42.701601" lon="0.537575">
        <ele>2882.5</ele>
        <time>2019-08-23T06:13:42Z</time>
      </trkpt>
      <trkpt lat="42.701557" lon="0.537443">
        <ele>2885.2</ele>
        <time>2019-08-23T06:14:00Z</time>
      </trkpt>
      <trkpt lat="42.701471" lon="0.537381">
        <ele>2887.1</ele>
        <time>2019-08-23T06:14:18Z</time>
      </trkpt>
      <trkpt lat="42.701397" lon="0.537351">
        <ele>2890.8</ele>
        <time>2019-08-23T06:14:36Z</time>
      </trkpt>
      <trkpt lat="42.701344" lon="0.537346">
        <ele>2895.1</ele>
        <time>2019-08-23T06:15:05Z</time>
      </trkpt>
      <trkpt lat="42.701280" lon="0.537259">
        <ele>2898.4</ele>
        <time>2019-08-23T06:15:25Z</time>
      </trkpt>
      <trkpt lat="42.701217" lon="0.537184">
        <ele>2902.1</ele>
        <time>2019-08-23T06:15:54Z</time>
      </trkpt>
      <trkpt lat="42.701143" lon="0.537102">
        <ele>2904.4</ele>
        <time>2019-08-23T06:16:15Z</time>
      </trkpt>
      <trkpt lat="42.701055" lon="0.536983">
        <ele>2904.5</ele>
        <time>2019-08-23T06:16:29Z</time>
      </trkpt>
      <trkpt lat="42.700998" lon="0.536871">
        <ele>2904.9</ele>
        <time>2019-08-23T06:16:39Z</time>
      </trkpt>
      <trkpt lat="42.700997" lon="0.536756">
        <ele>2906.3</ele>
        <time>2019-08-23T06:16:54Z</time>
      </trkpt>
      <trkpt lat="42.700958" lon="0.536619">
        <ele>2907.6</ele>
        <time>2019-08-23T06:17:11Z</time>
      </trkpt>
      <trkpt lat="42.700942" lon="0.536498">
        <ele>2909.7</ele>
        <time>2019-08-23T06:17:24Z</time>
      </trkpt>
      <trkpt lat="42.700909" lon="0.536391">
        <ele>2912.0</ele>
        <time>2019-08-23T06:17:38Z</time>
      </trkpt>
      <trkpt lat="42.700927" lon="0.536270">
        <ele>2915.4</ele>
        <time>2019-08-23T06:17:54Z</time>
      </trkpt>
      <trkpt lat="42.700924" lon="0.536128">
        <ele>2917.8</ele>
        <time>2019-08-23T06:18:10Z</time>
      </trkpt>
      <trkpt lat="42.700935" lon="0.536007">
        <ele>2918.5</ele>
        <time>2019-08-23T06:18:25Z</time>
      </trkpt>
      <trkpt lat="42.700903" lon="0.535868">
        <ele>2921.6</ele>
        <time>2019-08-23T06:18:48Z</time>
      </trkpt>
      <trkpt lat="42.700924" lon="0.535745">
        <ele>2924.7</ele>
        <time>2019-08-23T06:19:05Z</time>
      </trkpt>
      <trkpt lat="42.700933" lon="0.535618">
        <ele>2926.9</ele>
        <time>2019-08-23T06:19:22Z</time>
      </trkpt>
      <trkpt lat="42.700953" lon="0.535495">
        <ele>2928.7</ele>
        <time>2019-08-23T06:19:39Z</time>
      </trkpt>
      <trkpt lat="42.700975" lon="0.535378">
        <ele>2929.6</ele>
        <time>2019-08-23T06:19:53Z</time>
      </trkpt>
      <trkpt lat="42.700954" lon="0.535276">
        <ele>2931.3</ele>
        <time>2019-08-23T06:20:24Z</time>
      </trkpt>
      <trkpt lat="42.700928" lon="0.535150">
        <ele>2933.6</ele>
        <time>2019-08-23T06:20:42Z</time>
      </trkpt>
      <trkpt lat="42.700887" lon="0.535045">
        <ele>2937.6</ele>
        <time>2019-08-23T06:21:01Z</time>
      </trkpt>
      <trkpt lat="42.700846" lon="0.534932">
        <ele>2942.6</ele>
        <time>2019-08-23T06:21:24Z</time>
      </trkpt>
      <trkpt lat="42.700786" lon="0.534875">
        <ele>2947.0</ele>
        <time>2019-08-23T06:21:51Z</time>
      </trkpt>
      <trkpt lat="42.700802" lon="0.534775">
        <ele>2951.0</ele>
        <time>2019-08-23T06:23:25Z</time>
      </trkpt>
      <trkpt lat="42.700723" lon="0.534722">
        <ele>2954.4</ele>
        <time>2019-08-23T06:23:49Z</time>
      </trkpt>
      <trkpt lat="42.700665" lon="0.534618">
        <ele>2957.3</ele>
        <time>2019-08-23T06:24:20Z</time>
      </trkpt>
      <trkpt lat="42.700686" lon="0.534496">
        <ele>2960.7</ele>
        <time>2019-08-23T06:24:39Z</time>
      </trkpt>
      <trkpt lat="42.700661" lon="0.534420">
        <ele>2962.7</ele>
        <time>2019-08-23T06:25:16Z</time>
      </trkpt>
      <trkpt lat="42.700598" lon="0.534362">
        <ele>2967.3</ele>
        <time>2019-08-23T06:25:46Z</time>
      </trkpt>
      <trkpt lat="42.700605" lon="0.534248">
        <ele>2970.5</ele>
        <time>2019-08-23T06:26:13Z</time>
      </trkpt>
      <trkpt lat="42.700597" lon="0.534202">
        <ele>2973.3</ele>
        <time>2019-08-23T06:26:49Z</time>
      </trkpt>
      <trkpt lat="42.700551" lon="0.534157">
        <ele>2977.8</ele>
        <time>2019-08-23T06:27:19Z</time>
      </trkpt>
      <trkpt lat="42.700513" lon="0.534195">
        <ele>2980.4</ele>
        <time>2019-08-23T06:27:47Z</time>
      </trkpt>
      <trkpt lat="42.700457" lon="0.534220">
        <ele>2985.4</ele>
        <time>2019-08-23T06:28:20Z</time>
      </trkpt>
      <trkpt lat="42.700395" lon="0.534297">
        <ele>2989.4</ele>
        <time>2019-08-23T06:28:49Z</time>
      </trkpt>
      <trkpt lat="42.700342" lon="0.534359">
        <ele>3005.5</ele>
        <time>2019-08-23T06:40:56Z</time>
      </trkpt>
      <trkpt lat="42.700274" lon="0.534401">
        <ele>3007.8</ele>
        <time>2019-08-23T06:42:14Z</time>
      </trkpt>
      <trkpt lat="42.700198" lon="0.534373">
        <ele>3012.2</ele>
        <time>2019-08-23T06:42:57Z</time>
      </trkpt>
      <trkpt lat="42.700139" lon="0.534445">
        <ele>3014.0</ele>
        <time>2019-08-23T06:43:17Z</time>
      </trkpt>
      <trkpt lat="42.700087" lon="0.534541">
        <ele>3018.4</ele>
        <time>2019-08-23T06:43:50Z</time>
      </trkpt>
      <trkpt lat="42.700043" lon="0.534658">
        <ele>3021.7</ele>
        <time>2019-08-23T06:44:21Z</time>
      </trkpt>
      <trkpt lat="42.699998" lon="0.534735">
        <ele>3024.2</ele>
        <time>2019-08-23T06:44:40Z</time>
      </trkpt>
      <trkpt lat="42.699969" lon="0.534867">
        <ele>3027.1</ele>
        <time>2019-08-23T06:45:01Z</time>
      </trkpt>
      <trkpt lat="42.699939" lon="0.534909">
        <ele>3028.4</ele>
        <time>2019-08-23T06:45:42Z</time>
      </trkpt>
      <trkpt lat="42.699903" lon="0.535032">
        <ele>3028.3</ele>
        <time>2019-08-23T06:45:55Z</time>
      </trkpt>
      <trkpt lat="42.699838" lon="0.535129">
        <ele>3030.2</ele>
        <time>2019-08-23T06:46:13Z</time>
      </trkpt>
      <trkpt lat="42.699791" lon="0.535246">
        <ele>3030.7</ele>
        <time>2019-08-23T06:46:29Z</time>
      </trkpt>
      <trkpt lat="42.699742" lon="0.535374">
        <ele>3031.4</ele>
        <time>2019-08-23T06:46:44Z</time>
      </trkpt>
      <trkpt lat="42.699732" lon="0.535501">
        <ele>3033.9</ele>
        <time>2019-08-23T06:47:02Z</time>
      </trkpt>
      <trkpt lat="42.699759" lon="0.535617">
        <ele>3035.9</ele>
        <time>2019-08-23T06:47:48Z</time>
      </trkpt>
      <trkpt lat="42.699820" lon="0.535697">
        <ele>3035.2</ele>
        <time>2019-08-23T06:48:31Z</time>
      </trkpt>
      <trkpt lat="42.699865" lon="0.535805">
        <ele>3035.9</ele>
        <time>2019-08-23T06:48:48Z</time>
      </trkpt>
      <trkpt lat="42.699922" lon="0.535902">
        <ele>3034.1</ele>
        <time>2019-08-23T06:49:14Z</time>
      </trkpt>
      <trkpt lat="42.699989" lon="0.535931">
        <ele>3030.6</ele>
        <time>2019-08-23T06:49:43Z</time>
      </trkpt>
      <trkpt lat="42.700031" lon="0.535930">
        <ele>3026.7</ele>
        <time>2019-08-23T06:50:27Z</time>
      </trkpt>
      <trkpt lat="42.700092" lon="0.535988">
        <ele>3023.2</ele>
        <time>2019-08-23T06:50:47Z</time>
      </trkpt>
      <trkpt lat="42.700084" lon="0.536083">
        <ele>3024.3</ele>
        <time>2019-08-23T06:51:10Z</time>
      </trkpt>
      <trkpt lat="42.700057" lon="0.536198">
        <ele>3026.4</ele>
        <time>2019-08-23T06:52:07Z</time>
      </trkpt>
      <trkpt lat="42.700036" lon="0.536329">
        <ele>3028.8</ele>
        <time>2019-08-23T06:52:26Z</time>
      </trkpt>
      <trkpt lat="42.700025" lon="0.536447">
        <ele>3030.1</ele>
        <time>2019-08-23T06:52:54Z</time>
      </trkpt>
      <trkpt lat="42.700046" lon="0.536575">
        <ele>3031.2</ele>
        <time>2019-08-23T06:53:13Z</time>
      </trkpt>
      <trkpt lat="42.700043" lon="0.536703">
        <ele>3032.5</ele>
        <time>2019-08-23T06:53:37Z</time>
      </trkpt>
      <trkpt lat="42.700053" lon="0.536826">
        <ele>3035.1</ele>
        <time>2019-08-23T06:54:50Z</time>
      </trkpt>
      <trkpt lat="42.700071" lon="0.536944">
        <ele>3034.7</ele>
        <time>2019-08-23T06:55:17Z</time>
      </trkpt>
      <trkpt lat="42.700128" lon="0.537038">
        <ele>3033.5</ele>
        <time>2019-08-23T06:56:04Z</time>
      </trkpt>
      <trkpt lat="42.700161" lon="0.537153">
        <ele>3031.0</ele>
        <time>2019-08-23T06:56:37Z</time>
      </trkpt>
      <trkpt lat="42.700144" lon="0.537256">
        <ele>3032.8</ele>
        <time>2019-08-23T06:58:11Z</time>
      </trkpt>
      <trkpt lat="42.700128" lon="0.537378">
        <ele>3029.2</ele>
        <time>2019-08-23T06:59:05Z</time>
      </trkpt>
      <trkpt lat="42.700115" lon="0.537509">
        <ele>3022.9</ele>
        <time>2019-08-23T06:59:50Z</time>
      </trkpt>
      <trkpt lat="42.700135" lon="0.537582">
        <ele>3018.6</ele>
        <time>2019-08-23T07:00:34Z</time>
      </trkpt>
      <trkpt lat="42.700087" lon="0.537665">
        <ele>3014.8</ele>
        <time>2019-08-23T07:01:11Z</time>
      </trkpt>
      <trkpt lat="42.700073" lon="0.537764">
        <ele>3011.5</ele>
        <time>2019-08-23T07:02:33Z</time>
      </trkpt>
      <trkpt lat="42.700097" lon="0.537835">
        <ele>3007.8</ele>
        <time>2019-08-23T07:04:35Z</time>
      </trkpt>
      <trkpt lat="42.700079" lon="0.537949">
        <ele>3006.8</ele>
        <time>2019-08-23T07:05:47Z</time>
      </trkpt>
      <trkpt lat="42.700079" lon="0.538008">
        <ele>3004.4</ele>
        <time>2019-08-23T07:07:43Z</time>
      </trkpt>
      <trkpt lat="42.700087" lon="0.538118">
        <ele>3001.0</ele>
        <time>2019-08-23T07:08:38Z</time>
      </trkpt>
      <trkpt lat="42.700117" lon="0.538264">
        <ele>3002.5</ele>
        <time>2019-08-23T07:10:30Z</time>
      </trkpt>
      <trkpt lat="42.700129" lon="0.538406">
        <ele>3005.5</ele>
        <time>2019-08-23T07:12:09Z</time>
      </trkpt>
      <trkpt lat="42.700149" lon="0.538555">
        <ele>3007.4</ele>
        <time>2019-08-23T07:13:45Z</time>
      </trkpt>
      <trkpt lat="42.700152" lon="0.538703">
        <ele>3013.3</ele>
        <time>2019-08-23T07:14:46Z</time>
      </trkpt>
      <trkpt lat="42.700153" lon="0.538814">
        <ele>3016.5</ele>
        <time>2019-08-23T07:16:50Z</time>
      </trkpt>
      <trkpt lat="42.700158" lon="0.538906">
        <ele>3023.8</ele>
        <time>2019-08-23T07:17:36Z</time>
      </trkpt>
      <trkpt lat="42.700196" lon="0.539035">
        <ele>3027.9</ele>
        <time>2019-08-23T07:18:39Z</time>
      </trkpt>
      <trkpt lat="42.700196" lon="0.539143">
        <ele>3034.3</ele>
        <time>2019-08-23T07:19:30Z</time>
      </trkpt>
      <trkpt lat="42.700217" lon="0.539245">
        <ele>3036.5</ele>
        <time>2019-08-23T07:20:15Z</time>
      </trkpt>
      <trkpt lat="42.700257" lon="0.539335">
        <ele>3037.5</ele>
        <time>2019-08-23T07:21:49Z</time>
      </trkpt>
      <trkpt lat="42.700245" lon="0.539463">
        <ele>3039.7</ele>
        <time>2019-08-23T07:22:24Z</time>
      </trkpt>
      <trkpt lat="42.700228" lon="0.539573">
        <ele>3041.4</ele>
        <time>2019-08-23T07:22:58Z</time>
      </trkpt>
      <trkpt lat="42.700251" lon="0.539688">
        <ele>3042.0</ele>
        <time>2019-08-23T07:24:07Z</time>
      </trkpt>
      <trkpt lat="42.700232" lon="0.539762">
        <ele>3041.6</ele>
        <time>2019-08-23T07:24:47Z</time>
      </trkpt>
      <trkpt lat="42.700244" lon="0.539874">
        <ele>3043.2</ele>
        <time>2019-08-23T07:26:27Z</time>
      </trkpt>
      <trkpt lat="42.700216" lon="0.539985">
        <ele>3041.1</ele>
        <time>2019-08-23T07:27:21Z</time>
      </trkpt>
      <trkpt lat="42.700237" lon="0.540091">
        <ele>3041.7</ele>
        <time>2019-08-23T07:27:57Z</time>
      </trkpt>
      <trkpt lat="42.700253" lon="0.540216">
        <ele>3041.3</ele>
        <time>2019-08-23T07:28:45Z</time>
      </trkpt>
      <trkpt lat="42.700241" lon="0.540294">
        <ele>3039.7</ele>
        <time>2019-08-23T07:32:11Z</time>
      </trkpt>
      <trkpt lat="42.700252" lon="0.540440">
        <ele>3038.4</ele>
        <time>2019-08-23T07:33:41Z</time>
      </trkpt>
      <trkpt lat="42.700249" lon="0.540583">
        <ele>3036.8</ele>
        <time>2019-08-23T07:35:24Z</time>
      </trkpt>
      <trkpt lat="42.700218" lon="0.540682">
        <ele>3038.5</ele>
        <time>2019-08-23T07:36:33Z</time>
      </trkpt>
      <trkpt lat="42.700227" lon="0.540838">
        <ele>3037.9</ele>
        <time>2019-08-23T07:37:56Z</time>
      </trkpt>
      <trkpt lat="42.700199" lon="0.540940">
        <ele>3036.2</ele>
        <time>2019-08-23T07:41:00Z</time>
      </trkpt>
      <trkpt lat="42.700235" lon="0.541078">
        <ele>3034.8</ele>
        <time>2019-08-23T07:42:01Z</time>
      </trkpt>
      <trkpt lat="42.700222" lon="0.541203">
        <ele>3032.8</ele>
        <time>2019-08-23T07:43:00Z</time>
      </trkpt>
      <trkpt lat="42.700217" lon="0.541323">
        <ele>3030.3</ele>
        <time>2019-08-23T07:44:41Z</time>
      </trkpt>
      <trkpt lat="42.700190" lon="0.541454">
        <ele>3029.6</ele>
        <time>2019-08-23T07:47:41Z</time>
      </trkpt>
      <trkpt lat="42.700139" lon="0.541573">
        <ele>3030.1</ele>
        <time>2019-08-23T07:50:43Z</time>
      </trkpt>
      <trkpt lat="42.700138" lon="0.541665">
        <ele>3032.9</ele>
        <time>2019-08-23T07:51:58Z</time>
      </trkpt>
      <trkpt lat="42.700145" lon="0.541756">
        <ele>3035.7</ele>
        <time>2019-08-23T07:52:35Z</time>
      </trkpt>
      <trkpt lat="42.700183" lon="0.541863">
        <ele>3036.3</ele>
        <time>2019-08-23T07:54:18Z</time>
      </trkpt>
      <trkpt lat="42.700228" lon="0.541961">
        <ele>3039.4</ele>
        <time>2019-08-23T07:55:23Z</time>
      </trkpt>
      <trkpt lat="42.700247" lon="0.542052">
        <ele>3039.0</ele>
        <time>2019-08-23T07:56:22Z</time>
      </trkpt>
      <trkpt lat="42.700295" lon="0.542151">
        <ele>3039.4</ele>
        <time>2019-08-23T07:56:51Z</time>
      </trkpt>
      <trkpt lat="42.700309" lon="0.542296">
        <ele>3039.6</ele>
        <time>2019-08-23T07:59:03Z</time>
      </trkpt>
      <trkpt lat="42.700340" lon="0.542394">
        <ele>3040.2</ele>
        <time>2019-08-23T07:59:43Z</time>
      </trkpt>
      <trkpt lat="42.700366" lon="0.542524">
        <ele>3042.3</ele>
        <time>2019-08-23T08:00:33Z</time>
      </trkpt>
      <trkpt lat="42.700407" lon="0.542632">
        <ele>3044.6</ele>
        <time>2019-08-23T08:00:53Z</time>
      </trkpt>
      <trkpt lat="42.700416" lon="0.542760">
        <ele>3044.0</ele>
        <time>2019-08-23T08:02:35Z</time>
      </trkpt>
      <trkpt lat="42.700452" lon="0.542892">
        <ele>3043.0</ele>
        <time>2019-08-23T08:04:02Z</time>
      </trkpt>
      <trkpt lat="42.700490" lon="0.543001">
        <ele>3045.3</ele>
        <time>2019-08-23T08:04:48Z</time>
      </trkpt>
      <trkpt lat="42.700493" lon="0.543131">
        <ele>3048.6</ele>
        <time>2019-08-23T08:06:36Z</time>
      </trkpt>
      <trkpt lat="42.700505" lon="0.543196">
        <ele>3050.7</ele>
        <time>2019-08-23T08:08:19Z</time>
      </trkpt>
      <trkpt lat="42.700523" lon="0.543311">
        <ele>3053.0</ele>
        <time>2019-08-23T08:09:09Z</time>
      </trkpt>
      <trkpt lat="42.700537" lon="0.543410">
        <ele>3058.2</ele>
        <time>2019-08-23T08:09:45Z</time>
      </trkpt>
      <trkpt lat="42.700561" lon="0.543465">
        <ele>3060.8</ele>
        <time>2019-08-23T08:11:15Z</time>
      </trkpt>
      <trkpt lat="42.700634" lon="0.543551">
        <ele>3062.6</ele>
        <time>2019-08-23T08:11:43Z</time>
      </trkpt>
      <trkpt lat="42.700627" lon="0.543679">
        <ele>3065.6</ele>
        <time>2019-08-23T08:12:25Z</time>
      </trkpt>
      <trkpt lat="42.700697" lon="0.543753">
        <ele>3071.0</ele>
        <time>2019-08-23T08:13:23Z</time>
      </trkpt>
      <trkpt lat="42.700702" lon="0.543885">
        <ele>3071.4</ele>
        <time>2019-08-23T08:13:58Z</time>
      </trkpt>
      <trkpt lat="42.700716" lon="0.543976">
        <ele>3074.9</ele>
        <time>2019-08-23T08:14:27Z</time>
      </trkpt>
      <trkpt lat="42.700765" lon="0.544093">
        <ele>3076.9</ele>
        <time>2019-08-23T08:15:03Z</time>
      </trkpt>
      <trkpt lat="42.700801" lon="0.544188">
        <ele>3078.4</ele>
        <time>2019-08-23T08:16:27Z</time>
      </trkpt>
      <trkpt lat="42.700814" lon="0.544296">
        <ele>3079.9</ele>
        <time>2019-08-23T08:17:11Z</time>
      </trkpt>
      <trkpt lat="42.700843" lon="0.544372">
        <ele>3083.6</ele>
        <time>2019-08-23T08:17:40Z</time>
      </trkpt>
      <trkpt lat="42.700860" lon="0.544462">
        <ele>3084.9</ele>
        <time>2019-08-23T08:18:07Z</time>
      </trkpt>
      <trkpt lat="42.700885" lon="0.544550">
        <ele>3087.4</ele>
        <time>2019-08-23T08:18:32Z</time>
      </trkpt>
      <trkpt lat="42.700949" lon="0.544605">
        <ele>3090.2</ele>
        <time>2019-08-23T08:19:06Z</time>
      </trkpt>
      <trkpt lat="42.701015" lon="0.544705">
        <ele>3091.4</ele>
        <time>2019-08-23T08:19:23Z</time>
      </trkpt>
      <trkpt lat="42.701080" lon="0.544813">
        <ele>3092.5</ele>
        <time>2019-08-23T08:19:40Z</time>
      </trkpt>
      <trkpt lat="42.701137" lon="0.544927">
        <ele>3092.8</ele>
        <time>2019-08-23T08:19:53Z</time>
      </trkpt>
      <trkpt lat="42.701188" lon="0.545017">
        <ele>3094.5</ele>
        <time>2019-08-23T08:20:13Z</time>
      </trkpt>
      <trkpt lat="42.701249" lon="0.545094">
        <ele>3096.7</ele>
        <time>2019-08-23T08:20:30Z</time>
      </trkpt>
      <trkpt lat="42.701312" lon="0.545167">
        <ele>3099.1</ele>
        <time>2019-08-23T08:20:47Z</time>
      </trkpt>
      <trkpt lat="42.701334" lon="0.545261">
        <ele>3099.8</ele>
        <time>2019-08-23T08:21:05Z</time>
      </trkpt>
      <trkpt lat="42.701363" lon="0.545360">
        <ele>3101.2</ele>
        <time>2019-08-23T08:21:26Z</time>
      </trkpt>
      <trkpt lat="42.701393" lon="0.545443">
        <ele>3102.7</ele>
        <time>2019-08-23T08:21:48Z</time>
      </trkpt>
      <trkpt lat="42.701391" lon="0.545553">
        <ele>3104.1</ele>
        <time>2019-08-23T08:23:38Z</time>
      </trkpt>
      <trkpt lat="42.701378" lon="0.545537">
        <ele>3105.0</ele>
        <time>2019-08-23T08:29:55Z</time>
      </trkpt>
      <trkpt lat="42.701392" lon="0.545610">
        <ele>3103.9</ele>
        <time>2019-08-23T08:35:07Z</time>
      </trkpt>
      <trkpt lat="42.701439" lon="0.545614">
        <ele>3106.6</ele>
        <time>2019-08-23T08:46:37Z</time>
      </trkpt>
      <trkpt lat="42.701449" lon="0.545714">
        <ele>3106.7</ele>
        <time>2019-08-23T08:47:17Z</time>
      </trkpt>
      <trkpt lat="42.701451" lon="0.545824">
        <ele>3106.2</ele>
        <time>2019-08-23T08:47:37Z</time>
      </trkpt>
      <trkpt lat="42.701507" lon="0.545935">
        <ele>3105.7</ele>
        <time>2019-08-23T08:48:11Z</time>
      </trkpt>
      <trkpt lat="42.701525" lon="0.546043">
        <ele>3105.4</ele>
        <time>2019-08-23T08:48:31Z</time>
      </trkpt>
      <trkpt lat="42.701528" lon="0.546048">
        <ele>3106.3</ele>
        <time>2019-08-23T08:49:49Z</time>
      </trkpt>
      <trkpt lat="42.701591" lon="0.546120">
        <ele>3103.9</ele>
        <time>2019-08-23T08:50:13Z</time>
      </trkpt>
      <trkpt lat="42.701606" lon="0.546151">
        <ele>3100.9</ele>
        <time>2019-08-23T08:51:09Z</time>
      </trkpt>
      <trkpt lat="42.701687" lon="0.546201">
        <ele>3098.4</ele>
        <time>2019-08-23T08:51:48Z</time>
      </trkpt>
      <trkpt lat="42.701744" lon="0.546286">
        <ele>3093.3</ele>
        <time>2019-08-23T08:53:07Z</time>
      </trkpt>
      <trkpt lat="42.701814" lon="0.546264">
        <ele>3087.7</ele>
        <time>2019-08-23T08:54:55Z</time>
      </trkpt>
      <trkpt lat="42.701830" lon="0.546228">
        <ele>3084.8</ele>
        <time>2019-08-23T08:55:19Z</time>
      </trkpt>
      <trkpt lat="42.701866" lon="0.546238">
        <ele>3078.0</ele>
        <time>2019-08-23T08:58:13Z</time>
      </trkpt>
      <trkpt lat="42.701901" lon="0.546159">
        <ele>3075.0</ele>
        <time>2019-08-23T08:58:39Z</time>
      </trkpt>
      <trkpt lat="42.701933" lon="0.546202">
        <ele>3071.9</ele>
        <time>2019-08-23T08:59:00Z</time>
      </trkpt>
      <trkpt lat="42.701988" lon="0.546287">
        <ele>3070.4</ele>
        <time>2019-08-23T08:59:13Z</time>
      </trkpt>
      <trkpt lat="42.702035" lon="0.546363">
        <ele>3068.6</ele>
        <time>2019-08-23T08:59:29Z</time>
      </trkpt>
      <trkpt lat="42.702092" lon="0.546451">
        <ele>3065.9</ele>
        <time>2019-08-23T09:00:22Z</time>
      </trkpt>
      <trkpt lat="42.702167" lon="0.546408">
        <ele>3062.2</ele>
        <time>2019-08-23T09:00:58Z</time>
      </trkpt>
      <trkpt lat="42.702223" lon="0.546431">
        <ele>3060.3</ele>
        <time>2019-08-23T09:01:40Z</time>
      </trkpt>
      <trkpt lat="42.702246" lon="0.546413">
        <ele>3058.7</ele>
        <time>2019-08-23T09:02:09Z</time>
      </trkpt>
      <trkpt lat="42.702290" lon="0.546349">
        <ele>3055.0</ele>
        <time>2019-08-23T09:02:36Z</time>
      </trkpt>
      <trkpt lat="42.702357" lon="0.546372">
        <ele>3051.9</ele>
        <time>2019-08-23T09:02:59Z</time>
      </trkpt>
      <trkpt lat="42.702428" lon="0.546317">
        <ele>3047.3</ele>
        <time>2019-08-23T09:03:29Z</time>
      </trkpt>
      <trkpt lat="42.702472" lon="0.546250">
        <ele>3043.9</ele>
        <time>2019-08-23T09:03:56Z</time>
      </trkpt>
      <trkpt lat="42.702511" lon="0.546232">
        <ele>3040.5</ele>
        <time>2019-08-23T09:04:39Z</time>
      </trkpt>
      <trkpt lat="42.702576" lon="0.546225">
        <ele>3035.1</ele>
        <time>2019-08-23T09:05:16Z</time>
      </trkpt>
      <trkpt lat="42.702625" lon="0.546299">
        <ele>3031.4</ele>
        <time>2019-08-23T09:05:46Z</time>
      </trkpt>
      <trkpt lat="42.702679" lon="0.546254">
        <ele>3028.2</ele>
        <time>2019-08-23T09:06:06Z</time>
      </trkpt>
      <trkpt lat="42.702725" lon="0.546269">
        <ele>3023.8</ele>
        <time>2019-08-23T09:06:54Z</time>
      </trkpt>
      <trkpt lat="42.702781" lon="0.546221">
        <ele>3019.8</ele>
        <time>2019-08-23T09:07:26Z</time>
      </trkpt>
      <trkpt lat="42.702839" lon="0.546135">
        <ele>3018.2</ele>
        <time>2019-08-23T09:07:49Z</time>
      </trkpt>
      <trkpt lat="42.702925" lon="0.546041">
        <ele>3009.7</ele>
        <time>2019-08-23T09:09:52Z</time>
      </trkpt>
      <trkpt lat="42.702977" lon="0.545986">
        <ele>3004.4</ele>
        <time>2019-08-23T09:10:22Z</time>
      </trkpt>
      <trkpt lat="42.703012" lon="0.545914">
        <ele>2999.5</ele>
        <time>2019-08-23T09:11:09Z</time>
      </trkpt>
      <trkpt lat="42.703084" lon="0.545919">
        <ele>2997.0</ele>
        <time>2019-08-23T09:11:29Z</time>
      </trkpt>
      <trkpt lat="42.703161" lon="0.545966">
        <ele>2994.8</ele>
        <time>2019-08-23T09:11:47Z</time>
      </trkpt>
      <trkpt lat="42.703211" lon="0.546033">
        <ele>2990.9</ele>
        <time>2019-08-23T09:12:08Z</time>
      </trkpt>
      <trkpt lat="42.703263" lon="0.546091">
        <ele>2988.3</ele>
        <time>2019-08-23T09:12:32Z</time>
      </trkpt>
      <trkpt lat="42.703315" lon="0.546105">
        <ele>2984.3</ele>
        <time>2019-08-23T09:13:26Z</time>
      </trkpt>
      <trkpt lat="42.703356" lon="0.546086">
        <ele>2981.7</ele>
        <time>2019-08-23T09:14:03Z</time>
      </trkpt>
      <trkpt lat="42.703445" lon="0.546123">
        <ele>2978.2</ele>
        <time>2019-08-23T09:14:24Z</time>
      </trkpt>
      <trkpt lat="42.703513" lon="0.546186">
        <ele>2974.2</ele>
        <time>2019-08-23T09:14:50Z</time>
      </trkpt>
      <trkpt lat="42.703614" lon="0.546257">
        <ele>2967.5</ele>
        <time>2019-08-23T09:17:01Z</time>
      </trkpt>
      <trkpt lat="42.703629" lon="0.546293">
        <ele>2963.5</ele>
        <time>2019-08-23T09:19:34Z</time>
      </trkpt>
      <trkpt lat="42.703583" lon="0.546331">
        <ele>2962.9</ele>
        <time>2019-08-23T09:20:56Z</time>
      </trkpt>
      <trkpt lat="42.703504" lon="0.546362">
        <ele>2962.5</ele>
        <time>2019-08-23T09:21:55Z</time>
      </trkpt>
      <trkpt lat="42.703437" lon="0.546418">
        <ele>2960.0</ele>
        <time>2019-08-23T09:22:15Z</time>
      </trkpt>
      <trkpt lat="42.703409" lon="0.546460">
        <ele>2958.4</ele>
        <time>2019-08-23T09:23:11Z</time>
      </trkpt>
      <trkpt lat="42.703400" lon="0.546545">
        <ele>2951.7</ele>
        <time>2019-08-23T09:23:33Z</time>
      </trkpt>
      <trkpt lat="42.703404" lon="0.546598">
        <ele>2950.1</ele>
        <time>2019-08-23T09:23:52Z</time>
      </trkpt>
      <trkpt lat="42.703445" lon="0.546607">
        <ele>2946.9</ele>
        <time>2019-08-23T09:24:21Z</time>
      </trkpt>
      <trkpt lat="42.703506" lon="0.546568">
        <ele>2944.7</ele>
        <time>2019-08-23T09:25:03Z</time>
      </trkpt>
      <trkpt lat="42.703591" lon="0.546608">
        <ele>2942.2</ele>
        <time>2019-08-23T09:25:24Z</time>
      </trkpt>
      <trkpt lat="42.703621" lon="0.546650">
        <ele>2937.3</ele>
        <time>2019-08-23T09:25:53Z</time>
      </trkpt>
      <trkpt lat="42.703671" lon="0.546695">
        <ele>2934.1</ele>
        <time>2019-08-23T09:26:20Z</time>
      </trkpt>
      <trkpt lat="42.703722" lon="0.546737">
        <ele>2930.7</ele>
        <time>2019-08-23T09:26:51Z</time>
      </trkpt>
      <trkpt lat="42.703731" lon="0.546793">
        <ele>2927.7</ele>
        <time>2019-08-23T09:27:23Z</time>
      </trkpt>
      <trkpt lat="42.703705" lon="0.546896">
        <ele>2924.5</ele>
        <time>2019-08-23T09:27:49Z</time>
      </trkpt>
      <trkpt lat="42.703761" lon="0.546960">
        <ele>2920.5</ele>
        <time>2019-08-23T09:28:21Z</time>
      </trkpt>
      <trkpt lat="42.703782" lon="0.547054">
        <ele>2917.7</ele>
        <time>2019-08-23T09:28:45Z</time>
      </trkpt>
      <trkpt lat="42.703831" lon="0.547142">
        <ele>2914.3</ele>
        <time>2019-08-23T09:29:11Z</time>
      </trkpt>
      <trkpt lat="42.703903" lon="0.547203">
        <ele>2913.2</ele>
        <time>2019-08-23T09:29:30Z</time>
      </trkpt>
      <trkpt lat="42.703926" lon="0.547347">
        <ele>2908.4</ele>
        <time>2019-08-23T09:30:12Z</time>
      </trkpt>
      <trkpt lat="42.703909" lon="0.547376">
        <ele>2928.8</ele>
        <time>2019-08-23T09:32:03Z</time>
      </trkpt>
      <trkpt lat="42.703939" lon="0.547447">
        <ele>2905.0</ele>
        <time>2019-08-23T09:32:19Z</time>
      </trkpt>
      <trkpt lat="42.703976" lon="0.547461">
        <ele>2904.1</ele>
        <time>2019-08-23T09:33:20Z</time>
      </trkpt>
      <trkpt lat="42.704033" lon="0.547541">
        <ele>2900.6</ele>
        <time>2019-08-23T09:34:03Z</time>
      </trkpt>
      <trkpt lat="42.704116" lon="0.547592">
        <ele>2899.4</ele>
        <time>2019-08-23T09:34:19Z</time>
      </trkpt>
      <trkpt lat="42.704127" lon="0.547666">
        <ele>2895.3</ele>
        <time>2019-08-23T09:34:46Z</time>
      </trkpt>
      <trkpt lat="42.704202" lon="0.547732">
        <ele>2892.0</ele>
        <time>2019-08-23T09:35:04Z</time>
      </trkpt>
      <trkpt lat="42.704283" lon="0.547791">
        <ele>2888.8</ele>
        <time>2019-08-23T09:35:24Z</time>
      </trkpt>
      <trkpt lat="42.704339" lon="0.547905">
        <ele>2883.2</ele>
        <time>2019-08-23T09:36:02Z</time>
      </trkpt>
      <trkpt lat="42.704396" lon="0.548012">
        <ele>2877.8</ele>
        <time>2019-08-23T09:36:33Z</time>
      </trkpt>
      <trkpt lat="42.704445" lon="0.548106">
        <ele>2873.4</ele>
        <time>2019-08-23T09:36:56Z</time>
      </trkpt>
      <trkpt lat="42.704461" lon="0.548170">
        <ele>2869.5</ele>
        <time>2019-08-23T09:37:23Z</time>
      </trkpt>
      <trkpt lat="42.704500" lon="0.548266">
        <ele>2865.9</ele>
        <time>2019-08-23T09:37:51Z</time>
      </trkpt>
      <trkpt lat="42.704567" lon="0.548337">
        <ele>2862.9</ele>
        <time>2019-08-23T09:38:11Z</time>
      </trkpt>
      <trkpt lat="42.704619" lon="0.548428">
        <ele>2860.2</ele>
        <time>2019-08-23T09:38:31Z</time>
      </trkpt>
      <trkpt lat="42.704622" lon="0.548509">
        <ele>2857.6</ele>
        <time>2019-08-23T09:39:23Z</time>
      </trkpt>
      <trkpt lat="42.704717" lon="0.548544">
        <ele>2858.5</ele>
        <time>2019-08-23T09:39:57Z</time>
      </trkpt>
      <trkpt lat="42.704816" lon="0.548596">
        <ele>2858.1</ele>
        <time>2019-08-23T09:40:11Z</time>
      </trkpt>
      <trkpt lat="42.704900" lon="0.548673">
        <ele>2857.1</ele>
        <time>2019-08-23T09:40:24Z</time>
      </trkpt>
      <trkpt lat="42.704968" lon="0.548760">
        <ele>2856.2</ele>
        <time>2019-08-23T09:40:37Z</time>
      </trkpt>
      <trkpt lat="42.705030" lon="0.548848">
        <ele>2853.7</ele>
        <time>2019-08-23T09:40:57Z</time>
      </trkpt>
      <trkpt lat="42.705111" lon="0.548893">
        <ele>2852.9</ele>
        <time>2019-08-23T09:41:13Z</time>
      </trkpt>
      <trkpt lat="42.705184" lon="0.548959">
        <ele>2852.1</ele>
        <time>2019-08-23T09:41:32Z</time>
      </trkpt>
      <trkpt lat="42.705247" lon="0.549018">
        <ele>2850.2</ele>
        <time>2019-08-23T09:41:50Z</time>
      </trkpt>
      <trkpt lat="42.705321" lon="0.549067">
        <ele>2847.6</ele>
        <time>2019-08-23T09:42:08Z</time>
      </trkpt>
      <trkpt lat="42.705411" lon="0.549123">
        <ele>2848.0</ele>
        <time>2019-08-23T09:42:36Z</time>
      </trkpt>
      <trkpt lat="42.705451" lon="0.549210">
        <ele>2845.8</ele>
        <time>2019-08-23T09:42:59Z</time>
      </trkpt>
      <trkpt lat="42.705443" lon="0.549310">
        <ele>2841.7</ele>
        <time>2019-08-23T09:43:24Z</time>
      </trkpt>
      <trkpt lat="42.705449" lon="0.549391">
        <ele>2837.4</ele>
        <time>2019-08-23T09:43:55Z</time>
      </trkpt>
      <trkpt lat="42.705499" lon="0.549442">
        <ele>2834.4</ele>
        <time>2019-08-23T09:44:32Z</time>
      </trkpt>
      <trkpt lat="42.705570" lon="0.549492">
        <ele>2831.3</ele>
        <time>2019-08-23T09:45:03Z</time>
      </trkpt>
      <trkpt lat="42.705622" lon="0.549582">
        <ele>2828.3</ele>
        <time>2019-08-23T09:45:23Z</time>
      </trkpt>
      <trkpt lat="42.705627" lon="0.549651">
        <ele>2824.5</ele>
        <time>2019-08-23T09:45:55Z</time>
      </trkpt>
      <trkpt lat="42.705661" lon="0.549725">
        <ele>2821.2</ele>
        <time>2019-08-23T09:46:22Z</time>
      </trkpt>
      <trkpt lat="42.705717" lon="0.549800">
        <ele>2818.0</ele>
        <time>2019-08-23T09:46:43Z</time>
      </trkpt>
      <trkpt lat="42.705731" lon="0.549902">
        <ele>2815.1</ele>
        <time>2019-08-23T09:47:07Z</time>
      </trkpt>
      <trkpt lat="42.705720" lon="0.549997">
        <ele>2812.6</ele>
        <time>2019-08-23T09:47:27Z</time>
      </trkpt>
      <trkpt lat="42.705686" lon="0.550083">
        <ele>2810.1</ele>
        <time>2019-08-23T09:47:46Z</time>
      </trkpt>
      <trkpt lat="42.705743" lon="0.550146">
        <ele>2807.4</ele>
        <time>2019-08-23T09:48:06Z</time>
      </trkpt>
      <trkpt lat="42.705825" lon="0.550180">
        <ele>2805.8</ele>
        <time>2019-08-23T09:49:56Z</time>
      </trkpt>
      <trkpt lat="42.705872" lon="0.550171">
        <ele>2801.6</ele>
        <time>2019-08-23T09:50:23Z</time>
      </trkpt>
      <trkpt lat="42.705946" lon="0.550177">
        <ele>2798.2</ele>
        <time>2019-08-23T09:50:43Z</time>
      </trkpt>
      <trkpt lat="42.705996" lon="0.550232">
        <ele>2794.2</ele>
        <time>2019-08-23T09:51:10Z</time>
      </trkpt>
      <trkpt lat="42.706069" lon="0.550246">
        <ele>2791.5</ele>
        <time>2019-08-23T09:51:30Z</time>
      </trkpt>
      <trkpt lat="42.706127" lon="0.550305">
        <ele>2788.4</ele>
        <time>2019-08-23T09:51:52Z</time>
      </trkpt>
      <trkpt lat="42.706191" lon="0.550384">
        <ele>2785.7</ele>
        <time>2019-08-23T09:52:19Z</time>
      </trkpt>
      <trkpt lat="42.706245" lon="0.550446">
        <ele>2783.1</ele>
        <time>2019-08-23T09:52:51Z</time>
      </trkpt>
      <trkpt lat="42.706320" lon="0.550496">
        <ele>2781.8</ele>
        <time>2019-08-23T09:53:13Z</time>
      </trkpt>
      <trkpt lat="42.706391" lon="0.550526">
        <ele>2779.3</ele>
        <time>2019-08-23T09:53:34Z</time>
      </trkpt>
      <trkpt lat="42.706455" lon="0.550582">
        <ele>2777.1</ele>
        <time>2019-08-23T09:53:59Z</time>
      </trkpt>
      <trkpt lat="42.706523" lon="0.550612">
        <ele>2773.8</ele>
        <time>2019-08-23T09:54:34Z</time>
      </trkpt>
      <trkpt lat="42.706598" lon="0.550595">
        <ele>2770.4</ele>
        <time>2019-08-23T09:54:56Z</time>
      </trkpt>
      <trkpt lat="42.706659" lon="0.550606">
        <ele>2767.6</ele>
        <time>2019-08-23T09:55:17Z</time>
      </trkpt>
      <trkpt lat="42.706737" lon="0.550640">
        <ele>2766.0</ele>
        <time>2019-08-23T09:55:29Z</time>
      </trkpt>
      <trkpt lat="42.706820" lon="0.550659">
        <ele>2763.6</ele>
        <time>2019-08-23T09:55:49Z</time>
      </trkpt>
      <trkpt lat="42.706926" lon="0.550697">
        <ele>2761.1</ele>
        <time>2019-08-23T09:56:10Z</time>
      </trkpt>
      <trkpt lat="42.707012" lon="0.550752">
        <ele>2758.1</ele>
        <time>2019-08-23T09:56:43Z</time>
      </trkpt>
      <trkpt lat="42.707084" lon="0.550820">
        <ele>2755.6</ele>
        <time>2019-08-23T09:57:01Z</time>
      </trkpt>
      <trkpt lat="42.707165" lon="0.550863">
        <ele>2752.8</ele>
        <time>2019-08-23T09:57:20Z</time>
      </trkpt>
      <trkpt lat="42.707235" lon="0.550829">
        <ele>2749.9</ele>
        <time>2019-08-23T09:57:56Z</time>
      </trkpt>
      <trkpt lat="42.707294" lon="0.550891">
        <ele>2746.3</ele>
        <time>2019-08-23T09:58:15Z</time>
      </trkpt>
      <trkpt lat="42.707364" lon="0.550811">
        <ele>2743.8</ele>
        <time>2019-08-23T09:58:33Z</time>
      </trkpt>
      <trkpt lat="42.707439" lon="0.550855">
        <ele>2740.2</ele>
        <time>2019-08-23T09:58:55Z</time>
      </trkpt>
      <trkpt lat="42.707493" lon="0.550949">
        <ele>2736.4</ele>
        <time>2019-08-23T09:59:14Z</time>
      </trkpt>
      <trkpt lat="42.707536" lon="0.550972">
        <ele>2732.1</ele>
        <time>2019-08-23T09:59:38Z</time>
      </trkpt>
      <trkpt lat="42.707583" lon="0.550928">
        <ele>2729.0</ele>
        <time>2019-08-23T09:59:58Z</time>
      </trkpt>
      <trkpt lat="42.707656" lon="0.550911">
        <ele>2725.6</ele>
        <time>2019-08-23T10:00:21Z</time>
      </trkpt>
      <trkpt lat="42.707680" lon="0.551007">
        <ele>2721.1</ele>
        <time>2019-08-23T10:00:49Z</time>
      </trkpt>
      <trkpt lat="42.707751" lon="0.551032">
        <ele>2716.8</ele>
        <time>2019-08-23T10:01:13Z</time>
      </trkpt>
      <trkpt lat="42.707815" lon="0.550991">
        <ele>2714.7</ele>
        <time>2019-08-23T10:01:30Z</time>
      </trkpt>
      <trkpt lat="42.707848" lon="0.550966">
        <ele>2711.3</ele>
        <time>2019-08-23T10:01:54Z</time>
      </trkpt>
      <trkpt lat="42.707883" lon="0.550944">
        <ele>2708.3</ele>
        <time>2019-08-23T10:02:37Z</time>
      </trkpt>
      <trkpt lat="42.707939" lon="0.550926">
        <ele>2703.2</ele>
        <time>2019-08-23T10:03:13Z</time>
      </trkpt>
      <trkpt lat="42.708000" lon="0.550898">
        <ele>2698.7</ele>
        <time>2019-08-23T10:03:46Z</time>
      </trkpt>
      <trkpt lat="42.708081" lon="0.550932">
        <ele>2695.3</ele>
        <time>2019-08-23T10:04:08Z</time>
      </trkpt>
      <trkpt lat="42.708109" lon="0.550896">
        <ele>2692.3</ele>
        <time>2019-08-23T10:04:37Z</time>
      </trkpt>
      <trkpt lat="42.708168" lon="0.550962">
        <ele>2688.5</ele>
        <time>2019-08-23T10:05:04Z</time>
      </trkpt>
      <trkpt lat="42.708215" lon="0.550988">
        <ele>2685.4</ele>
        <time>2019-08-23T10:05:34Z</time>
      </trkpt>
      <trkpt lat="42.708285" lon="0.550989">
        <ele>2681.2</ele>
        <time>2019-08-23T10:05:58Z</time>
      </trkpt>
      <trkpt lat="42.708334" lon="0.551027">
        <ele>2677.1</ele>
        <time>2019-08-23T10:06:21Z</time>
      </trkpt>
      <trkpt lat="42.708401" lon="0.551045">
        <ele>2673.4</ele>
        <time>2019-08-23T10:06:44Z</time>
      </trkpt>
      <trkpt lat="42.708483" lon="0.551012">
        <ele>2668.4</ele>
        <time>2019-08-23T10:07:25Z</time>
      </trkpt>
      <trkpt lat="42.708532" lon="0.551015">
        <ele>2663.1</ele>
        <time>2019-08-23T10:08:00Z</time>
      </trkpt>
      <trkpt lat="42.708610" lon="0.551031">
        <ele>2658.8</ele>
        <time>2019-08-23T10:08:27Z</time>
      </trkpt>
      <trkpt lat="42.708654" lon="0.551043">
        <ele>2655.7</ele>
        <time>2019-08-23T10:08:56Z</time>
      </trkpt>
      <trkpt lat="42.708740" lon="0.551081">
        <ele>2651.0</ele>
        <time>2019-08-23T10:09:22Z</time>
      </trkpt>
      <trkpt lat="42.708783" lon="0.551022">
        <ele>2648.4</ele>
        <time>2019-08-23T10:09:45Z</time>
      </trkpt>
      <trkpt lat="42.708915" lon="0.551009">
        <ele>2643.0</ele>
        <time>2019-08-23T10:10:25Z</time>
      </trkpt>
      <trkpt lat="42.709014" lon="0.551028">
        <ele>2642.5</ele>
        <time>2019-08-23T10:10:46Z</time>
      </trkpt>
      <trkpt lat="42.709093" lon="0.551074">
        <ele>2642.4</ele>
        <time>2019-08-23T10:10:57Z</time>
      </trkpt>
      <trkpt lat="42.709219" lon="0.551070">
        <ele>2641.5</ele>
        <time>2019-08-23T10:11:13Z</time>
      </trkpt>
      <trkpt lat="42.709334" lon="0.551026">
        <ele>2640.8</ele>
        <time>2019-08-23T10:11:28Z</time>
      </trkpt>
      <trkpt lat="42.709397" lon="0.550969">
        <ele>2639.4</ele>
        <time>2019-08-23T10:11:42Z</time>
      </trkpt>
      <trkpt lat="42.709451" lon="0.550844">
        <ele>2638.4</ele>
        <time>2019-08-23T10:11:55Z</time>
      </trkpt>
      <trkpt lat="42.709524" lon="0.550755">
        <ele>2636.1</ele>
        <time>2019-08-23T10:12:11Z</time>
      </trkpt>
      <trkpt lat="42.709593" lon="0.550776">
        <ele>2633.4</ele>
        <time>2019-08-23T10:12:27Z</time>
      </trkpt>
      <trkpt lat="42.709666" lon="0.550760">
        <ele>2630.1</ele>
        <time>2019-08-23T10:12:42Z</time>
      </trkpt>
      <trkpt lat="42.709731" lon="0.550812">
        <ele>2627.2</ele>
        <time>2019-08-23T10:12:58Z</time>
      </trkpt>
      <trkpt lat="42.709773" lon="0.550763">
        <ele>2624.2</ele>
        <time>2019-08-23T10:13:19Z</time>
      </trkpt>
      <trkpt lat="42.709856" lon="0.550692">
        <ele>2616.9</ele>
        <time>2019-08-23T10:13:59Z</time>
      </trkpt>
      <trkpt lat="42.709946" lon="0.550659">
        <ele>2614.1</ele>
        <time>2019-08-23T10:14:14Z</time>
      </trkpt>
      <trkpt lat="42.710031" lon="0.550680">
        <ele>2611.3</ele>
        <time>2019-08-23T10:14:36Z</time>
      </trkpt>
      <trkpt lat="42.710136" lon="0.550762">
        <ele>2610.8</ele>
        <time>2019-08-23T10:14:49Z</time>
      </trkpt>
      <trkpt lat="42.710226" lon="0.550711">
        <ele>2609.2</ele>
        <time>2019-08-23T10:15:01Z</time>
      </trkpt>
      <trkpt lat="42.710313" lon="0.550644">
        <ele>2608.9</ele>
        <time>2019-08-23T10:15:13Z</time>
      </trkpt>
      <trkpt lat="42.710398" lon="0.550659">
        <ele>2608.2</ele>
        <time>2019-08-23T10:15:24Z</time>
      </trkpt>
      <trkpt lat="42.710489" lon="0.550623">
        <ele>2606.9</ele>
        <time>2019-08-23T10:15:38Z</time>
      </trkpt>
      <trkpt lat="42.710554" lon="0.550504">
        <ele>2605.3</ele>
        <time>2019-08-23T10:15:56Z</time>
      </trkpt>
      <trkpt lat="42.710623" lon="0.550414">
        <ele>2604.9</ele>
        <time>2019-08-23T10:16:08Z</time>
      </trkpt>
      <trkpt lat="42.710684" lon="0.550388">
        <ele>2605.8</ele>
        <time>2019-08-23T10:16:55Z</time>
      </trkpt>
      <trkpt lat="42.710774" lon="0.550455">
        <ele>2604.3</ele>
        <time>2019-08-23T10:17:10Z</time>
      </trkpt>
      <trkpt lat="42.710842" lon="0.550430">
        <ele>2601.6</ele>
        <time>2019-08-23T10:17:24Z</time>
      </trkpt>
      <trkpt lat="42.710921" lon="0.550468">
        <ele>2600.1</ele>
        <time>2019-08-23T10:17:44Z</time>
      </trkpt>
      <trkpt lat="42.711031" lon="0.550511">
        <ele>2599.1</ele>
        <time>2019-08-23T10:18:44Z</time>
      </trkpt>
      <trkpt lat="42.711073" lon="0.550636">
        <ele>2597.3</ele>
        <time>2019-08-23T10:18:55Z</time>
      </trkpt>
      <trkpt lat="42.711128" lon="0.550748">
        <ele>2595.7</ele>
        <time>2019-08-23T10:19:09Z</time>
      </trkpt>
      <trkpt lat="42.711205" lon="0.550808">
        <ele>2594.9</ele>
        <time>2019-08-23T10:19:21Z</time>
      </trkpt>
      <trkpt lat="42.711269" lon="0.550895">
        <ele>2593.0</ele>
        <time>2019-08-23T10:19:36Z</time>
      </trkpt>
      <trkpt lat="42.711350" lon="0.550969">
        <ele>2590.0</ele>
        <time>2019-08-23T10:19:53Z</time>
      </trkpt>
      <trkpt lat="42.711439" lon="0.551013">
        <ele>2588.3</ele>
        <time>2019-08-23T10:20:07Z</time>
      </trkpt>
      <trkpt lat="42.711469" lon="0.551073">
        <ele>2586.4</ele>
        <time>2019-08-23T10:20:30Z</time>
      </trkpt>
      <trkpt lat="42.711418" lon="0.551151">
        <ele>2585.2</ele>
        <time>2019-08-23T10:21:36Z</time>
      </trkpt>
      <trkpt lat="42.711402" lon="0.551212">
        <ele>2584.0</ele>
        <time>2019-08-23T10:21:53Z</time>
      </trkpt>
      <trkpt lat="42.711453" lon="0.551273">
        <ele>2580.6</ele>
        <time>2019-08-23T10:22:14Z</time>
      </trkpt>
      <trkpt lat="42.711494" lon="0.551370">
        <ele>2577.9</ele>
        <time>2019-08-23T10:22:30Z</time>
      </trkpt>
      <trkpt lat="42.711568" lon="0.551457">
        <ele>2575.8</ele>
        <time>2019-08-23T10:22:46Z</time>
      </trkpt>
      <trkpt lat="42.711659" lon="0.551484">
        <ele>2574.5</ele>
        <time>2019-08-23T10:22:59Z</time>
      </trkpt>
      <trkpt lat="42.711732" lon="0.551528">
        <ele>2572.6</ele>
        <time>2019-08-23T10:23:17Z</time>
      </trkpt>
      <trkpt lat="42.711783" lon="0.551622">
        <ele>2570.5</ele>
        <time>2019-08-23T10:23:33Z</time>
      </trkpt>
      <trkpt lat="42.711858" lon="0.551710">
        <ele>2568.6</ele>
        <time>2019-08-23T10:23:49Z</time>
      </trkpt>
      <trkpt lat="42.711947" lon="0.551733">
        <ele>2565.8</ele>
        <time>2019-08-23T10:24:07Z</time>
      </trkpt>
      <trkpt lat="42.712021" lon="0.551747">
        <ele>2563.6</ele>
        <time>2019-08-23T10:24:36Z</time>
      </trkpt>
      <trkpt lat="42.712095" lon="0.551806">
        <ele>2561.4</ele>
        <time>2019-08-23T10:24:50Z</time>
      </trkpt>
      <trkpt lat="42.712146" lon="0.551737">
        <ele>2559.5</ele>
        <time>2019-08-23T10:25:03Z</time>
      </trkpt>
      <trkpt lat="42.712206" lon="0.551690">
        <ele>2556.0</ele>
        <time>2019-08-23T10:25:21Z</time>
      </trkpt>
      <trkpt lat="42.712270" lon="0.551664">
        <ele>2553.3</ele>
        <time>2019-08-23T10:25:37Z</time>
      </trkpt>
      <trkpt lat="42.712326" lon="0.551659">
        <ele>2549.4</ele>
        <time>2019-08-23T10:25:55Z</time>
      </trkpt>
      <trkpt lat="42.712377" lon="0.551618">
        <ele>2545.8</ele>
        <time>2019-08-23T10:26:12Z</time>
      </trkpt>
      <trkpt lat="42.712424" lon="0.551647">
        <ele>2543.1</ele>
        <time>2019-08-23T10:26:27Z</time>
      </trkpt>
      <trkpt lat="42.712493" lon="0.551667">
        <ele>2539.8</ele>
        <time>2019-08-23T10:26:48Z</time>
      </trkpt>
      <trkpt lat="42.712539" lon="0.551638">
        <ele>2537.5</ele>
        <time>2019-08-23T10:28:04Z</time>
      </trkpt>
      <trkpt lat="42.712600" lon="0.551597">
        <ele>2535.0</ele>
        <time>2019-08-23T10:28:24Z</time>
      </trkpt>
      <trkpt lat="42.712641" lon="0.551632">
        <ele>2532.9</ele>
        <time>2019-08-23T10:28:37Z</time>
      </trkpt>
      <trkpt lat="42.712714" lon="0.551616">
        <ele>2528.9</ele>
        <time>2019-08-23T10:29:00Z</time>
      </trkpt>
      <trkpt lat="42.712793" lon="0.551581">
        <ele>2524.7</ele>
        <time>2019-08-23T10:29:19Z</time>
      </trkpt>
      <trkpt lat="42.712864" lon="0.551545">
        <ele>2519.4</ele>
        <time>2019-08-23T10:29:41Z</time>
      </trkpt>
      <trkpt lat="42.712940" lon="0.551492">
        <ele>2514.7</ele>
        <time>2019-08-23T10:30:02Z</time>
      </trkpt>
      <trkpt lat="42.712948" lon="0.551370">
        <ele>2511.5</ele>
        <time>2019-08-23T10:30:20Z</time>
      </trkpt>
      <trkpt lat="42.712971" lon="0.551285">
        <ele>2510.2</ele>
        <time>2019-08-23T10:30:46Z</time>
      </trkpt>
      <trkpt lat="42.713004" lon="0.551206">
        <ele>2506.4</ele>
        <time>2019-08-23T10:31:08Z</time>
      </trkpt>
      <trkpt lat="42.713051" lon="0.551101">
        <ele>2503.0</ele>
        <time>2019-08-23T10:31:27Z</time>
      </trkpt>
      <trkpt lat="42.713065" lon="0.550985">
        <ele>2500.1</ele>
        <time>2019-08-23T10:31:42Z</time>
      </trkpt>
      <trkpt lat="42.713063" lon="0.550865">
        <ele>2498.6</ele>
        <time>2019-08-23T10:31:55Z</time>
      </trkpt>
      <trkpt lat="42.713081" lon="0.550776">
        <ele>2496.4</ele>
        <time>2019-08-23T10:32:28Z</time>
      </trkpt>
      <trkpt lat="42.713112" lon="0.550806">
        <ele>2494.0</ele>
        <time>2019-08-23T10:32:48Z</time>
      </trkpt>
      <trkpt lat="42.713144" lon="0.550809">
        <ele>2491.3</ele>
        <time>2019-08-23T10:33:18Z</time>
      </trkpt>
      <trkpt lat="42.713182" lon="0.550929">
        <ele>2490.3</ele>
        <time>2019-08-23T10:33:37Z</time>
      </trkpt>
      <trkpt lat="42.713212" lon="0.551063">
        <ele>2489.4</ele>
        <time>2019-08-23T10:33:49Z</time>
      </trkpt>
      <trkpt lat="42.713289" lon="0.551155">
        <ele>2488.4</ele>
        <time>2019-08-23T10:34:02Z</time>
      </trkpt>
      <trkpt lat="42.713351" lon="0.551251">
        <ele>2487.0</ele>
        <time>2019-08-23T10:34:16Z</time>
      </trkpt>
      <trkpt lat="42.713442" lon="0.551329">
        <ele>2485.1</ele>
        <time>2019-08-23T10:34:31Z</time>
      </trkpt>
      <trkpt lat="42.713492" lon="0.551448">
        <ele>2483.4</ele>
        <time>2019-08-23T10:34:45Z</time>
      </trkpt>
      <trkpt lat="42.713541" lon="0.551557">
        <ele>2481.9</ele>
        <time>2019-08-23T10:34:58Z</time>
      </trkpt>
      <trkpt lat="42.713566" lon="0.551670">
        <ele>2480.6</ele>
        <time>2019-08-23T10:35:14Z</time>
      </trkpt>
      <trkpt lat="42.713656" lon="0.551669">
        <ele>2478.4</ele>
        <time>2019-08-23T10:35:29Z</time>
      </trkpt>
      <trkpt lat="42.713767" lon="0.551666">
        <ele>2477.0</ele>
        <time>2019-08-23T10:35:42Z</time>
      </trkpt>
      <trkpt lat="42.713799" lon="0.551558">
        <ele>2476.9</ele>
        <time>2019-08-23T10:35:56Z</time>
      </trkpt>
      <trkpt lat="42.713821" lon="0.551423">
        <ele>2475.9</ele>
        <time>2019-08-23T10:36:09Z</time>
      </trkpt>
      <trkpt lat="42.713840" lon="0.551284">
        <ele>2475.2</ele>
        <time>2019-08-23T10:36:21Z</time>
      </trkpt>
      <trkpt lat="42.713894" lon="0.551173">
        <ele>2474.2</ele>
        <time>2019-08-23T10:36:33Z</time>
      </trkpt>
      <trkpt lat="42.713982" lon="0.551119">
        <ele>2472.8</ele>
        <time>2019-08-23T10:36:57Z</time>
      </trkpt>
      <trkpt lat="42.714062" lon="0.551005">
        <ele>2471.9</ele>
        <time>2019-08-23T10:37:22Z</time>
      </trkpt>
      <trkpt lat="42.714079" lon="0.550873">
        <ele>2472.0</ele>
        <time>2019-08-23T10:37:36Z</time>
      </trkpt>
      <trkpt lat="42.714078" lon="0.550761">
        <ele>2471.6</ele>
        <time>2019-08-23T10:37:54Z</time>
      </trkpt>
      <trkpt lat="42.714087" lon="0.550647">
        <ele>2469.4</ele>
        <time>2019-08-23T10:38:10Z</time>
      </trkpt>
      <trkpt lat="42.714122" lon="0.550592">
        <ele>2468.0</ele>
        <time>2019-08-23T10:38:36Z</time>
      </trkpt>
      <trkpt lat="42.714174" lon="0.550514">
        <ele>2465.5</ele>
        <time>2019-08-23T10:38:54Z</time>
      </trkpt>
      <trkpt lat="42.714293" lon="0.550522">
        <ele>2463.0</ele>
        <time>2019-08-23T10:39:10Z</time>
      </trkpt>
      <trkpt lat="42.714311" lon="0.550385">
        <ele>2461.8</ele>
        <time>2019-08-23T10:39:23Z</time>
      </trkpt>
      <trkpt lat="42.714255" lon="0.550316">
        <ele>2460.0</ele>
        <time>2019-08-23T10:39:42Z</time>
      </trkpt>
      <trkpt lat="42.714191" lon="0.550259">
        <ele>2456.7</ele>
        <time>2019-08-23T10:40:05Z</time>
      </trkpt>
      <trkpt lat="42.714169" lon="0.550148">
        <ele>2454.1</ele>
        <time>2019-08-23T10:40:56Z</time>
      </trkpt>
      <trkpt lat="42.714123" lon="0.550065">
        <ele>2450.3</ele>
        <time>2019-08-23T10:41:16Z</time>
      </trkpt>
      <trkpt lat="42.714194" lon="0.550009">
        <ele>2447.4</ele>
        <time>2019-08-23T10:41:35Z</time>
      </trkpt>
      <trkpt lat="42.714266" lon="0.549938">
        <ele>2444.8</ele>
        <time>2019-08-23T10:41:47Z</time>
      </trkpt>
      <trkpt lat="42.714329" lon="0.549861">
        <ele>2443.9</ele>
        <time>2019-08-23T10:42:01Z</time>
      </trkpt>
      <trkpt lat="42.714353" lon="0.549763">
        <ele>2443.4</ele>
        <time>2019-08-23T10:42:18Z</time>
      </trkpt>
      <trkpt lat="42.714394" lon="0.549640">
        <ele>2442.3</ele>
        <time>2019-08-23T10:42:32Z</time>
      </trkpt>
      <trkpt lat="42.714443" lon="0.549527">
        <ele>2440.9</ele>
        <time>2019-08-23T10:42:44Z</time>
      </trkpt>
      <trkpt lat="42.714518" lon="0.549470">
        <ele>2439.6</ele>
        <time>2019-08-23T10:42:53Z</time>
      </trkpt>
      <trkpt lat="42.714579" lon="0.549384">
        <ele>2438.9</ele>
        <time>2019-08-23T10:43:02Z</time>
      </trkpt>
      <trkpt lat="42.714650" lon="0.549311">
        <ele>2437.9</ele>
        <time>2019-08-23T10:43:17Z</time>
      </trkpt>
      <trkpt lat="42.714656" lon="0.549278">
        <ele>2435.1</ele>
        <time>2019-08-23T10:47:47Z</time>
      </trkpt>
      <trkpt lat="42.714689" lon="0.549191">
        <ele>2435.4</ele>
        <time>2019-08-23T10:48:11Z</time>
      </trkpt>
      <trkpt lat="42.714758" lon="0.549091">
        <ele>2433.8</ele>
        <time>2019-08-23T10:48:25Z</time>
      </trkpt>
      <trkpt lat="42.714844" lon="0.549065">
        <ele>2433.3</ele>
        <time>2019-08-23T10:48:38Z</time>
      </trkpt>
      <trkpt lat="42.714865" lon="0.549107">
        <ele>2429.0</ele>
        <time>2019-08-23T11:13:03Z</time>
      </trkpt>
      <trkpt lat="42.714845" lon="0.549169">
        <ele>2428.7</ele>
        <time>2019-08-23T11:15:45Z</time>
      </trkpt>
      <trkpt lat="42.714829" lon="0.549284">
        <ele>2427.3</ele>
        <time>2019-08-23T11:16:21Z</time>
      </trkpt>
      <trkpt lat="42.714842" lon="0.549406">
        <ele>2424.8</ele>
        <time>2019-08-23T11:16:30Z</time>
      </trkpt>
      <trkpt lat="42.714849" lon="0.549542">
        <ele>2423.0</ele>
        <time>2019-08-23T11:16:40Z</time>
      </trkpt>
      <trkpt lat="42.714922" lon="0.549622">
        <ele>2422.4</ele>
        <time>2019-08-23T11:16:47Z</time>
      </trkpt>
      <trkpt lat="42.714997" lon="0.549692">
        <ele>2421.4</ele>
        <time>2019-08-23T11:16:55Z</time>
      </trkpt>
      <trkpt lat="42.715061" lon="0.549795">
        <ele>2420.4</ele>
        <time>2019-08-23T11:17:04Z</time>
      </trkpt>
      <trkpt lat="42.715071" lon="0.549927">
        <ele>2420.4</ele>
        <time>2019-08-23T11:17:14Z</time>
      </trkpt>
      <trkpt lat="42.715107" lon="0.550044">
        <ele>2420.4</ele>
        <time>2019-08-23T11:17:23Z</time>
      </trkpt>
      <trkpt lat="42.715188" lon="0.550115">
        <ele>2419.1</ele>
        <time>2019-08-23T11:17:33Z</time>
      </trkpt>
      <trkpt lat="42.715274" lon="0.550175">
        <ele>2418.4</ele>
        <time>2019-08-23T11:17:42Z</time>
      </trkpt>
      <trkpt lat="42.715330" lon="0.550271">
        <ele>2418.6</ele>
        <time>2019-08-23T11:17:51Z</time>
      </trkpt>
      <trkpt lat="42.715359" lon="0.550405">
        <ele>2420.1</ele>
        <time>2019-08-23T11:18:03Z</time>
      </trkpt>
      <trkpt lat="42.715405" lon="0.550489">
        <ele>2418.4</ele>
        <time>2019-08-23T11:18:47Z</time>
      </trkpt>
      <trkpt lat="42.715429" lon="0.550607">
        <ele>2421.0</ele>
        <time>2019-08-23T11:19:06Z</time>
      </trkpt>
      <trkpt lat="42.715511" lon="0.550651">
        <ele>2420.9</ele>
        <time>2019-08-23T11:19:19Z</time>
      </trkpt>
      <trkpt lat="42.715582" lon="0.550734">
        <ele>2419.1</ele>
        <time>2019-08-23T11:19:28Z</time>
      </trkpt>
      <trkpt lat="42.715631" lon="0.550825">
        <ele>2418.1</ele>
        <time>2019-08-23T11:19:37Z</time>
      </trkpt>
      <trkpt lat="42.715687" lon="0.550946">
        <ele>2417.8</ele>
        <time>2019-08-23T11:19:47Z</time>
      </trkpt>
      <trkpt lat="42.715730" lon="0.551090">
        <ele>2416.3</ele>
        <time>2019-08-23T11:19:58Z</time>
      </trkpt>
      <trkpt lat="42.715747" lon="0.551228">
        <ele>2414.7</ele>
        <time>2019-08-23T11:20:09Z</time>
      </trkpt>
      <trkpt lat="42.715713" lon="0.551335">
        <ele>2412.0</ele>
        <time>2019-08-23T11:20:23Z</time>
      </trkpt>
      <trkpt lat="42.715769" lon="0.551408">
        <ele>2409.8</ele>
        <time>2019-08-23T11:20:33Z</time>
      </trkpt>
      <trkpt lat="42.715862" lon="0.551386">
        <ele>2408.2</ele>
        <time>2019-08-23T11:20:42Z</time>
      </trkpt>
      <trkpt lat="42.715952" lon="0.551368">
        <ele>2406.7</ele>
        <time>2019-08-23T11:20:51Z</time>
      </trkpt>
      <trkpt lat="42.716049" lon="0.551359">
        <ele>2404.8</ele>
        <time>2019-08-23T11:21:01Z</time>
      </trkpt>
      <trkpt lat="42.716020" lon="0.551445">
        <ele>2402.3</ele>
        <time>2019-08-23T11:21:11Z</time>
      </trkpt>
      <trkpt lat="42.715963" lon="0.551557">
        <ele>2398.8</ele>
        <time>2019-08-23T11:21:25Z</time>
      </trkpt>
      <trkpt lat="42.715883" lon="0.551602">
        <ele>2396.6</ele>
        <time>2019-08-23T11:21:32Z</time>
      </trkpt>
      <trkpt lat="42.715800" lon="0.551636">
        <ele>2393.9</ele>
        <time>2019-08-23T11:21:41Z</time>
      </trkpt>
      <trkpt lat="42.715717" lon="0.551666">
        <ele>2392.5</ele>
        <time>2019-08-23T11:21:49Z</time>
      </trkpt>
      <trkpt lat="42.715802" lon="0.551760">
        <ele>2390.5</ele>
        <time>2019-08-23T11:22:00Z</time>
      </trkpt>
      <trkpt lat="42.715820" lon="0.551875">
        <ele>2388.1</ele>
        <time>2019-08-23T11:22:09Z</time>
      </trkpt>
      <trkpt lat="42.715836" lon="0.551994">
        <ele>2385.4</ele>
        <time>2019-08-23T11:22:19Z</time>
      </trkpt>
      <trkpt lat="42.715866" lon="0.552016">
        <ele>2382.5</ele>
        <time>2019-08-23T11:22:31Z</time>
      </trkpt>
      <trkpt lat="42.715854" lon="0.552124">
        <ele>2379.9</ele>
        <time>2019-08-23T11:22:45Z</time>
      </trkpt>
      <trkpt lat="42.715828" lon="0.552255">
        <ele>2377.1</ele>
        <time>2019-08-23T11:22:54Z</time>
      </trkpt>
      <trkpt lat="42.715906" lon="0.552242">
        <ele>2374.8</ele>
        <time>2019-08-23T11:23:04Z</time>
      </trkpt>
      <trkpt lat="42.715982" lon="0.552166">
        <ele>2372.4</ele>
        <time>2019-08-23T11:23:14Z</time>
      </trkpt>
      <trkpt lat="42.716071" lon="0.552085">
        <ele>2370.0</ele>
        <time>2019-08-23T11:23:25Z</time>
      </trkpt>
      <trkpt lat="42.716068" lon="0.552173">
        <ele>2367.4</ele>
        <time>2019-08-23T11:23:36Z</time>
      </trkpt>
      <trkpt lat="42.716054" lon="0.552294">
        <ele>2364.1</ele>
        <time>2019-08-23T11:23:48Z</time>
      </trkpt>
      <trkpt lat="42.715999" lon="0.552418">
        <ele>2362.2</ele>
        <time>2019-08-23T11:23:57Z</time>
      </trkpt>
      <trkpt lat="42.716057" lon="0.552424">
        <ele>2359.6</ele>
        <time>2019-08-23T11:24:07Z</time>
      </trkpt>
      <trkpt lat="42.716144" lon="0.552409">
        <ele>2357.2</ele>
        <time>2019-08-23T11:24:30Z</time>
      </trkpt>
      <trkpt lat="42.716217" lon="0.552353">
        <ele>2355.5</ele>
        <time>2019-08-23T11:24:40Z</time>
      </trkpt>
      <trkpt lat="42.716261" lon="0.552235">
        <ele>2353.3</ele>
        <time>2019-08-23T11:24:49Z</time>
      </trkpt>
      <trkpt lat="42.716303" lon="0.552112">
        <ele>2349.4</ele>
        <time>2019-08-23T11:25:02Z</time>
      </trkpt>
      <trkpt lat="42.716388" lon="0.552017">
        <ele>2347.0</ele>
        <time>2019-08-23T11:25:11Z</time>
      </trkpt>
      <trkpt lat="42.716431" lon="0.551901">
        <ele>2344.6</ele>
        <time>2019-08-23T11:25:19Z</time>
      </trkpt>
      <trkpt lat="42.716481" lon="0.551958">
        <ele>2341.8</ele>
        <time>2019-08-23T11:25:27Z</time>
      </trkpt>
      <trkpt lat="42.716498" lon="0.552093">
        <ele>2339.5</ele>
        <time>2019-08-23T11:25:35Z</time>
      </trkpt>
      <trkpt lat="42.716503" lon="0.552215">
        <ele>2337.1</ele>
        <time>2019-08-23T11:25:43Z</time>
      </trkpt>
      <trkpt lat="42.716521" lon="0.552179">
        <ele>2334.4</ele>
        <time>2019-08-23T11:26:16Z</time>
      </trkpt>
      <trkpt lat="42.716577" lon="0.552075">
        <ele>2333.2</ele>
        <time>2019-08-23T11:26:26Z</time>
      </trkpt>
      <trkpt lat="42.716631" lon="0.551967">
        <ele>2331.4</ele>
        <time>2019-08-23T11:26:35Z</time>
      </trkpt>
      <trkpt lat="42.716706" lon="0.551865">
        <ele>2328.7</ele>
        <time>2019-08-23T11:26:45Z</time>
      </trkpt>
      <trkpt lat="42.716737" lon="0.551972">
        <ele>2324.9</ele>
        <time>2019-08-23T11:26:58Z</time>
      </trkpt>
      <trkpt lat="42.716769" lon="0.552112">
        <ele>2320.9</ele>
        <time>2019-08-23T11:27:10Z</time>
      </trkpt>
      <trkpt lat="42.716845" lon="0.552089">
        <ele>2318.0</ele>
        <time>2019-08-23T11:27:22Z</time>
      </trkpt>
      <trkpt lat="42.716888" lon="0.552179">
        <ele>2314.6</ele>
        <time>2019-08-23T11:27:41Z</time>
      </trkpt>
      <trkpt lat="42.716895" lon="0.552080">
        <ele>2314.4</ele>
        <time>2019-08-23T11:28:24Z</time>
      </trkpt>
      <trkpt lat="42.716951" lon="0.551985">
        <ele>2314.2</ele>
        <time>2019-08-23T11:28:37Z</time>
      </trkpt>
      <trkpt lat="42.717024" lon="0.551898">
        <ele>2312.9</ele>
        <time>2019-08-23T11:28:46Z</time>
      </trkpt>
      <trkpt lat="42.717102" lon="0.551834">
        <ele>2309.5</ele>
        <time>2019-08-23T11:29:00Z</time>
      </trkpt>
      <trkpt lat="42.717106" lon="0.551859">
        <ele>2306.4</ele>
        <time>2019-08-23T11:29:15Z</time>
      </trkpt>
      <trkpt lat="42.717181" lon="0.551849">
        <ele>2303.0</ele>
        <time>2019-08-23T11:29:30Z</time>
      </trkpt>
      <trkpt lat="42.717242" lon="0.551940">
        <ele>2299.6</ele>
        <time>2019-08-23T11:29:42Z</time>
      </trkpt>
      <trkpt lat="42.717226" lon="0.552090">
        <ele>2296.7</ele>
        <time>2019-08-23T11:29:55Z</time>
      </trkpt>
      <trkpt lat="42.717195" lon="0.552201">
        <ele>2295.6</ele>
        <time>2019-08-23T11:30:04Z</time>
      </trkpt>
      <trkpt lat="42.717161" lon="0.552320">
        <ele>2295.3</ele>
        <time>2019-08-23T11:30:12Z</time>
      </trkpt>
      <trkpt lat="42.717144" lon="0.552448">
        <ele>2294.3</ele>
        <time>2019-08-23T11:30:20Z</time>
      </trkpt>
      <trkpt lat="42.717148" lon="0.552585">
        <ele>2293.1</ele>
        <time>2019-08-23T11:30:28Z</time>
      </trkpt>
      <trkpt lat="42.717190" lon="0.552696">
        <ele>2291.8</ele>
        <time>2019-08-23T11:30:36Z</time>
      </trkpt>
      <trkpt lat="42.717248" lon="0.552786">
        <ele>2289.9</ele>
        <time>2019-08-23T11:30:44Z</time>
      </trkpt>
      <trkpt lat="42.717277" lon="0.552905">
        <ele>2288.1</ele>
        <time>2019-08-23T11:30:53Z</time>
      </trkpt>
      <trkpt lat="42.717320" lon="0.552977">
        <ele>2285.3</ele>
        <time>2019-08-23T11:31:05Z</time>
      </trkpt>
      <trkpt lat="42.717381" lon="0.552909">
        <ele>2282.9</ele>
        <time>2019-08-23T11:31:15Z</time>
      </trkpt>
      <trkpt lat="42.717422" lon="0.552786">
        <ele>2280.6</ele>
        <time>2019-08-23T11:31:24Z</time>
      </trkpt>
      <trkpt lat="42.717470" lon="0.552674">
        <ele>2278.0</ele>
        <time>2019-08-23T11:31:34Z</time>
      </trkpt>
      <trkpt lat="42.717537" lon="0.552589">
        <ele>2276.0</ele>
        <time>2019-08-23T11:31:42Z</time>
      </trkpt>
      <trkpt lat="42.717584" lon="0.552485">
        <ele>2273.2</ele>
        <time>2019-08-23T11:31:53Z</time>
      </trkpt>
      <trkpt lat="42.717636" lon="0.552391">
        <ele>2270.8</ele>
        <time>2019-08-23T11:32:05Z</time>
      </trkpt>
      <trkpt lat="42.717717" lon="0.552354">
        <ele>2268.5</ele>
        <time>2019-08-23T11:32:17Z</time>
      </trkpt>
      <trkpt lat="42.717766" lon="0.552407">
        <ele>2266.4</ele>
        <time>2019-08-23T11:32:28Z</time>
      </trkpt>
      <trkpt lat="42.717737" lon="0.552516">
        <ele>2263.6</ele>
        <time>2019-08-23T11:32:38Z</time>
      </trkpt>
      <trkpt lat="42.717696" lon="0.552627">
        <ele>2260.4</ele>
        <time>2019-08-23T11:32:48Z</time>
      </trkpt>
      <trkpt lat="42.717741" lon="0.552731">
        <ele>2257.6</ele>
        <time>2019-08-23T11:32:59Z</time>
      </trkpt>
      <trkpt lat="42.717793" lon="0.552711">
        <ele>2254.3</ele>
        <time>2019-08-23T11:33:12Z</time>
      </trkpt>
      <trkpt lat="42.717851" lon="0.552590">
        <ele>2252.6</ele>
        <time>2019-08-23T11:33:23Z</time>
      </trkpt>
      <trkpt lat="42.717936" lon="0.552586">
        <ele>2250.6</ele>
        <time>2019-08-23T11:33:35Z</time>
      </trkpt>
      <trkpt lat="42.718032" lon="0.552542">
        <ele>2246.7</ele>
        <time>2019-08-23T11:33:48Z</time>
      </trkpt>
      <trkpt lat="42.718117" lon="0.552465">
        <ele>2244.3</ele>
        <time>2019-08-23T11:33:58Z</time>
      </trkpt>
      <trkpt lat="42.718180" lon="0.552454">
        <ele>2241.4</ele>
        <time>2019-08-23T11:34:09Z</time>
      </trkpt>
      <trkpt lat="42.718202" lon="0.552588">
        <ele>2238.8</ele>
        <time>2019-08-23T11:34:19Z</time>
      </trkpt>
      <trkpt lat="42.718161" lon="0.552691">
        <ele>2235.1</ele>
        <time>2019-08-23T11:34:30Z</time>
      </trkpt>
      <trkpt lat="42.718139" lon="0.552812">
        <ele>2232.1</ele>
        <time>2019-08-23T11:34:44Z</time>
      </trkpt>
      <trkpt lat="42.718158" lon="0.552938">
        <ele>2231.0</ele>
        <time>2019-08-23T11:34:53Z</time>
      </trkpt>
      <trkpt lat="42.718144" lon="0.553059">
        <ele>2230.0</ele>
        <time>2019-08-23T11:35:01Z</time>
      </trkpt>
      <trkpt lat="42.718137" lon="0.553187">
        <ele>2229.8</ele>
        <time>2019-08-23T11:35:10Z</time>
      </trkpt>
      <trkpt lat="42.718127" lon="0.553317">
        <ele>2228.6</ele>
        <time>2019-08-23T11:35:20Z</time>
      </trkpt>
      <trkpt lat="42.718100" lon="0.553452">
        <ele>2226.6</ele>
        <time>2019-08-23T11:35:28Z</time>
      </trkpt>
      <trkpt lat="42.718096" lon="0.553582">
        <ele>2225.2</ele>
        <time>2019-08-23T11:35:37Z</time>
      </trkpt>
      <trkpt lat="42.718090" lon="0.553715">
        <ele>2224.5</ele>
        <time>2019-08-23T11:35:46Z</time>
      </trkpt>
      <trkpt lat="42.718079" lon="0.553843">
        <ele>2224.1</ele>
        <time>2019-08-23T11:35:54Z</time>
      </trkpt>
      <trkpt lat="42.718042" lon="0.553955">
        <ele>2223.9</ele>
        <time>2019-08-23T11:36:03Z</time>
      </trkpt>
      <trkpt lat="42.718026" lon="0.554082">
        <ele>2222.6</ele>
        <time>2019-08-23T11:36:13Z</time>
      </trkpt>
      <trkpt lat="42.718020" lon="0.554202">
        <ele>2220.4</ele>
        <time>2019-08-23T11:36:23Z</time>
      </trkpt>
      <trkpt lat="42.717986" lon="0.554317">
        <ele>2218.4</ele>
        <time>2019-08-23T11:36:33Z</time>
      </trkpt>
      <trkpt lat="42.717977" lon="0.554444">
        <ele>2216.6</ele>
        <time>2019-08-23T11:36:43Z</time>
      </trkpt>
      <trkpt lat="42.717968" lon="0.554578">
        <ele>2214.2</ele>
        <time>2019-08-23T11:36:53Z</time>
      </trkpt>
      <trkpt lat="42.717951" lon="0.554707">
        <ele>2212.3</ele>
        <time>2019-08-23T11:37:03Z</time>
      </trkpt>
      <trkpt lat="42.718017" lon="0.554612">
        <ele>2209.7</ele>
        <time>2019-08-23T11:37:15Z</time>
      </trkpt>
      <trkpt lat="42.718080" lon="0.554492">
        <ele>2206.7</ele>
        <time>2019-08-23T11:37:26Z</time>
      </trkpt>
      <trkpt lat="42.718146" lon="0.554392">
        <ele>2204.4</ele>
        <time>2019-08-23T11:37:35Z</time>
      </trkpt>
      <trkpt lat="42.718222" lon="0.554306">
        <ele>2202.2</ele>
        <time>2019-08-23T11:37:44Z</time>
      </trkpt>
      <trkpt lat="42.718278" lon="0.554204">
        <ele>2200.4</ele>
        <time>2019-08-23T11:37:53Z</time>
      </trkpt>
      <trkpt lat="42.718342" lon="0.554119">
        <ele>2198.1</ele>
        <time>2019-08-23T11:38:02Z</time>
      </trkpt>
      <trkpt lat="42.718413" lon="0.554036">
        <ele>2196.4</ele>
        <time>2019-08-23T11:38:11Z</time>
      </trkpt>
      <trkpt lat="42.718463" lon="0.554012">
        <ele>2194.4</ele>
        <time>2019-08-23T11:38:21Z</time>
      </trkpt>
      <trkpt lat="42.718468" lon="0.554126">
        <ele>2192.8</ele>
        <time>2019-08-23T11:38:38Z</time>
      </trkpt>
      <trkpt lat="42.718452" lon="0.554262">
        <ele>2190.3</ele>
        <time>2019-08-23T11:38:48Z</time>
      </trkpt>
      <trkpt lat="42.718448" lon="0.554381">
        <ele>2187.9</ele>
        <time>2019-08-23T11:38:57Z</time>
      </trkpt>
      <trkpt lat="42.718483" lon="0.554405">
        <ele>2185.7</ele>
        <time>2019-08-23T11:39:07Z</time>
      </trkpt>
      <trkpt lat="42.718555" lon="0.554331">
        <ele>2183.5</ele>
        <time>2019-08-23T11:39:15Z</time>
      </trkpt>
      <trkpt lat="42.718626" lon="0.554244">
        <ele>2180.8</ele>
        <time>2019-08-23T11:39:25Z</time>
      </trkpt>
      <trkpt lat="42.718698" lon="0.554153">
        <ele>2178.3</ele>
        <time>2019-08-23T11:39:36Z</time>
      </trkpt>
      <trkpt lat="42.718748" lon="0.554046">
        <ele>2175.9</ele>
        <time>2019-08-23T11:39:45Z</time>
      </trkpt>
      <trkpt lat="42.718815" lon="0.554007">
        <ele>2173.9</ele>
        <time>2019-08-23T11:39:54Z</time>
      </trkpt>
      <trkpt lat="42.718821" lon="0.554143">
        <ele>2171.1</ele>
        <time>2019-08-23T11:40:04Z</time>
      </trkpt>
      <trkpt lat="42.718859" lon="0.554254">
        <ele>2169.0</ele>
        <time>2019-08-23T11:40:13Z</time>
      </trkpt>
      <trkpt lat="42.718866" lon="0.554382">
        <ele>2166.4</ele>
        <time>2019-08-23T11:40:23Z</time>
      </trkpt>
      <trkpt lat="42.718857" lon="0.554497">
        <ele>2163.7</ele>
        <time>2019-08-23T11:40:34Z</time>
      </trkpt>
      <trkpt lat="42.718836" lon="0.554616">
        <ele>2161.4</ele>
        <time>2019-08-23T11:40:43Z</time>
      </trkpt>
      <trkpt lat="42.718818" lon="0.554747">
        <ele>2159.7</ele>
        <time>2019-08-23T11:40:52Z</time>
      </trkpt>
      <trkpt lat="42.718820" lon="0.554869">
        <ele>2157.8</ele>
        <time>2019-08-23T11:41:03Z</time>
      </trkpt>
      <trkpt lat="42.718809" lon="0.554990">
        <ele>2155.2</ele>
        <time>2019-08-23T11:41:14Z</time>
      </trkpt>
      <trkpt lat="42.718792" lon="0.555114">
        <ele>2153.3</ele>
        <time>2019-08-23T11:41:26Z</time>
      </trkpt>
      <trkpt lat="42.718792" lon="0.555215">
        <ele>2151.0</ele>
        <time>2019-08-23T11:41:36Z</time>
      </trkpt>
      <trkpt lat="42.718839" lon="0.555102">
        <ele>2149.1</ele>
        <time>2019-08-23T11:41:46Z</time>
      </trkpt>
      <trkpt lat="42.718886" lon="0.554980">
        <ele>2148.5</ele>
        <time>2019-08-23T11:41:57Z</time>
      </trkpt>
      <trkpt lat="42.718963" lon="0.554899">
        <ele>2148.1</ele>
        <time>2019-08-23T11:42:06Z</time>
      </trkpt>
      <trkpt lat="42.719007" lon="0.554779">
        <ele>2147.7</ele>
        <time>2019-08-23T11:42:15Z</time>
      </trkpt>
      <trkpt lat="42.719059" lon="0.554680">
        <ele>2147.7</ele>
        <time>2019-08-23T11:42:24Z</time>
      </trkpt>
      <trkpt lat="42.719049" lon="0.554554">
        <ele>2147.8</ele>
        <time>2019-08-23T11:42:33Z</time>
      </trkpt>
      <trkpt lat="42.719084" lon="0.554427">
        <ele>2147.7</ele>
        <time>2019-08-23T11:42:43Z</time>
      </trkpt>
      <trkpt lat="42.719132" lon="0.554316">
        <ele>2146.9</ele>
        <time>2019-08-23T11:42:52Z</time>
      </trkpt>
      <trkpt lat="42.719195" lon="0.554183">
        <ele>2145.5</ele>
        <time>2019-08-23T11:43:10Z</time>
      </trkpt>
      <trkpt lat="42.719223" lon="0.554051">
        <ele>2145.2</ele>
        <time>2019-08-23T11:43:19Z</time>
      </trkpt>
      <trkpt lat="42.719280" lon="0.553925">
        <ele>2145.4</ele>
        <time>2019-08-23T11:43:31Z</time>
      </trkpt>
      <trkpt lat="42.719343" lon="0.553817">
        <ele>2143.3</ele>
        <time>2019-08-23T11:43:41Z</time>
      </trkpt>
      <trkpt lat="42.719386" lon="0.553779">
        <ele>2141.2</ele>
        <time>2019-08-23T11:43:51Z</time>
      </trkpt>
      <trkpt lat="42.719391" lon="0.553902">
        <ele>2138.9</ele>
        <time>2019-08-23T11:44:01Z</time>
      </trkpt>
      <trkpt lat="42.719382" lon="0.554030">
        <ele>2137.6</ele>
        <time>2019-08-23T11:44:11Z</time>
      </trkpt>
      <trkpt lat="42.719382" lon="0.554162">
        <ele>2135.3</ele>
        <time>2019-08-23T11:44:23Z</time>
      </trkpt>
      <trkpt lat="42.719367" lon="0.554294">
        <ele>2132.8</ele>
        <time>2019-08-23T11:44:33Z</time>
      </trkpt>
      <trkpt lat="42.719365" lon="0.554433">
        <ele>2130.6</ele>
        <time>2019-08-23T11:44:43Z</time>
      </trkpt>
      <trkpt lat="42.719373" lon="0.554570">
        <ele>2129.2</ele>
        <time>2019-08-23T11:44:51Z</time>
      </trkpt>
      <trkpt lat="42.719324" lon="0.554690">
        <ele>2127.8</ele>
        <time>2019-08-23T11:45:00Z</time>
      </trkpt>
      <trkpt lat="42.719318" lon="0.554821">
        <ele>2126.1</ele>
        <time>2019-08-23T11:45:08Z</time>
      </trkpt>
      <trkpt lat="42.719307" lon="0.554944">
        <ele>2124.4</ele>
        <time>2019-08-23T11:45:17Z</time>
      </trkpt>
      <trkpt lat="42.719306" lon="0.555072">
        <ele>2122.6</ele>
        <time>2019-08-23T11:45:25Z</time>
      </trkpt>
      <trkpt lat="42.719306" lon="0.555199">
        <ele>2121.3</ele>
        <time>2019-08-23T11:45:33Z</time>
      </trkpt>
      <trkpt lat="42.719296" lon="0.555329">
        <ele>2119.5</ele>
        <time>2019-08-23T11:45:41Z</time>
      </trkpt>
      <trkpt lat="42.719333" lon="0.555328">
        <ele>2118.2</ele>
        <time>2019-08-23T11:45:50Z</time>
      </trkpt>
      <trkpt lat="42.719400" lon="0.555236">
        <ele>2116.7</ele>
        <time>2019-08-23T11:45:58Z</time>
      </trkpt>
      <trkpt lat="42.719451" lon="0.555141">
        <ele>2115.1</ele>
        <time>2019-08-23T11:46:07Z</time>
      </trkpt>
      <trkpt lat="42.719512" lon="0.555050">
        <ele>2113.2</ele>
        <time>2019-08-23T11:46:16Z</time>
      </trkpt>
      <trkpt lat="42.719566" lon="0.554952">
        <ele>2111.3</ele>
        <time>2019-08-23T11:46:24Z</time>
      </trkpt>
      <trkpt lat="42.719627" lon="0.554850">
        <ele>2109.7</ele>
        <time>2019-08-23T11:46:33Z</time>
      </trkpt>
      <trkpt lat="42.719678" lon="0.554742">
        <ele>2108.0</ele>
        <time>2019-08-23T11:46:43Z</time>
      </trkpt>
      <trkpt lat="42.719730" lon="0.554635">
        <ele>2106.3</ele>
        <time>2019-08-23T11:46:53Z</time>
      </trkpt>
      <trkpt lat="42.719786" lon="0.554538">
        <ele>2104.4</ele>
        <time>2019-08-23T11:47:03Z</time>
      </trkpt>
      <trkpt lat="42.719813" lon="0.554428">
        <ele>2102.4</ele>
        <time>2019-08-23T11:47:13Z</time>
      </trkpt>
      <trkpt lat="42.719867" lon="0.554457">
        <ele>2100.3</ele>
        <time>2019-08-23T11:47:23Z</time>
      </trkpt>
      <trkpt lat="42.719895" lon="0.554575">
        <ele>2098.6</ele>
        <time>2019-08-23T11:47:32Z</time>
      </trkpt>
      <trkpt lat="42.719881" lon="0.554692">
        <ele>2096.7</ele>
        <time>2019-08-23T11:47:41Z</time>
      </trkpt>
      <trkpt lat="42.719871" lon="0.554822">
        <ele>2094.4</ele>
        <time>2019-08-23T11:47:49Z</time>
      </trkpt>
      <trkpt lat="42.719860" lon="0.554957">
        <ele>2092.1</ele>
        <time>2019-08-23T11:47:57Z</time>
      </trkpt>
      <trkpt lat="42.719841" lon="0.555071">
        <ele>2090.6</ele>
        <time>2019-08-23T11:48:05Z</time>
      </trkpt>
      <trkpt lat="42.719832" lon="0.555202">
        <ele>2088.7</ele>
        <time>2019-08-23T11:48:13Z</time>
      </trkpt>
      <trkpt lat="42.719810" lon="0.555334">
        <ele>2087.6</ele>
        <time>2019-08-23T11:48:22Z</time>
      </trkpt>
      <trkpt lat="42.719765" lon="0.555448">
        <ele>2086.3</ele>
        <time>2019-08-23T11:48:32Z</time>
      </trkpt>
      <trkpt lat="42.719830" lon="0.555431">
        <ele>2084.1</ele>
        <time>2019-08-23T11:48:42Z</time>
      </trkpt>
      <trkpt lat="42.719892" lon="0.555334">
        <ele>2083.2</ele>
        <time>2019-08-23T11:48:51Z</time>
      </trkpt>
      <trkpt lat="42.719950" lon="0.555236">
        <ele>2082.3</ele>
        <time>2019-08-23T11:49:00Z</time>
      </trkpt>
      <trkpt lat="42.719999" lon="0.555124">
        <ele>2080.9</ele>
        <time>2019-08-23T11:49:09Z</time>
      </trkpt>
      <trkpt lat="42.720045" lon="0.555006">
        <ele>2079.8</ele>
        <time>2019-08-23T11:49:18Z</time>
      </trkpt>
      <trkpt lat="42.720097" lon="0.554907">
        <ele>2078.4</ele>
        <time>2019-08-23T11:49:28Z</time>
      </trkpt>
      <trkpt lat="42.720100" lon="0.554986">
        <ele>2076.0</ele>
        <time>2019-08-23T11:49:38Z</time>
      </trkpt>
      <trkpt lat="42.720113" lon="0.555096">
        <ele>2074.6</ele>
        <time>2019-08-23T11:49:48Z</time>
      </trkpt>
      <trkpt lat="42.720148" lon="0.554978">
        <ele>2073.6</ele>
        <time>2019-08-23T11:49:57Z</time>
      </trkpt>
      <trkpt lat="42.720185" lon="0.554848">
        <ele>2072.2</ele>
        <time>2019-08-23T11:50:07Z</time>
      </trkpt>
      <trkpt lat="42.720226" lon="0.554732">
        <ele>2071.1</ele>
        <time>2019-08-23T11:50:17Z</time>
      </trkpt>
      <trkpt lat="42.720284" lon="0.554636">
        <ele>2069.9</ele>
        <time>2019-08-23T11:50:27Z</time>
      </trkpt>
      <trkpt lat="42.720309" lon="0.554525">
        <ele>2068.2</ele>
        <time>2019-08-23T11:50:39Z</time>
      </trkpt>
      <trkpt lat="42.720368" lon="0.554439">
        <ele>2064.7</ele>
        <time>2019-08-23T11:50:51Z</time>
      </trkpt>
      <trkpt lat="42.720428" lon="0.554440">
        <ele>2062.1</ele>
        <time>2019-08-23T11:51:01Z</time>
      </trkpt>
      <trkpt lat="42.720456" lon="0.554555">
        <ele>2059.3</ele>
        <time>2019-08-23T11:51:11Z</time>
      </trkpt>
      <trkpt lat="42.720453" lon="0.554678">
        <ele>2056.8</ele>
        <time>2019-08-23T11:51:22Z</time>
      </trkpt>
      <trkpt lat="42.720448" lon="0.554808">
        <ele>2054.8</ele>
        <time>2019-08-23T11:51:33Z</time>
      </trkpt>
      <trkpt lat="42.720506" lon="0.554847">
        <ele>2051.9</ele>
        <time>2019-08-23T11:51:44Z</time>
      </trkpt>
      <trkpt lat="42.720548" lon="0.554738">
        <ele>2049.6</ele>
        <time>2019-08-23T11:51:53Z</time>
      </trkpt>
      <trkpt lat="42.720599" lon="0.554621">
        <ele>2047.1</ele>
        <time>2019-08-23T11:52:03Z</time>
      </trkpt>
      <trkpt lat="42.720650" lon="0.554502">
        <ele>2045.4</ele>
        <time>2019-08-23T11:52:12Z</time>
      </trkpt>
      <trkpt lat="42.720727" lon="0.554431">
        <ele>2043.4</ele>
        <time>2019-08-23T11:52:23Z</time>
      </trkpt>
      <trkpt lat="42.720806" lon="0.554362">
        <ele>2041.2</ele>
        <time>2019-08-23T11:52:37Z</time>
      </trkpt>
      <trkpt lat="42.720846" lon="0.554244">
        <ele>2039.9</ele>
        <time>2019-08-23T11:52:47Z</time>
      </trkpt>
      <trkpt lat="42.720874" lon="0.554124">
        <ele>2038.4</ele>
        <time>2019-08-23T11:52:55Z</time>
      </trkpt>
      <trkpt lat="42.720934" lon="0.554046">
        <ele>2037.0</ele>
        <time>2019-08-23T11:53:04Z</time>
      </trkpt>
      <trkpt lat="42.720992" lon="0.554002">
        <ele>2035.2</ele>
        <time>2019-08-23T11:53:14Z</time>
      </trkpt>
      <trkpt lat="42.721067" lon="0.553950">
        <ele>2033.4</ele>
        <time>2019-08-23T11:53:23Z</time>
      </trkpt>
      <trkpt lat="42.721136" lon="0.553878">
        <ele>2032.0</ele>
        <time>2019-08-23T11:53:33Z</time>
      </trkpt>
      <trkpt lat="42.721204" lon="0.553790">
        <ele>2031.0</ele>
        <time>2019-08-23T11:53:41Z</time>
      </trkpt>
      <trkpt lat="42.721262" lon="0.553737">
        <ele>2028.7</ele>
        <time>2019-08-23T11:53:51Z</time>
      </trkpt>
      <trkpt lat="42.721270" lon="0.553862">
        <ele>2026.3</ele>
        <time>2019-08-23T11:54:02Z</time>
      </trkpt>
      <trkpt lat="42.721316" lon="0.553931">
        <ele>2022.7</ele>
        <time>2019-08-23T11:54:19Z</time>
      </trkpt>
      <trkpt lat="42.721329" lon="0.554045">
        <ele>2019.6</ele>
        <time>2019-08-23T11:54:31Z</time>
      </trkpt>
      <trkpt lat="42.721327" lon="0.554154">
        <ele>2016.6</ele>
        <time>2019-08-23T11:54:57Z</time>
      </trkpt>
      <trkpt lat="42.721401" lon="0.554067">
        <ele>2015.5</ele>
        <time>2019-08-23T11:55:16Z</time>
      </trkpt>
      <trkpt lat="42.721443" lon="0.553959">
        <ele>2013.6</ele>
        <time>2019-08-23T11:55:29Z</time>
      </trkpt>
      <trkpt lat="42.721498" lon="0.553850">
        <ele>2011.2</ele>
        <time>2019-08-23T11:55:42Z</time>
      </trkpt>
      <trkpt lat="42.721562" lon="0.553766">
        <ele>2009.4</ele>
        <time>2019-08-23T11:55:51Z</time>
      </trkpt>
      <trkpt lat="42.721605" lon="0.553671">
        <ele>2006.9</ele>
        <time>2019-08-23T11:56:02Z</time>
      </trkpt>
      <trkpt lat="42.721621" lon="0.553553">
        <ele>2004.7</ele>
        <time>2019-08-23T11:56:13Z</time>
      </trkpt>
      <trkpt lat="42.721650" lon="0.553428">
        <ele>2002.3</ele>
        <time>2019-08-23T11:56:24Z</time>
      </trkpt>
      <trkpt lat="42.721669" lon="0.553297">
        <ele>2000.8</ele>
        <time>2019-08-23T11:56:34Z</time>
      </trkpt>
      <trkpt lat="42.721695" lon="0.553169">
        <ele>1998.6</ele>
        <time>2019-08-23T11:56:46Z</time>
      </trkpt>
      <trkpt lat="42.721728" lon="0.553048">
        <ele>1995.6</ele>
        <time>2019-08-23T11:56:58Z</time>
      </trkpt>
      <trkpt lat="42.721813" lon="0.553106">
        <ele>1993.6</ele>
        <time>2019-08-23T11:57:07Z</time>
      </trkpt>
      <trkpt lat="42.721827" lon="0.553238">
        <ele>1991.3</ele>
        <time>2019-08-23T11:57:17Z</time>
      </trkpt>
      <trkpt lat="42.721875" lon="0.553351">
        <ele>1989.4</ele>
        <time>2019-08-23T11:57:27Z</time>
      </trkpt>
      <trkpt lat="42.721933" lon="0.553456">
        <ele>1986.1</ele>
        <time>2019-08-23T11:57:38Z</time>
      </trkpt>
      <trkpt lat="42.721974" lon="0.553562">
        <ele>1983.8</ele>
        <time>2019-08-23T11:57:47Z</time>
      </trkpt>
      <trkpt lat="42.722047" lon="0.553665">
        <ele>1981.4</ele>
        <time>2019-08-23T11:57:58Z</time>
      </trkpt>
      <trkpt lat="42.722079" lon="0.553772">
        <ele>1978.8</ele>
        <time>2019-08-23T11:58:09Z</time>
      </trkpt>
      <trkpt lat="42.722067" lon="0.553894">
        <ele>1976.6</ele>
        <time>2019-08-23T11:58:18Z</time>
      </trkpt>
      <trkpt lat="42.722026" lon="0.554011">
        <ele>1975.7</ele>
        <time>2019-08-23T11:58:27Z</time>
      </trkpt>
      <trkpt lat="42.721979" lon="0.554114">
        <ele>1975.4</ele>
        <time>2019-08-23T11:58:35Z</time>
      </trkpt>
      <trkpt lat="42.721985" lon="0.554239">
        <ele>1974.4</ele>
        <time>2019-08-23T11:58:43Z</time>
      </trkpt>
      <trkpt lat="42.721961" lon="0.554353">
        <ele>1973.6</ele>
        <time>2019-08-23T11:58:53Z</time>
      </trkpt>
      <trkpt lat="42.721929" lon="0.554465">
        <ele>1973.9</ele>
        <time>2019-08-23T11:59:05Z</time>
      </trkpt>
      <trkpt lat="42.721886" lon="0.554566">
        <ele>1973.5</ele>
        <time>2019-08-23T11:59:15Z</time>
      </trkpt>
      <trkpt lat="42.721884" lon="0.554693">
        <ele>1972.6</ele>
        <time>2019-08-23T11:59:29Z</time>
      </trkpt>
      <trkpt lat="42.721836" lon="0.554806">
        <ele>1970.9</ele>
        <time>2019-08-23T11:59:38Z</time>
      </trkpt>
      <trkpt lat="42.721818" lon="0.554933">
        <ele>1969.0</ele>
        <time>2019-08-23T11:59:49Z</time>
      </trkpt>
      <trkpt lat="42.721791" lon="0.555049">
        <ele>1967.5</ele>
        <time>2019-08-23T11:59:57Z</time>
      </trkpt>
      <trkpt lat="42.721796" lon="0.555180">
        <ele>1965.2</ele>
        <time>2019-08-23T12:00:07Z</time>
      </trkpt>
      <trkpt lat="42.721800" lon="0.555314">
        <ele>1963.2</ele>
        <time>2019-08-23T12:00:15Z</time>
      </trkpt>
      <trkpt lat="42.721808" lon="0.555409">
        <ele>1959.7</ele>
        <time>2019-08-23T12:00:58Z</time>
      </trkpt>
      <trkpt lat="42.721870" lon="0.555367">
        <ele>1957.5</ele>
        <time>2019-08-23T12:01:17Z</time>
      </trkpt>
      <trkpt lat="42.721921" lon="0.555269">
        <ele>1956.3</ele>
        <time>2019-08-23T12:02:39Z</time>
      </trkpt>
      <trkpt lat="42.721991" lon="0.555191">
        <ele>1953.8</ele>
        <time>2019-08-23T12:02:54Z</time>
      </trkpt>
      <trkpt lat="42.722029" lon="0.555067">
        <ele>1950.9</ele>
        <time>2019-08-23T12:03:06Z</time>
      </trkpt>
      <trkpt lat="42.722095" lon="0.554986">
        <ele>1949.9</ele>
        <time>2019-08-23T12:03:15Z</time>
      </trkpt>
      <trkpt lat="42.722149" lon="0.554876">
        <ele>1948.4</ele>
        <time>2019-08-23T12:03:26Z</time>
      </trkpt>
      <trkpt lat="42.722201" lon="0.554766">
        <ele>1946.4</ele>
        <time>2019-08-23T12:03:37Z</time>
      </trkpt>
      <trkpt lat="42.722251" lon="0.554652">
        <ele>1943.8</ele>
        <time>2019-08-23T12:03:47Z</time>
      </trkpt>
      <trkpt lat="42.722322" lon="0.554577">
        <ele>1942.6</ele>
        <time>2019-08-23T12:03:57Z</time>
      </trkpt>
      <trkpt lat="42.722428" lon="0.554576">
        <ele>1940.5</ele>
        <time>2019-08-23T12:04:06Z</time>
      </trkpt>
      <trkpt lat="42.722516" lon="0.554623">
        <ele>1938.5</ele>
        <time>2019-08-23T12:04:14Z</time>
      </trkpt>
      <trkpt lat="42.722560" lon="0.554725">
        <ele>1936.8</ele>
        <time>2019-08-23T12:04:29Z</time>
      </trkpt>
      <trkpt lat="42.722621" lon="0.554698">
        <ele>1933.8</ele>
        <time>2019-08-23T12:04:41Z</time>
      </trkpt>
      <trkpt lat="42.722661" lon="0.554784">
        <ele>1930.2</ele>
        <time>2019-08-23T12:04:56Z</time>
      </trkpt>
      <trkpt lat="42.722616" lon="0.554890">
        <ele>1927.5</ele>
        <time>2019-08-23T12:05:07Z</time>
      </trkpt>
      <trkpt lat="42.722609" lon="0.555015">
        <ele>1925.0</ele>
        <time>2019-08-23T12:05:18Z</time>
      </trkpt>
      <trkpt lat="42.722648" lon="0.555108">
        <ele>1922.2</ele>
        <time>2019-08-23T12:05:29Z</time>
      </trkpt>
      <trkpt lat="42.722659" lon="0.555196">
        <ele>1919.2</ele>
        <time>2019-08-23T12:05:43Z</time>
      </trkpt>
      <trkpt lat="42.722695" lon="0.555292">
        <ele>1917.0</ele>
        <time>2019-08-23T12:05:53Z</time>
      </trkpt>
      <trkpt lat="42.722729" lon="0.555295">
        <ele>1914.2</ele>
        <time>2019-08-23T12:06:03Z</time>
      </trkpt>
      <trkpt lat="42.722822" lon="0.555319">
        <ele>1911.6</ele>
        <time>2019-08-23T12:06:13Z</time>
      </trkpt>
      <trkpt lat="42.722917" lon="0.555376">
        <ele>1908.9</ele>
        <time>2019-08-23T12:06:21Z</time>
      </trkpt>
      <trkpt lat="42.722965" lon="0.555491">
        <ele>1906.7</ele>
        <time>2019-08-23T12:06:29Z</time>
      </trkpt>
      <trkpt lat="42.723031" lon="0.555566">
        <ele>1904.6</ele>
        <time>2019-08-23T12:06:38Z</time>
      </trkpt>
      <trkpt lat="42.723044" lon="0.555686">
        <ele>1903.3</ele>
        <time>2019-08-23T12:06:51Z</time>
      </trkpt>
      <trkpt lat="42.723065" lon="0.555807">
        <ele>1903.4</ele>
        <time>2019-08-23T12:06:59Z</time>
      </trkpt>
      <trkpt lat="42.723101" lon="0.555921">
        <ele>1903.5</ele>
        <time>2019-08-23T12:07:06Z</time>
      </trkpt>
      <trkpt lat="42.723134" lon="0.556034">
        <ele>1904.4</ele>
        <time>2019-08-23T12:07:14Z</time>
      </trkpt>
      <trkpt lat="42.723158" lon="0.556149">
        <ele>1905.7</ele>
        <time>2019-08-23T12:07:24Z</time>
      </trkpt>
      <trkpt lat="42.723213" lon="0.556246">
        <ele>1906.1</ele>
        <time>2019-08-23T12:07:32Z</time>
      </trkpt>
      <trkpt lat="42.723229" lon="0.556363">
        <ele>1906.3</ele>
        <time>2019-08-23T12:07:41Z</time>
      </trkpt>
      <trkpt lat="42.723219" lon="0.556507">
        <ele>1906.5</ele>
        <time>2019-08-23T12:07:51Z</time>
      </trkpt>
      <trkpt lat="42.723238" lon="0.556638">
        <ele>1906.9</ele>
        <time>2019-08-23T12:07:59Z</time>
      </trkpt>
      <trkpt lat="42.723281" lon="0.556750">
        <ele>1907.2</ele>
        <time>2019-08-23T12:08:07Z</time>
      </trkpt>
      <trkpt lat="42.723330" lon="0.556867">
        <ele>1907.6</ele>
        <time>2019-08-23T12:08:15Z</time>
      </trkpt>
      <trkpt lat="42.723380" lon="0.556969">
        <ele>1908.3</ele>
        <time>2019-08-23T12:08:23Z</time>
      </trkpt>
      <trkpt lat="42.723469" lon="0.557015">
        <ele>1908.3</ele>
        <time>2019-08-23T12:08:35Z</time>
      </trkpt>
      <trkpt lat="42.723526" lon="0.557035">
        <ele>1906.2</ele>
        <time>2019-08-23T12:08:46Z</time>
      </trkpt>
      <trkpt lat="42.723604" lon="0.556965">
        <ele>1903.9</ele>
        <time>2019-08-23T12:08:56Z</time>
      </trkpt>
      <trkpt lat="42.723667" lon="0.556867">
        <ele>1902.0</ele>
        <time>2019-08-23T12:09:05Z</time>
      </trkpt>
      <trkpt lat="42.723721" lon="0.556756">
        <ele>1900.4</ele>
        <time>2019-08-23T12:09:14Z</time>
      </trkpt>
      <trkpt lat="42.723760" lon="0.556836">
        <ele>1897.9</ele>
        <time>2019-08-23T12:09:25Z</time>
      </trkpt>
      <trkpt lat="42.723778" lon="0.556965">
        <ele>1895.5</ele>
        <time>2019-08-23T12:09:33Z</time>
      </trkpt>
      <trkpt lat="42.723761" lon="0.557101">
        <ele>1892.4</ele>
        <time>2019-08-23T12:09:43Z</time>
      </trkpt>
      <trkpt lat="42.723740" lon="0.557240">
        <ele>1889.9</ele>
        <time>2019-08-23T12:09:53Z</time>
      </trkpt>
      <trkpt lat="42.723680" lon="0.557358">
        <ele>1888.1</ele>
        <time>2019-08-23T12:10:02Z</time>
      </trkpt>
      <trkpt lat="42.723631" lon="0.557483">
        <ele>1885.4</ele>
        <time>2019-08-23T12:10:14Z</time>
      </trkpt>
      <trkpt lat="42.723588" lon="0.557618">
        <ele>1882.7</ele>
        <time>2019-08-23T12:10:24Z</time>
      </trkpt>
      <trkpt lat="42.723563" lon="0.557747">
        <ele>1879.1</ele>
        <time>2019-08-23T12:10:36Z</time>
      </trkpt>
      <trkpt lat="42.723544" lon="0.557891">
        <ele>1876.8</ele>
        <time>2019-08-23T12:10:44Z</time>
      </trkpt>
      <trkpt lat="42.723491" lon="0.558015">
        <ele>1874.7</ele>
        <time>2019-08-23T12:10:54Z</time>
      </trkpt>
      <trkpt lat="42.723488" lon="0.558154">
        <ele>1872.1</ele>
        <time>2019-08-23T12:11:03Z</time>
      </trkpt>
      <trkpt lat="42.723455" lon="0.558291">
        <ele>1870.6</ele>
        <time>2019-08-23T12:11:11Z</time>
      </trkpt>
      <trkpt lat="42.723417" lon="0.558425">
        <ele>1868.8</ele>
        <time>2019-08-23T12:11:21Z</time>
      </trkpt>
      <trkpt lat="42.723402" lon="0.558564">
        <ele>1866.0</ele>
        <time>2019-08-23T12:11:31Z</time>
      </trkpt>
      <trkpt lat="42.723377" lon="0.558697">
        <ele>1863.6</ele>
        <time>2019-08-23T12:11:41Z</time>
      </trkpt>
      <trkpt lat="42.723342" lon="0.558836">
        <ele>1861.4</ele>
        <time>2019-08-23T12:11:50Z</time>
      </trkpt>
      <trkpt lat="42.723260" lon="0.558927">
        <ele>1859.6</ele>
        <time>2019-08-23T12:12:00Z</time>
      </trkpt>
      <trkpt lat="42.723208" lon="0.559061">
        <ele>1856.9</ele>
        <time>2019-08-23T12:12:11Z</time>
      </trkpt>
      <trkpt lat="42.723165" lon="0.559147">
        <ele>1853.7</ele>
        <time>2019-08-23T12:12:22Z</time>
      </trkpt>
      <trkpt lat="42.723212" lon="0.559192">
        <ele>1850.9</ele>
        <time>2019-08-23T12:12:34Z</time>
      </trkpt>
      <trkpt lat="42.723120" lon="0.559273">
        <ele>1847.9</ele>
        <time>2019-08-23T12:12:45Z</time>
      </trkpt>
      <trkpt lat="42.723053" lon="0.559358">
        <ele>1845.7</ele>
        <time>2019-08-23T12:12:53Z</time>
      </trkpt>
      <trkpt lat="42.722988" lon="0.559477">
        <ele>1844.3</ele>
        <time>2019-08-23T12:13:02Z</time>
      </trkpt>
      <trkpt lat="42.722927" lon="0.559591">
        <ele>1843.8</ele>
        <time>2019-08-23T12:13:11Z</time>
      </trkpt>
      <trkpt lat="42.722890" lon="0.559726">
        <ele>1842.8</ele>
        <time>2019-08-23T12:13:21Z</time>
      </trkpt>
      <trkpt lat="42.722864" lon="0.559859">
        <ele>1840.2</ele>
        <time>2019-08-23T12:13:31Z</time>
      </trkpt>
      <trkpt lat="42.722814" lon="0.559984">
        <ele>1837.7</ele>
        <time>2019-08-23T12:13:39Z</time>
      </trkpt>
      <trkpt lat="42.722758" lon="0.560102">
        <ele>1835.0</ele>
        <time>2019-08-23T12:13:48Z</time>
      </trkpt>
      <trkpt lat="42.722692" lon="0.560227">
        <ele>1832.3</ele>
        <time>2019-08-23T12:13:59Z</time>
      </trkpt>
      <trkpt lat="42.722627" lon="0.560339">
        <ele>1830.7</ele>
        <time>2019-08-23T12:14:07Z</time>
      </trkpt>
      <trkpt lat="42.722537" lon="0.560429">
        <ele>1829.3</ele>
        <time>2019-08-23T12:14:16Z</time>
      </trkpt>
      <trkpt lat="42.722466" lon="0.560527">
        <ele>1828.1</ele>
        <time>2019-08-23T12:14:25Z</time>
      </trkpt>
      <trkpt lat="42.722379" lon="0.560617">
        <ele>1827.0</ele>
        <time>2019-08-23T12:14:35Z</time>
      </trkpt>
      <trkpt lat="42.722260" lon="0.560689">
        <ele>1826.6</ele>
        <time>2019-08-23T12:14:46Z</time>
      </trkpt>
      <trkpt lat="42.722217" lon="0.560828">
        <ele>1825.3</ele>
        <time>2019-08-23T12:14:59Z</time>
      </trkpt>
      <trkpt lat="42.722178" lon="0.560961">
        <ele>1824.0</ele>
        <time>2019-08-23T12:15:09Z</time>
      </trkpt>
      <trkpt lat="42.722167" lon="0.561106">
        <ele>1822.6</ele>
        <time>2019-08-23T12:15:20Z</time>
      </trkpt>
      <trkpt lat="42.722153" lon="0.561247">
        <ele>1820.4</ele>
        <time>2019-08-23T12:15:33Z</time>
      </trkpt>
      <trkpt lat="42.722104" lon="0.561374">
        <ele>1818.4</ele>
        <time>2019-08-23T12:15:43Z</time>
      </trkpt>
      <trkpt lat="42.722079" lon="0.561516">
        <ele>1816.7</ele>
        <time>2019-08-23T12:15:52Z</time>
      </trkpt>
      <trkpt lat="42.722037" lon="0.561655">
        <ele>1815.2</ele>
        <time>2019-08-23T12:16:03Z</time>
      </trkpt>
      <trkpt lat="42.721985" lon="0.561757">
        <ele>1813.7</ele>
        <time>2019-08-23T12:16:11Z</time>
      </trkpt>
      <trkpt lat="42.721954" lon="0.561885">
        <ele>1811.0</ele>
        <time>2019-08-23T12:16:21Z</time>
      </trkpt>
      <trkpt lat="42.721887" lon="0.561971">
        <ele>1809.0</ele>
        <time>2019-08-23T12:16:29Z</time>
      </trkpt>
      <trkpt lat="42.721809" lon="0.562079">
        <ele>1807.8</ele>
        <time>2019-08-23T12:16:37Z</time>
      </trkpt>
      <trkpt lat="42.721795" lon="0.562210">
        <ele>1807.1</ele>
        <time>2019-08-23T12:16:47Z</time>
      </trkpt>
      <trkpt lat="42.721774" lon="0.562346">
        <ele>1806.0</ele>
        <time>2019-08-23T12:16:55Z</time>
      </trkpt>
      <trkpt lat="42.721743" lon="0.562461">
        <ele>1805.6</ele>
        <time>2019-08-23T12:17:04Z</time>
      </trkpt>
      <trkpt lat="42.721683" lon="0.562561">
        <ele>1805.0</ele>
        <time>2019-08-23T12:17:15Z</time>
      </trkpt>
      <trkpt lat="42.721602" lon="0.562641">
        <ele>1802.1</ele>
        <time>2019-08-23T12:17:26Z</time>
      </trkpt>
      <trkpt lat="42.721527" lon="0.562729">
        <ele>1798.3</ele>
        <time>2019-08-23T12:17:41Z</time>
      </trkpt>
      <trkpt lat="42.721430" lon="0.562671">
        <ele>1795.3</ele>
        <time>2019-08-23T12:17:52Z</time>
      </trkpt>
      <trkpt lat="42.721343" lon="0.562671">
        <ele>1792.1</ele>
        <time>2019-08-23T12:18:03Z</time>
      </trkpt>
      <trkpt lat="42.721270" lon="0.562615">
        <ele>1788.9</ele>
        <time>2019-08-23T12:18:14Z</time>
      </trkpt>
      <trkpt lat="42.721220" lon="0.562679">
        <ele>1784.8</ele>
        <time>2019-08-23T12:18:31Z</time>
      </trkpt>
      <trkpt lat="42.721146" lon="0.562737">
        <ele>1781.3</ele>
        <time>2019-08-23T12:18:44Z</time>
      </trkpt>
      <trkpt lat="42.721080" lon="0.562641">
        <ele>1778.7</ele>
        <time>2019-08-23T12:18:58Z</time>
      </trkpt>
      <trkpt lat="42.720986" lon="0.562635">
        <ele>1774.9</ele>
        <time>2019-08-23T12:19:13Z</time>
      </trkpt>
      <trkpt lat="42.720941" lon="0.562742">
        <ele>1771.8</ele>
        <time>2019-08-23T12:19:28Z</time>
      </trkpt>
      <trkpt lat="42.720991" lon="0.562839">
        <ele>1768.2</ele>
        <time>2019-08-23T12:19:39Z</time>
      </trkpt>
      <trkpt lat="42.720981" lon="0.562968">
        <ele>1763.9</ele>
        <time>2019-08-23T12:19:55Z</time>
      </trkpt>
      <trkpt lat="42.720998" lon="0.563108">
        <ele>1761.1</ele>
        <time>2019-08-23T12:20:06Z</time>
      </trkpt>
      <trkpt lat="42.721035" lon="0.563201">
        <ele>1758.3</ele>
        <time>2019-08-23T12:20:29Z</time>
      </trkpt>
      <trkpt lat="42.721095" lon="0.563329">
        <ele>1756.9</ele>
        <time>2019-08-23T12:20:51Z</time>
      </trkpt>
      <trkpt lat="42.721133" lon="0.563453">
        <ele>1755.0</ele>
        <time>2019-08-23T12:21:01Z</time>
      </trkpt>
      <trkpt lat="42.721179" lon="0.563557">
        <ele>1753.5</ele>
        <time>2019-08-23T12:21:10Z</time>
      </trkpt>
      <trkpt lat="42.721207" lon="0.563675">
        <ele>1751.7</ele>
        <time>2019-08-23T12:21:19Z</time>
      </trkpt>
      <trkpt lat="42.721227" lon="0.563806">
        <ele>1750.3</ele>
        <time>2019-08-23T12:21:28Z</time>
      </trkpt>
      <trkpt lat="42.721220" lon="0.563935">
        <ele>1748.4</ele>
        <time>2019-08-23T12:21:37Z</time>
      </trkpt>
      <trkpt lat="42.721227" lon="0.564053">
        <ele>1747.0</ele>
        <time>2019-08-23T12:21:46Z</time>
      </trkpt>
      <trkpt lat="42.721214" lon="0.564147">
        <ele>1745.7</ele>
        <time>2019-08-23T12:22:08Z</time>
      </trkpt>
      <trkpt lat="42.721216" lon="0.564268">
        <ele>1744.5</ele>
        <time>2019-08-23T12:22:17Z</time>
      </trkpt>
      <trkpt lat="42.721236" lon="0.564385">
        <ele>1743.7</ele>
        <time>2019-08-23T12:22:26Z</time>
      </trkpt>
      <trkpt lat="42.721218" lon="0.564513">
        <ele>1742.3</ele>
        <time>2019-08-23T12:22:35Z</time>
      </trkpt>
      <trkpt lat="42.721174" lon="0.564634">
        <ele>1741.2</ele>
        <time>2019-08-23T12:22:44Z</time>
      </trkpt>
      <trkpt lat="42.721136" lon="0.564747">
        <ele>1740.1</ele>
        <time>2019-08-23T12:22:53Z</time>
      </trkpt>
      <trkpt lat="42.721093" lon="0.564860">
        <ele>1738.8</ele>
        <time>2019-08-23T12:23:02Z</time>
      </trkpt>
      <trkpt lat="42.721073" lon="0.564989">
        <ele>1737.5</ele>
        <time>2019-08-23T12:23:11Z</time>
      </trkpt>
      <trkpt lat="42.721076" lon="0.565113">
        <ele>1736.2</ele>
        <time>2019-08-23T12:23:19Z</time>
      </trkpt>
      <trkpt lat="42.721073" lon="0.565230">
        <ele>1735.7</ele>
        <time>2019-08-23T12:23:27Z</time>
      </trkpt>
      <trkpt lat="42.721029" lon="0.565337">
        <ele>1735.6</ele>
        <time>2019-08-23T12:23:37Z</time>
      </trkpt>
      <trkpt lat="42.721003" lon="0.565450">
        <ele>1734.7</ele>
        <time>2019-08-23T12:23:46Z</time>
      </trkpt>
      <trkpt lat="42.721001" lon="0.565563">
        <ele>1735.0</ele>
        <time>2019-08-23T12:23:57Z</time>
      </trkpt>
      <trkpt lat="42.720962" lon="0.565697">
        <ele>1734.4</ele>
        <time>2019-08-23T12:24:08Z</time>
      </trkpt>
      <trkpt lat="42.720930" lon="0.565831">
        <ele>1733.5</ele>
        <time>2019-08-23T12:24:19Z</time>
      </trkpt>
      <trkpt lat="42.720887" lon="0.565975">
        <ele>1732.1</ele>
        <time>2019-08-23T12:24:31Z</time>
      </trkpt>
      <trkpt lat="42.720887" lon="0.566101">
        <ele>1729.7</ele>
        <time>2019-08-23T12:24:43Z</time>
      </trkpt>
      <trkpt lat="42.720888" lon="0.566240">
        <ele>1728.2</ele>
        <time>2019-08-23T12:24:53Z</time>
      </trkpt>
      <trkpt lat="42.720847" lon="0.566359">
        <ele>1727.6</ele>
        <time>2019-08-23T12:25:02Z</time>
      </trkpt>
      <trkpt lat="42.720831" lon="0.566496">
        <ele>1726.9</ele>
        <time>2019-08-23T12:25:13Z</time>
      </trkpt>
      <trkpt lat="42.720811" lon="0.566641">
        <ele>1725.4</ele>
        <time>2019-08-23T12:25:25Z</time>
      </trkpt>
      <trkpt lat="42.720771" lon="0.566785">
        <ele>1722.9</ele>
        <time>2019-08-23T12:25:37Z</time>
      </trkpt>
      <trkpt lat="42.720685" lon="0.566868">
        <ele>1721.2</ele>
        <time>2019-08-23T12:25:48Z</time>
      </trkpt>
      <trkpt lat="42.720626" lon="0.566970">
        <ele>1719.0</ele>
        <time>2019-08-23T12:25:58Z</time>
      </trkpt>
      <trkpt lat="42.720566" lon="0.567095">
        <ele>1717.3</ele>
        <time>2019-08-23T12:26:10Z</time>
      </trkpt>
      <trkpt lat="42.720514" lon="0.567212">
        <ele>1715.8</ele>
        <time>2019-08-23T12:26:20Z</time>
      </trkpt>
      <trkpt lat="42.720533" lon="0.567322">
        <ele>1714.6</ele>
        <time>2019-08-23T12:26:34Z</time>
      </trkpt>
      <trkpt lat="42.720498" lon="0.567471">
        <ele>1712.0</ele>
        <time>2019-08-23T12:26:46Z</time>
      </trkpt>
      <trkpt lat="42.720412" lon="0.567529">
        <ele>1710.4</ele>
        <time>2019-08-23T12:26:55Z</time>
      </trkpt>
      <trkpt lat="42.720377" lon="0.567663">
        <ele>1709.9</ele>
        <time>2019-08-23T12:27:05Z</time>
      </trkpt>
      <trkpt lat="42.720323" lon="0.567753">
        <ele>1709.4</ele>
        <time>2019-08-23T12:27:16Z</time>
      </trkpt>
      <trkpt lat="42.720330" lon="0.567880">
        <ele>1707.6</ele>
        <time>2019-08-23T12:27:28Z</time>
      </trkpt>
      <trkpt lat="42.720327" lon="0.568009">
        <ele>1705.4</ele>
        <time>2019-08-23T12:27:38Z</time>
      </trkpt>
      <trkpt lat="42.720340" lon="0.568138">
        <ele>1704.3</ele>
        <time>2019-08-23T12:27:48Z</time>
      </trkpt>
      <trkpt lat="42.720376" lon="0.568265">
        <ele>1703.2</ele>
        <time>2019-08-23T12:27:58Z</time>
      </trkpt>
      <trkpt lat="42.720308" lon="0.568303">
        <ele>1700.2</ele>
        <time>2019-08-23T12:28:16Z</time>
      </trkpt>
      <trkpt lat="42.720378" lon="0.568390">
        <ele>1701.2</ele>
        <time>2019-08-23T12:28:33Z</time>
      </trkpt>
      <trkpt lat="42.720323" lon="0.568492">
        <ele>1700.7</ele>
        <time>2019-08-23T12:28:51Z</time>
      </trkpt>
      <trkpt lat="42.720271" lon="0.568548">
        <ele>1700.7</ele>
        <time>2019-08-23T12:29:18Z</time>
      </trkpt>
      <trkpt lat="42.720166" lon="0.568577">
        <ele>1701.6</ele>
        <time>2019-08-23T12:29:30Z</time>
      </trkpt>
      <trkpt lat="42.720113" lon="0.568688">
        <ele>1701.7</ele>
        <time>2019-08-23T12:29:41Z</time>
      </trkpt>
      <trkpt lat="42.720119" lon="0.568844">
        <ele>1702.0</ele>
        <time>2019-08-23T12:29:52Z</time>
      </trkpt>
      <trkpt lat="42.720145" lon="0.568980">
        <ele>1701.6</ele>
        <time>2019-08-23T12:30:01Z</time>
      </trkpt>
      <trkpt lat="42.720121" lon="0.569105">
        <ele>1701.1</ele>
        <time>2019-08-23T12:30:10Z</time>
      </trkpt>
      <trkpt lat="42.720092" lon="0.569220">
        <ele>1701.2</ele>
        <time>2019-08-23T12:30:19Z</time>
      </trkpt>
      <trkpt lat="42.720062" lon="0.569350">
        <ele>1702.1</ele>
        <time>2019-08-23T12:30:31Z</time>
      </trkpt>
      <trkpt lat="42.720047" lon="0.569461">
        <ele>1702.0</ele>
        <time>2019-08-23T12:30:46Z</time>
      </trkpt>
      <trkpt lat="42.720043" lon="0.569585">
        <ele>1701.2</ele>
        <time>2019-08-23T12:30:56Z</time>
      </trkpt>
      <trkpt lat="42.720014" lon="0.569741">
        <ele>1701.4</ele>
        <time>2019-08-23T12:31:07Z</time>
      </trkpt>
      <trkpt lat="42.719989" lon="0.569886">
        <ele>1701.7</ele>
        <time>2019-08-23T12:31:17Z</time>
      </trkpt>
      <trkpt lat="42.720003" lon="0.570006">
        <ele>1701.5</ele>
        <time>2019-08-23T12:31:27Z</time>
      </trkpt>
      <trkpt lat="42.720062" lon="0.570091">
        <ele>1700.7</ele>
        <time>2019-08-23T12:31:37Z</time>
      </trkpt>
      <trkpt lat="42.720142" lon="0.570166">
        <ele>1699.8</ele>
        <time>2019-08-23T12:31:46Z</time>
      </trkpt>
      <trkpt lat="42.720220" lon="0.570258">
        <ele>1699.8</ele>
        <time>2019-08-23T12:31:57Z</time>
      </trkpt>
      <trkpt lat="42.720313" lon="0.570379">
        <ele>1701.6</ele>
        <time>2019-08-23T12:32:11Z</time>
      </trkpt>
      <trkpt lat="42.720381" lon="0.570500">
        <ele>1703.2</ele>
        <time>2019-08-23T12:32:22Z</time>
      </trkpt>
      <trkpt lat="42.720371" lon="0.570654">
        <ele>1704.2</ele>
        <time>2019-08-23T12:32:35Z</time>
      </trkpt>
      <trkpt lat="42.720390" lon="0.570784">
        <ele>1704.0</ele>
        <time>2019-08-23T12:32:45Z</time>
      </trkpt>
      <trkpt lat="42.720349" lon="0.570933">
        <ele>1704.7</ele>
        <time>2019-08-23T12:32:58Z</time>
      </trkpt>
      <trkpt lat="42.720326" lon="0.571056">
        <ele>1704.4</ele>
        <time>2019-08-23T12:33:08Z</time>
      </trkpt>
      <trkpt lat="42.720286" lon="0.571194">
        <ele>1703.5</ele>
        <time>2019-08-23T12:33:18Z</time>
      </trkpt>
      <trkpt lat="42.720222" lon="0.571292">
        <ele>1702.1</ele>
        <time>2019-08-23T12:33:28Z</time>
      </trkpt>
      <trkpt lat="42.720197" lon="0.571427">
        <ele>1700.6</ele>
        <time>2019-08-23T12:33:39Z</time>
      </trkpt>
      <trkpt lat="42.720237" lon="0.571511">
        <ele>1699.2</ele>
        <time>2019-08-23T12:33:58Z</time>
      </trkpt>
      <trkpt lat="42.720317" lon="0.571446">
        <ele>1698.4</ele>
        <time>2019-08-23T12:34:11Z</time>
      </trkpt>
      <trkpt lat="42.720341" lon="0.571428">
        <ele>1697.4</ele>
        <time>2019-08-23T12:35:24Z</time>
      </trkpt>
      <trkpt lat="42.720369" lon="0.571323">
        <ele>1696.2</ele>
        <time>2019-08-23T12:35:48Z</time>
      </trkpt>
      <trkpt lat="42.720404" lon="0.571222">
        <ele>1693.7</ele>
        <time>2019-08-23T12:36:03Z</time>
      </trkpt>
      <trkpt lat="42.720462" lon="0.571206">
        <ele>1690.5</ele>
        <time>2019-08-23T12:36:19Z</time>
      </trkpt>
      <trkpt lat="42.720499" lon="0.571120">
        <ele>1688.7</ele>
        <time>2019-08-23T12:36:45Z</time>
      </trkpt>
      <trkpt lat="42.720557" lon="0.571036">
        <ele>1685.5</ele>
        <time>2019-08-23T12:36:59Z</time>
      </trkpt>
      <trkpt lat="42.720576" lon="0.570902">
        <ele>1681.9</ele>
        <time>2019-08-23T12:37:15Z</time>
      </trkpt>
      <trkpt lat="42.720645" lon="0.570818">
        <ele>1678.7</ele>
        <time>2019-08-23T12:37:27Z</time>
      </trkpt>
      <trkpt lat="42.720719" lon="0.570740">
        <ele>1676.3</ele>
        <time>2019-08-23T12:37:39Z</time>
      </trkpt>
      <trkpt lat="42.720799" lon="0.570679">
        <ele>1673.4</ele>
        <time>2019-08-23T12:37:51Z</time>
      </trkpt>
      <trkpt lat="42.720842" lon="0.570613">
        <ele>1670.8</ele>
        <time>2019-08-23T12:38:05Z</time>
      </trkpt>
      <trkpt lat="42.720890" lon="0.570534">
        <ele>1668.7</ele>
        <time>2019-08-23T12:38:17Z</time>
      </trkpt>
      <trkpt lat="42.720945" lon="0.570443">
        <ele>1666.3</ele>
        <time>2019-08-23T12:38:30Z</time>
      </trkpt>
      <trkpt lat="42.721036" lon="0.570362">
        <ele>1664.1</ele>
        <time>2019-08-23T12:38:43Z</time>
      </trkpt>
      <trkpt lat="42.721108" lon="0.570270">
        <ele>1661.6</ele>
        <time>2019-08-23T12:38:55Z</time>
      </trkpt>
      <trkpt lat="42.721194" lon="0.570189">
        <ele>1659.6</ele>
        <time>2019-08-23T12:39:05Z</time>
      </trkpt>
      <trkpt lat="42.721266" lon="0.570096">
        <ele>1658.5</ele>
        <time>2019-08-23T12:39:16Z</time>
      </trkpt>
      <trkpt lat="42.721288" lon="0.569984">
        <ele>1656.4</ele>
        <time>2019-08-23T12:39:29Z</time>
      </trkpt>
      <trkpt lat="42.721348" lon="0.569881">
        <ele>1654.3</ele>
        <time>2019-08-23T12:39:43Z</time>
      </trkpt>
      <trkpt lat="42.721430" lon="0.569792">
        <ele>1651.3</ele>
        <time>2019-08-23T12:40:03Z</time>
      </trkpt>
      <trkpt lat="42.721511" lon="0.569721">
        <ele>1647.9</ele>
        <time>2019-08-23T12:40:21Z</time>
      </trkpt>
      <trkpt lat="42.721575" lon="0.569622">
        <ele>1644.4</ele>
        <time>2019-08-23T12:40:39Z</time>
      </trkpt>
      <trkpt lat="42.721605" lon="0.569510">
        <ele>1640.6</ele>
        <time>2019-08-23T12:40:56Z</time>
      </trkpt>
      <trkpt lat="42.721602" lon="0.569362">
        <ele>1637.9</ele>
        <time>2019-08-23T12:41:08Z</time>
      </trkpt>
      <trkpt lat="42.721635" lon="0.569273">
        <ele>1634.4</ele>
        <time>2019-08-23T12:41:25Z</time>
      </trkpt>
      <trkpt lat="42.721643" lon="0.569137">
        <ele>1630.1</ele>
        <time>2019-08-23T12:41:43Z</time>
      </trkpt>
      <trkpt lat="42.721682" lon="0.569014">
        <ele>1627.1</ele>
        <time>2019-08-23T12:41:58Z</time>
      </trkpt>
      <trkpt lat="42.721736" lon="0.568905">
        <ele>1624.6</ele>
        <time>2019-08-23T12:42:10Z</time>
      </trkpt>
      <trkpt lat="42.721834" lon="0.568847">
        <ele>1622.7</ele>
        <time>2019-08-23T12:42:23Z</time>
      </trkpt>
      <trkpt lat="42.721936" lon="0.568872">
        <ele>1620.6</ele>
        <time>2019-08-23T12:42:36Z</time>
      </trkpt>
      <trkpt lat="42.722007" lon="0.568845">
        <ele>1617.8</ele>
        <time>2019-08-23T12:43:06Z</time>
      </trkpt>
      <trkpt lat="42.722103" lon="0.568828">
        <ele>1614.2</ele>
        <time>2019-08-23T12:43:21Z</time>
      </trkpt>
      <trkpt lat="42.722176" lon="0.568739">
        <ele>1611.3</ele>
        <time>2019-08-23T12:43:32Z</time>
      </trkpt>
      <trkpt lat="42.722124" lon="0.568667">
        <ele>1607.3</ele>
        <time>2019-08-23T12:43:49Z</time>
      </trkpt>
      <trkpt lat="42.722100" lon="0.568567">
        <ele>1604.7</ele>
        <time>2019-08-23T12:44:04Z</time>
      </trkpt>
      <trkpt lat="42.722191" lon="0.568534">
        <ele>1600.8</ele>
        <time>2019-08-23T12:44:19Z</time>
      </trkpt>
      <trkpt lat="42.722274" lon="0.568506">
        <ele>1597.3</ele>
        <time>2019-08-23T12:44:33Z</time>
      </trkpt>
      <trkpt lat="42.722317" lon="0.568402">
        <ele>1594.5</ele>
        <time>2019-08-23T12:44:52Z</time>
      </trkpt>
      <trkpt lat="42.722345" lon="0.568304">
        <ele>1591.6</ele>
        <time>2019-08-23T12:45:09Z</time>
      </trkpt>
      <trkpt lat="42.722413" lon="0.568211">
        <ele>1588.6</ele>
        <time>2019-08-23T12:45:25Z</time>
      </trkpt>
      <trkpt lat="42.722444" lon="0.568070">
        <ele>1580.0</ele>
        <time>2019-08-23T12:47:59Z</time>
      </trkpt>
      <trkpt lat="42.722487" lon="0.567968">
        <ele>1576.9</ele>
        <time>2019-08-23T12:48:13Z</time>
      </trkpt>
      <trkpt lat="42.722516" lon="0.567921">
        <ele>1573.8</ele>
        <time>2019-08-23T12:48:35Z</time>
      </trkpt>
      <trkpt lat="42.722573" lon="0.567819">
        <ele>1572.3</ele>
        <time>2019-08-23T12:48:50Z</time>
      </trkpt>
      <trkpt lat="42.722649" lon="0.567711">
        <ele>1570.3</ele>
        <time>2019-08-23T12:49:03Z</time>
      </trkpt>
      <trkpt lat="42.722744" lon="0.567683">
        <ele>1568.6</ele>
        <time>2019-08-23T12:49:13Z</time>
      </trkpt>
      <trkpt lat="42.722796" lon="0.567594">
        <ele>1565.5</ele>
        <time>2019-08-23T12:49:28Z</time>
      </trkpt>
      <trkpt lat="42.722885" lon="0.567615">
        <ele>1562.3</ele>
        <time>2019-08-23T12:49:40Z</time>
      </trkpt>
      <trkpt lat="42.722973" lon="0.567581">
        <ele>1558.7</ele>
        <time>2019-08-23T12:49:54Z</time>
      </trkpt>
      <trkpt lat="42.723087" lon="0.567574">
        <ele>1556.1</ele>
        <time>2019-08-23T12:50:05Z</time>
      </trkpt>
      <trkpt lat="42.723172" lon="0.567524">
        <ele>1554.2</ele>
        <time>2019-08-23T12:50:16Z</time>
      </trkpt>
      <trkpt lat="42.723271" lon="0.567487">
        <ele>1552.1</ele>
        <time>2019-08-23T12:50:28Z</time>
      </trkpt>
      <trkpt lat="42.723363" lon="0.567436">
        <ele>1549.0</ele>
        <time>2019-08-23T12:50:40Z</time>
      </trkpt>
      <trkpt lat="42.723442" lon="0.567321">
        <ele>1545.7</ele>
        <time>2019-08-23T12:50:51Z</time>
      </trkpt>
      <trkpt lat="42.723528" lon="0.567314">
        <ele>1542.3</ele>
        <time>2019-08-23T12:51:00Z</time>
      </trkpt>
      <trkpt lat="42.723605" lon="0.567263">
        <ele>1539.7</ele>
        <time>2019-08-23T12:51:11Z</time>
      </trkpt>
      <trkpt lat="42.723675" lon="0.567205">
        <ele>1539.0</ele>
        <time>2019-08-23T12:51:22Z</time>
      </trkpt>
      <trkpt lat="42.723768" lon="0.567137">
        <ele>1539.7</ele>
        <time>2019-08-23T12:51:35Z</time>
      </trkpt>
      <trkpt lat="42.723875" lon="0.567084">
        <ele>1539.6</ele>
        <time>2019-08-23T12:51:46Z</time>
      </trkpt>
      <trkpt lat="42.723938" lon="0.566991">
        <ele>1538.4</ele>
        <time>2019-08-23T12:51:57Z</time>
      </trkpt>
      <trkpt lat="42.724014" lon="0.566919">
        <ele>1536.9</ele>
        <time>2019-08-23T12:52:08Z</time>
      </trkpt>
      <trkpt lat="42.724098" lon="0.566879">
        <ele>1535.6</ele>
        <time>2019-08-23T12:52:19Z</time>
      </trkpt>
      <trkpt lat="42.724136" lon="0.566778">
        <ele>1533.5</ele>
        <time>2019-08-23T12:52:29Z</time>
      </trkpt>
      <trkpt lat="42.724234" lon="0.566728">
        <ele>1530.3</ele>
        <time>2019-08-23T12:52:40Z</time>
      </trkpt>
      <trkpt lat="42.724291" lon="0.566614">
        <ele>1527.2</ele>
        <time>2019-08-23T12:52:54Z</time>
      </trkpt>
      <trkpt lat="42.724365" lon="0.566530">
        <ele>1523.2</ele>
        <time>2019-08-23T12:53:08Z</time>
      </trkpt>
      <trkpt lat="42.724482" lon="0.566451">
        <ele>1519.0</ele>
        <time>2019-08-23T12:53:24Z</time>
      </trkpt>
      <trkpt lat="42.724548" lon="0.566354">
        <ele>1516.2</ele>
        <time>2019-08-23T12:53:36Z</time>
      </trkpt>
      <trkpt lat="42.724605" lon="0.566236">
        <ele>1513.5</ele>
        <time>2019-08-23T12:53:50Z</time>
      </trkpt>
      <trkpt lat="42.724691" lon="0.566150">
        <ele>1510.7</ele>
        <time>2019-08-23T12:54:07Z</time>
      </trkpt>
      <trkpt lat="42.724771" lon="0.566049">
        <ele>1508.7</ele>
        <time>2019-08-23T12:54:17Z</time>
      </trkpt>
      <trkpt lat="42.724819" lon="0.565944">
        <ele>1507.1</ele>
        <time>2019-08-23T12:54:32Z</time>
      </trkpt>
      <trkpt lat="42.724883" lon="0.565876">
        <ele>1505.2</ele>
        <time>2019-08-23T12:54:50Z</time>
      </trkpt>
      <trkpt lat="42.724919" lon="0.565762">
        <ele>1503.1</ele>
        <time>2019-08-23T12:55:18Z</time>
      </trkpt>
      <trkpt lat="42.724965" lon="0.565634">
        <ele>1501.7</ele>
        <time>2019-08-23T12:55:30Z</time>
      </trkpt>
      <trkpt lat="42.725060" lon="0.565570">
        <ele>1499.1</ele>
        <time>2019-08-23T12:55:38Z</time>
      </trkpt>
      <trkpt lat="42.725178" lon="0.565543">
        <ele>1496.5</ele>
        <time>2019-08-23T12:55:47Z</time>
      </trkpt>
      <trkpt lat="42.725294" lon="0.565495">
        <ele>1494.9</ele>
        <time>2019-08-23T12:55:56Z</time>
      </trkpt>
      <trkpt lat="42.725383" lon="0.565410">
        <ele>1494.4</ele>
        <time>2019-08-23T12:56:04Z</time>
      </trkpt>
      <trkpt lat="42.725467" lon="0.565330">
        <ele>1494.3</ele>
        <time>2019-08-23T12:56:13Z</time>
      </trkpt>
      <trkpt lat="42.725559" lon="0.565221">
        <ele>1493.8</ele>
        <time>2019-08-23T12:56:22Z</time>
      </trkpt>
      <trkpt lat="42.725629" lon="0.565139">
        <ele>1492.5</ele>
        <time>2019-08-23T12:56:30Z</time>
      </trkpt>
      <trkpt lat="42.725745" lon="0.565089">
        <ele>1491.1</ele>
        <time>2019-08-23T12:56:40Z</time>
      </trkpt>
      <trkpt lat="42.725832" lon="0.564984">
        <ele>1490.0</ele>
        <time>2019-08-23T12:56:49Z</time>
      </trkpt>
      <trkpt lat="42.725946" lon="0.564912">
        <ele>1489.4</ele>
        <time>2019-08-23T12:56:58Z</time>
      </trkpt>
      <trkpt lat="42.726044" lon="0.564861">
        <ele>1489.5</ele>
        <time>2019-08-23T12:57:05Z</time>
      </trkpt>
      <trkpt lat="42.726133" lon="0.564812">
        <ele>1490.0</ele>
        <time>2019-08-23T12:57:12Z</time>
      </trkpt>
      <trkpt lat="42.726229" lon="0.564792">
        <ele>1490.5</ele>
        <time>2019-08-23T12:57:21Z</time>
      </trkpt>
      <trkpt lat="42.726275" lon="0.564654">
        <ele>1490.1</ele>
        <time>2019-08-23T12:57:32Z</time>
      </trkpt>
      <trkpt lat="42.726352" lon="0.564565">
        <ele>1488.7</ele>
        <time>2019-08-23T12:57:41Z</time>
      </trkpt>
      <trkpt lat="42.726432" lon="0.564525">
        <ele>1487.5</ele>
        <time>2019-08-23T12:57:49Z</time>
      </trkpt>
      <trkpt lat="42.726529" lon="0.564497">
        <ele>1486.0</ele>
        <time>2019-08-23T12:57:58Z</time>
      </trkpt>
      <trkpt lat="42.726620" lon="0.564429">
        <ele>1485.3</ele>
        <time>2019-08-23T12:58:07Z</time>
      </trkpt>
      <trkpt lat="42.726709" lon="0.564365">
        <ele>1485.1</ele>
        <time>2019-08-23T12:58:17Z</time>
      </trkpt>
      <trkpt lat="42.726812" lon="0.564342">
        <ele>1485.8</ele>
        <time>2019-08-23T12:58:31Z</time>
      </trkpt>
      <trkpt lat="42.726930" lon="0.564282">
        <ele>1486.8</ele>
        <time>2019-08-23T12:58:43Z</time>
      </trkpt>
      <trkpt lat="42.727012" lon="0.564186">
        <ele>1487.3</ele>
        <time>2019-08-23T12:58:54Z</time>
      </trkpt>
      <trkpt lat="42.727080" lon="0.564093">
        <ele>1487.2</ele>
        <time>2019-08-23T12:59:07Z</time>
      </trkpt>
      <trkpt lat="42.727155" lon="0.564018">
        <ele>1484.9</ele>
        <time>2019-08-23T12:59:18Z</time>
      </trkpt>
      <trkpt lat="42.727235" lon="0.563940">
        <ele>1482.6</ele>
        <time>2019-08-23T12:59:29Z</time>
      </trkpt>
      <trkpt lat="42.727290" lon="0.563854">
        <ele>1480.7</ele>
        <time>2019-08-23T12:59:46Z</time>
      </trkpt>
      <trkpt lat="42.727368" lon="0.563807">
        <ele>1478.7</ele>
        <time>2019-08-23T12:59:56Z</time>
      </trkpt>
      <trkpt lat="42.727443" lon="0.563734">
        <ele>1476.7</ele>
        <time>2019-08-23T13:00:07Z</time>
      </trkpt>
      <trkpt lat="42.727487" lon="0.563627">
        <ele>1473.7</ele>
        <time>2019-08-23T13:00:19Z</time>
      </trkpt>
      <trkpt lat="42.727551" lon="0.563539">
        <ele>1470.7</ele>
        <time>2019-08-23T13:00:31Z</time>
      </trkpt>
      <trkpt lat="42.727611" lon="0.563437">
        <ele>1468.2</ele>
        <time>2019-08-23T13:00:41Z</time>
      </trkpt>
      <trkpt lat="42.727661" lon="0.563338">
        <ele>1466.0</ele>
        <time>2019-08-23T13:00:53Z</time>
      </trkpt>
      <trkpt lat="42.727721" lon="0.563239">
        <ele>1463.6</ele>
        <time>2019-08-23T13:01:04Z</time>
      </trkpt>
      <trkpt lat="42.727788" lon="0.563157">
        <ele>1461.4</ele>
        <time>2019-08-23T13:01:14Z</time>
      </trkpt>
      <trkpt lat="42.727850" lon="0.563059">
        <ele>1458.7</ele>
        <time>2019-08-23T13:01:25Z</time>
      </trkpt>
      <trkpt lat="42.727901" lon="0.562960">
        <ele>1456.4</ele>
        <time>2019-08-23T13:01:35Z</time>
      </trkpt>
      <trkpt lat="42.727982" lon="0.562891">
        <ele>1454.1</ele>
        <time>2019-08-23T13:01:46Z</time>
      </trkpt>
      <trkpt lat="42.728046" lon="0.562799">
        <ele>1451.6</ele>
        <time>2019-08-23T13:01:57Z</time>
      </trkpt>
      <trkpt lat="42.728116" lon="0.562696">
        <ele>1449.3</ele>
        <time>2019-08-23T13:02:09Z</time>
      </trkpt>
      <trkpt lat="42.728190" lon="0.562616">
        <ele>1446.6</ele>
        <time>2019-08-23T13:02:20Z</time>
      </trkpt>
      <trkpt lat="42.728265" lon="0.562556">
        <ele>1444.1</ele>
        <time>2019-08-23T13:02:30Z</time>
      </trkpt>
      <trkpt lat="42.728326" lon="0.562467">
        <ele>1441.6</ele>
        <time>2019-08-23T13:02:40Z</time>
      </trkpt>
      <trkpt lat="42.728383" lon="0.562375">
        <ele>1439.1</ele>
        <time>2019-08-23T13:02:50Z</time>
      </trkpt>
      <trkpt lat="42.728454" lon="0.562280">
        <ele>1436.4</ele>
        <time>2019-08-23T13:03:01Z</time>
      </trkpt>
      <trkpt lat="42.728520" lon="0.562195">
        <ele>1434.0</ele>
        <time>2019-08-23T13:03:11Z</time>
      </trkpt>
      <trkpt lat="42.728586" lon="0.562107">
        <ele>1431.3</ele>
        <time>2019-08-23T13:03:22Z</time>
      </trkpt>
      <trkpt lat="42.728650" lon="0.562021">
        <ele>1428.5</ele>
        <time>2019-08-23T13:03:33Z</time>
      </trkpt>
      <trkpt lat="42.728705" lon="0.561928">
        <ele>1425.8</ele>
        <time>2019-08-23T13:03:45Z</time>
      </trkpt>
      <trkpt lat="42.728768" lon="0.561834">
        <ele>1423.6</ele>
        <time>2019-08-23T13:03:56Z</time>
      </trkpt>
      <trkpt lat="42.728781" lon="0.561911">
        <ele>1421.9</ele>
        <time>2019-08-23T13:04:35Z</time>
      </trkpt>
      <trkpt lat="42.728846" lon="0.562027">
        <ele>1422.0</ele>
        <time>2019-08-23T13:04:47Z</time>
      </trkpt>
      <trkpt lat="42.728965" lon="0.562092">
        <ele>1419.7</ele>
        <time>2019-08-23T13:05:01Z</time>
      </trkpt>
      <trkpt lat="42.729039" lon="0.562201">
        <ele>1418.2</ele>
        <time>2019-08-23T13:05:12Z</time>
      </trkpt>
      <trkpt lat="42.729113" lon="0.562269">
        <ele>1417.5</ele>
        <time>2019-08-23T13:05:24Z</time>
      </trkpt>
      <trkpt lat="42.729188" lon="0.562343">
        <ele>1417.1</ele>
        <time>2019-08-23T13:05:33Z</time>
      </trkpt>
      <trkpt lat="42.729238" lon="0.562481">
        <ele>1416.2</ele>
        <time>2019-08-23T13:05:44Z</time>
      </trkpt>
      <trkpt lat="42.729314" lon="0.562463">
        <ele>1415.8</ele>
        <time>2019-08-23T13:05:56Z</time>
      </trkpt>
      <trkpt lat="42.729381" lon="0.562341">
        <ele>1414.6</ele>
        <time>2019-08-23T13:06:07Z</time>
      </trkpt>
      <trkpt lat="42.729489" lon="0.562303">
        <ele>1413.5</ele>
        <time>2019-08-23T13:06:19Z</time>
      </trkpt>
      <trkpt lat="42.729630" lon="0.562226">
        <ele>1413.0</ele>
        <time>2019-08-23T13:06:35Z</time>
      </trkpt>
      <trkpt lat="42.729737" lon="0.562139">
        <ele>1412.2</ele>
        <time>2019-08-23T13:06:46Z</time>
      </trkpt>
      <trkpt lat="42.729841" lon="0.562062">
        <ele>1411.7</ele>
        <time>2019-08-23T13:06:57Z</time>
      </trkpt>
      <trkpt lat="42.729941" lon="0.562016">
        <ele>1411.0</ele>
        <time>2019-08-23T13:07:07Z</time>
      </trkpt>
      <trkpt lat="42.730049" lon="0.561962">
        <ele>1410.4</ele>
        <time>2019-08-23T13:07:22Z</time>
      </trkpt>
      <trkpt lat="42.730160" lon="0.561896">
        <ele>1410.1</ele>
        <time>2019-08-23T13:07:32Z</time>
      </trkpt>
      <trkpt lat="42.730174" lon="0.561967">
        <ele>1408.5</ele>
        <time>2019-08-23T13:07:49Z</time>
      </trkpt>
      <trkpt lat="42.730260" lon="0.561975">
        <ele>1408.7</ele>
        <time>2019-08-23T13:08:30Z</time>
      </trkpt>
      <trkpt lat="42.730242" lon="0.561977">
        <ele>1409.1</ele>
        <time>2019-08-23T13:09:19Z</time>
      </trkpt>
      <trkpt lat="42.730278" lon="0.561849">
        <ele>1410.3</ele>
        <time>2019-08-23T13:09:39Z</time>
      </trkpt>
      <trkpt lat="42.730375" lon="0.561754">
        <ele>1410.2</ele>
        <time>2019-08-23T13:09:48Z</time>
      </trkpt>
      <trkpt lat="42.730452" lon="0.561666">
        <ele>1409.6</ele>
        <time>2019-08-23T13:09:57Z</time>
      </trkpt>
      <trkpt lat="42.730537" lon="0.561558">
        <ele>1409.0</ele>
        <time>2019-08-23T13:10:08Z</time>
      </trkpt>
      <trkpt lat="42.730660" lon="0.561475">
        <ele>1407.5</ele>
        <time>2019-08-23T13:10:20Z</time>
      </trkpt>
      <trkpt lat="42.730763" lon="0.561359">
        <ele>1405.4</ele>
        <time>2019-08-23T13:10:29Z</time>
      </trkpt>
      <trkpt lat="42.730870" lon="0.561282">
        <ele>1404.5</ele>
        <time>2019-08-23T13:10:39Z</time>
      </trkpt>
      <trkpt lat="42.730985" lon="0.561203">
        <ele>1403.6</ele>
        <time>2019-08-23T13:10:50Z</time>
      </trkpt>
      <trkpt lat="42.731134" lon="0.561127">
        <ele>1403.1</ele>
        <time>2019-08-23T13:11:00Z</time>
      </trkpt>
      <trkpt lat="42.731246" lon="0.561058">
        <ele>1401.6</ele>
        <time>2019-08-23T13:11:11Z</time>
      </trkpt>
      <trkpt lat="42.731336" lon="0.560979">
        <ele>1399.3</ele>
        <time>2019-08-23T13:11:20Z</time>
      </trkpt>
      <trkpt lat="42.731476" lon="0.560950">
        <ele>1396.1</ele>
        <time>2019-08-23T13:11:32Z</time>
      </trkpt>
      <trkpt lat="42.731608" lon="0.560904">
        <ele>1392.8</ele>
        <time>2019-08-23T13:11:44Z</time>
      </trkpt>
      <trkpt lat="42.731739" lon="0.560893">
        <ele>1387.7</ele>
        <time>2019-08-23T13:11:58Z</time>
      </trkpt>
      <trkpt lat="42.731896" lon="0.560849">
        <ele>1382.8</ele>
        <time>2019-08-23T13:12:11Z</time>
      </trkpt>
      <trkpt lat="42.732007" lon="0.560816">
        <ele>1379.9</ele>
        <time>2019-08-23T13:12:23Z</time>
      </trkpt>
      <trkpt lat="42.732140" lon="0.560828">
        <ele>1376.5</ele>
        <time>2019-08-23T13:12:34Z</time>
      </trkpt>
      <trkpt lat="42.732258" lon="0.560809">
        <ele>1374.5</ele>
        <time>2019-08-23T13:12:44Z</time>
      </trkpt>
      <trkpt lat="42.732330" lon="0.560649">
        <ele>1372.5</ele>
        <time>2019-08-23T13:12:56Z</time>
      </trkpt>
      <trkpt lat="42.732415" lon="0.560568">
        <ele>1370.4</ele>
        <time>2019-08-23T13:13:08Z</time>
      </trkpt>
      <trkpt lat="42.732504" lon="0.560447">
        <ele>1367.2</ele>
        <time>2019-08-23T13:13:23Z</time>
      </trkpt>
      <trkpt lat="42.732639" lon="0.560391">
        <ele>1365.0</ele>
        <time>2019-08-23T13:13:36Z</time>
      </trkpt>
      <trkpt lat="42.732779" lon="0.560400">
        <ele>1362.6</ele>
        <time>2019-08-23T13:13:49Z</time>
      </trkpt>
      <trkpt lat="42.732871" lon="0.560298">
        <ele>1360.0</ele>
        <time>2019-08-23T13:14:02Z</time>
      </trkpt>
      <trkpt lat="42.732947" lon="0.560180">
        <ele>1357.3</ele>
        <time>2019-08-23T13:14:14Z</time>
      </trkpt>
      <trkpt lat="42.733011" lon="0.560057">
        <ele>1354.4</ele>
        <time>2019-08-23T13:14:27Z</time>
      </trkpt>
      <trkpt lat="42.733061" lon="0.559942">
        <ele>1351.6</ele>
        <time>2019-08-23T13:14:40Z</time>
      </trkpt>
      <trkpt lat="42.733135" lon="0.559801">
        <ele>1348.8</ele>
        <time>2019-08-23T13:14:54Z</time>
      </trkpt>
      <trkpt lat="42.733270" lon="0.559756">
        <ele>1345.1</ele>
        <time>2019-08-23T13:15:10Z</time>
      </trkpt>
      <trkpt lat="42.733394" lon="0.559713">
        <ele>1341.9</ele>
        <time>2019-08-23T13:15:23Z</time>
      </trkpt>
      <trkpt lat="42.733490" lon="0.559645">
        <ele>1338.3</ele>
        <time>2019-08-23T13:15:38Z</time>
      </trkpt>
      <trkpt lat="42.733616" lon="0.559636">
        <ele>1335.9</ele>
        <time>2019-08-23T13:15:50Z</time>
      </trkpt>
      <trkpt lat="42.733505" lon="0.559579">
        <ele>1332.9</ele>
        <time>2019-08-23T13:16:05Z</time>
      </trkpt>
      <trkpt lat="42.733398" lon="0.559574">
        <ele>1330.1</ele>
        <time>2019-08-23T13:16:18Z</time>
      </trkpt>
      <trkpt lat="42.733292" lon="0.559505">
        <ele>1327.3</ele>
        <time>2019-08-23T13:16:31Z</time>
      </trkpt>
      <trkpt lat="42.733200" lon="0.559441">
        <ele>1324.0</ele>
        <time>2019-08-23T13:16:46Z</time>
      </trkpt>
      <trkpt lat="42.733104" lon="0.559385">
        <ele>1321.6</ele>
        <time>2019-08-23T13:16:59Z</time>
      </trkpt>
      <trkpt lat="42.732995" lon="0.559367">
        <ele>1319.5</ele>
        <time>2019-08-23T13:17:11Z</time>
      </trkpt>
      <trkpt lat="42.732884" lon="0.559392">
        <ele>1316.2</ele>
        <time>2019-08-23T13:17:28Z</time>
      </trkpt>
      <trkpt lat="42.732818" lon="0.559473">
        <ele>1313.7</ele>
        <time>2019-08-23T13:17:41Z</time>
      </trkpt>
      <trkpt lat="42.732791" lon="0.559355">
        <ele>1310.9</ele>
        <time>2019-08-23T13:17:57Z</time>
      </trkpt>
      <trkpt lat="42.732875" lon="0.559210">
        <ele>1308.4</ele>
        <time>2019-08-23T13:18:09Z</time>
      </trkpt>
      <trkpt lat="42.732919" lon="0.559103">
        <ele>1306.7</ele>
        <time>2019-08-23T13:18:20Z</time>
      </trkpt>
      <trkpt lat="42.732994" lon="0.558983">
        <ele>1304.0</ele>
        <time>2019-08-23T13:18:33Z</time>
      </trkpt>
      <trkpt lat="42.733111" lon="0.559005">
        <ele>1302.0</ele>
        <time>2019-08-23T13:18:45Z</time>
      </trkpt>
      <trkpt lat="42.733236" lon="0.558974">
        <ele>1299.8</ele>
        <time>2019-08-23T13:18:57Z</time>
      </trkpt>
      <trkpt lat="42.733344" lon="0.558952">
        <ele>1297.0</ele>
        <time>2019-08-23T13:19:12Z</time>
      </trkpt>
      <trkpt lat="42.733317" lon="0.558911">
        <ele>1292.9</ele>
        <time>2019-08-23T13:19:31Z</time>
      </trkpt>
      <trkpt lat="42.733207" lon="0.558884">
        <ele>1290.6</ele>
        <time>2019-08-23T13:19:43Z</time>
      </trkpt>
      <trkpt lat="42.733103" lon="0.558818">
        <ele>1287.2</ele>
        <time>2019-08-23T13:19:58Z</time>
      </trkpt>
      <trkpt lat="42.732997" lon="0.558743">
        <ele>1284.1</ele>
        <time>2019-08-23T13:20:11Z</time>
      </trkpt>
      <trkpt lat="42.732885" lon="0.558718">
        <ele>1281.2</ele>
        <time>2019-08-23T13:20:25Z</time>
      </trkpt>
      <trkpt lat="42.732752" lon="0.558715">
        <ele>1278.2</ele>
        <time>2019-08-23T13:20:39Z</time>
      </trkpt>
      <trkpt lat="42.732637" lon="0.558721">
        <ele>1274.8</ele>
        <time>2019-08-23T13:20:56Z</time>
      </trkpt>
      <trkpt lat="42.732610" lon="0.558644">
        <ele>1271.8</ele>
        <time>2019-08-23T13:21:12Z</time>
      </trkpt>
      <trkpt lat="42.732741" lon="0.558546">
        <ele>1268.9</ele>
        <time>2019-08-23T13:21:28Z</time>
      </trkpt>
      <trkpt lat="42.732844" lon="0.558448">
        <ele>1266.2</ele>
        <time>2019-08-23T13:21:42Z</time>
      </trkpt>
      <trkpt lat="42.732960" lon="0.558415">
        <ele>1263.7</ele>
        <time>2019-08-23T13:21:57Z</time>
      </trkpt>
      <trkpt lat="42.733069" lon="0.558384">
        <ele>1261.4</ele>
        <time>2019-08-23T13:22:10Z</time>
      </trkpt>
      <trkpt lat="42.732971" lon="0.558346">
        <ele>1259.4</ele>
        <time>2019-08-23T13:22:26Z</time>
      </trkpt>
      <trkpt lat="42.732854" lon="0.558315">
        <ele>1257.1</ele>
        <time>2019-08-23T13:22:38Z</time>
      </trkpt>
      <trkpt lat="42.732752" lon="0.558205">
        <ele>1253.7</ele>
        <time>2019-08-23T13:22:54Z</time>
      </trkpt>
      <trkpt lat="42.732637" lon="0.558248">
        <ele>1250.5</ele>
        <time>2019-08-23T13:23:13Z</time>
      </trkpt>
      <trkpt lat="42.732521" lon="0.558333">
        <ele>1248.5</ele>
        <time>2019-08-23T13:23:25Z</time>
      </trkpt>
      <trkpt lat="42.732402" lon="0.558281">
        <ele>1246.3</ele>
        <time>2019-08-23T13:23:38Z</time>
      </trkpt>
      <trkpt lat="42.732311" lon="0.558247">
        <ele>1242.4</ele>
        <time>2019-08-23T13:24:34Z</time>
      </trkpt>
      <trkpt lat="42.732394" lon="0.558139">
        <ele>1240.6</ele>
        <time>2019-08-23T13:24:45Z</time>
      </trkpt>
      <trkpt lat="42.732385" lon="0.558088">
        <ele>1237.9</ele>
        <time>2019-08-23T13:24:59Z</time>
      </trkpt>
      <trkpt lat="42.732275" lon="0.558047">
        <ele>1235.6</ele>
        <time>2019-08-23T13:25:13Z</time>
      </trkpt>
      <trkpt lat="42.732215" lon="0.558046">
        <ele>1232.5</ele>
        <time>2019-08-23T13:25:29Z</time>
      </trkpt>
      <trkpt lat="42.732383" lon="0.557967">
        <ele>1230.7</ele>
        <time>2019-08-23T13:25:44Z</time>
      </trkpt>
      <trkpt lat="42.732519" lon="0.557912">
        <ele>1229.5</ele>
        <time>2019-08-23T13:25:56Z</time>
      </trkpt>
      <trkpt lat="42.732524" lon="0.557809">
        <ele>1227.5</ele>
        <time>2019-08-23T13:26:26Z</time>
      </trkpt>
      <trkpt lat="42.732552" lon="0.557730">
        <ele>1226.2</ele>
        <time>2019-08-23T13:26:44Z</time>
      </trkpt>
      <trkpt lat="42.732632" lon="0.557611">
        <ele>1224.4</ele>
        <time>2019-08-23T13:26:56Z</time>
      </trkpt>
      <trkpt lat="42.732678" lon="0.557449">
        <ele>1222.6</ele>
        <time>2019-08-23T13:27:08Z</time>
      </trkpt>
      <trkpt lat="42.732750" lon="0.557315">
        <ele>1220.5</ele>
        <time>2019-08-23T13:27:24Z</time>
      </trkpt>
      <trkpt lat="42.732849" lon="0.557195">
        <ele>1218.0</ele>
        <time>2019-08-23T13:27:37Z</time>
      </trkpt>
      <trkpt lat="42.732977" lon="0.557155">
        <ele>1215.1</ele>
        <time>2019-08-23T13:27:53Z</time>
      </trkpt>
      <trkpt lat="42.733106" lon="0.557152">
        <ele>1213.1</ele>
        <time>2019-08-23T13:28:07Z</time>
      </trkpt>
      <trkpt lat="42.733221" lon="0.557163">
        <ele>1211.3</ele>
        <time>2019-08-23T13:28:22Z</time>
      </trkpt>
      <trkpt lat="42.733274" lon="0.557013">
        <ele>1209.8</ele>
        <time>2019-08-23T13:28:37Z</time>
      </trkpt>
      <trkpt lat="42.733382" lon="0.556938">
        <ele>1208.5</ele>
        <time>2019-08-23T13:28:48Z</time>
      </trkpt>
      <trkpt lat="42.733431" lon="0.556863">
        <ele>1201.5</ele>
        <time>2019-08-23T13:29:38Z</time>
      </trkpt>
      <trkpt lat="42.733576" lon="0.556820">
        <ele>1198.4</ele>
        <time>2019-08-23T13:29:54Z</time>
      </trkpt>
      <trkpt lat="42.733690" lon="0.556812">
        <ele>1196.2</ele>
        <time>2019-08-23T13:30:07Z</time>
      </trkpt>
      <trkpt lat="42.733771" lon="0.556742">
        <ele>1193.6</ele>
        <time>2019-08-23T13:30:21Z</time>
      </trkpt>
      <trkpt lat="42.733851" lon="0.556614">
        <ele>1190.9</ele>
        <time>2019-08-23T13:30:35Z</time>
      </trkpt>
      <trkpt lat="42.733934" lon="0.556572">
        <ele>1189.5</ele>
        <time>2019-08-23T13:30:46Z</time>
      </trkpt>
      <trkpt lat="42.734023" lon="0.556546">
        <ele>1187.2</ele>
        <time>2019-08-23T13:30:58Z</time>
      </trkpt>
      <trkpt lat="42.734088" lon="0.556468">
        <ele>1185.6</ele>
        <time>2019-08-23T13:31:07Z</time>
      </trkpt>
      <trkpt lat="42.734185" lon="0.556438">
        <ele>1183.8</ele>
        <time>2019-08-23T13:31:18Z</time>
      </trkpt>
      <trkpt lat="42.734292" lon="0.556444">
        <ele>1182.8</ele>
        <time>2019-08-23T13:31:29Z</time>
      </trkpt>
      <trkpt lat="42.734379" lon="0.556444">
        <ele>1182.2</ele>
        <time>2019-08-23T13:31:38Z</time>
      </trkpt>
      <trkpt lat="42.734471" lon="0.556455">
        <ele>1181.2</ele>
        <time>2019-08-23T13:31:48Z</time>
      </trkpt>
      <trkpt lat="42.734570" lon="0.556440">
        <ele>1179.3</ele>
        <time>2019-08-23T13:32:00Z</time>
      </trkpt>
      <trkpt lat="42.734667" lon="0.556423">
        <ele>1177.4</ele>
        <time>2019-08-23T13:32:12Z</time>
      </trkpt>
      <trkpt lat="42.734763" lon="0.556428">
        <ele>1175.3</ele>
        <time>2019-08-23T13:32:23Z</time>
      </trkpt>
      <trkpt lat="42.734855" lon="0.556424">
        <ele>1173.6</ele>
        <time>2019-08-23T13:32:34Z</time>
      </trkpt>
      <trkpt lat="42.734946" lon="0.556406">
        <ele>1172.0</ele>
        <time>2019-08-23T13:32:45Z</time>
      </trkpt>
      <trkpt lat="42.735026" lon="0.556463">
        <ele>1169.3</ele>
        <time>2019-08-23T13:33:08Z</time>
      </trkpt>
      <trkpt lat="42.735119" lon="0.556462">
        <ele>1168.1</ele>
        <time>2019-08-23T13:33:19Z</time>
      </trkpt>
      <trkpt lat="42.735196" lon="0.556529">
        <ele>1166.8</ele>
        <time>2019-08-23T13:33:29Z</time>
      </trkpt>
      <trkpt lat="42.735278" lon="0.556589">
        <ele>1165.9</ele>
        <time>2019-08-23T13:33:39Z</time>
      </trkpt>
      <trkpt lat="42.735339" lon="0.556690">
        <ele>1164.9</ele>
        <time>2019-08-23T13:33:49Z</time>
      </trkpt>
      <trkpt lat="42.735418" lon="0.556762">
        <ele>1163.9</ele>
        <time>2019-08-23T13:34:00Z</time>
      </trkpt>
      <trkpt lat="42.735490" lon="0.556836">
        <ele>1163.1</ele>
        <time>2019-08-23T13:34:11Z</time>
      </trkpt>
      <trkpt lat="42.735565" lon="0.556915">
        <ele>1161.8</ele>
        <time>2019-08-23T13:34:23Z</time>
      </trkpt>
      <trkpt lat="42.735648" lon="0.556931">
        <ele>1160.8</ele>
        <time>2019-08-23T13:34:33Z</time>
      </trkpt>
      <trkpt lat="42.735731" lon="0.556880">
        <ele>1159.7</ele>
        <time>2019-08-23T13:34:44Z</time>
      </trkpt>
      <trkpt lat="42.735778" lon="0.556769">
        <ele>1159.2</ele>
        <time>2019-08-23T13:34:55Z</time>
      </trkpt>
      <trkpt lat="42.735869" lon="0.556726">
        <ele>1157.7</ele>
        <time>2019-08-23T13:35:06Z</time>
      </trkpt>
      <trkpt lat="42.735940" lon="0.556643">
        <ele>1156.1</ele>
        <time>2019-08-23T13:35:18Z</time>
      </trkpt>
      <trkpt lat="42.735939" lon="0.556575">
        <ele>1154.4</ele>
        <time>2019-08-23T13:35:52Z</time>
      </trkpt>
      <trkpt lat="42.736026" lon="0.556611">
        <ele>1154.9</ele>
        <time>2019-08-23T13:36:05Z</time>
      </trkpt>
      <trkpt lat="42.736034" lon="0.556496">
        <ele>1154.7</ele>
        <time>2019-08-23T13:36:15Z</time>
      </trkpt>
      <trkpt lat="42.736042" lon="0.556370">
        <ele>1154.6</ele>
        <time>2019-08-23T13:36:25Z</time>
      </trkpt>
      <trkpt lat="42.736069" lon="0.556243">
        <ele>1154.9</ele>
        <time>2019-08-23T13:36:36Z</time>
      </trkpt>
      <trkpt lat="42.736107" lon="0.556106">
        <ele>1155.2</ele>
        <time>2019-08-23T13:36:47Z</time>
      </trkpt>
      <trkpt lat="42.736154" lon="0.556021">
        <ele>1155.0</ele>
        <time>2019-08-23T13:36:58Z</time>
      </trkpt>
      <trkpt lat="42.736243" lon="0.556003">
        <ele>1154.7</ele>
        <time>2019-08-23T13:37:12Z</time>
      </trkpt>
      <trkpt lat="42.736341" lon="0.555949">
        <ele>1154.6</ele>
        <time>2019-08-23T13:37:23Z</time>
      </trkpt>
      <trkpt lat="42.736443" lon="0.555913">
        <ele>1154.4</ele>
        <time>2019-08-23T13:37:33Z</time>
      </trkpt>
      <trkpt lat="42.736537" lon="0.555919">
        <ele>1153.9</ele>
        <time>2019-08-23T13:37:42Z</time>
      </trkpt>
      <trkpt lat="42.736628" lon="0.555925">
        <ele>1153.3</ele>
        <time>2019-08-23T13:37:55Z</time>
      </trkpt>
      <trkpt lat="42.736721" lon="0.555972">
        <ele>1152.9</ele>
        <time>2019-08-23T13:38:07Z</time>
      </trkpt>
      <trkpt lat="42.736807" lon="0.555997">
        <ele>1152.3</ele>
        <time>2019-08-23T13:38:22Z</time>
      </trkpt>
      <trkpt lat="42.736904" lon="0.556021">
        <ele>1152.1</ele>
        <time>2019-08-23T13:38:33Z</time>
      </trkpt>
      <trkpt lat="42.737026" lon="0.556007">
        <ele>1151.4</ele>
        <time>2019-08-23T13:38:46Z</time>
      </trkpt>
      <trkpt lat="42.737112" lon="0.555965">
        <ele>1150.9</ele>
        <time>2019-08-23T13:38:56Z</time>
      </trkpt>
      <trkpt lat="42.737238" lon="0.555946">
        <ele>1150.4</ele>
        <time>2019-08-23T13:39:09Z</time>
      </trkpt>
      <trkpt lat="42.737344" lon="0.555960">
        <ele>1150.2</ele>
        <time>2019-08-23T13:39:17Z</time>
      </trkpt>
      <trkpt lat="42.737433" lon="0.555989">
        <ele>1150.1</ele>
        <time>2019-08-23T13:39:29Z</time>
      </trkpt>
      <trkpt lat="42.737522" lon="0.556026">
        <ele>1150.1</ele>
        <time>2019-08-23T13:39:39Z</time>
      </trkpt>
      <trkpt lat="42.737616" lon="0.556071">
        <ele>1149.9</ele>
        <time>2019-08-23T13:39:48Z</time>
      </trkpt>
      <trkpt lat="42.737707" lon="0.556097">
        <ele>1149.7</ele>
        <time>2019-08-23T13:39:57Z</time>
      </trkpt>
      <trkpt lat="42.737801" lon="0.556095">
        <ele>1149.3</ele>
        <time>2019-08-23T13:40:07Z</time>
      </trkpt>
      <trkpt lat="42.737909" lon="0.556144">
        <ele>1149.1</ele>
        <time>2019-08-23T13:40:17Z</time>
      </trkpt>
      <trkpt lat="42.738001" lon="0.556172">
        <ele>1148.6</ele>
        <time>2019-08-23T13:40:27Z</time>
      </trkpt>
      <trkpt lat="42.738084" lon="0.556217">
        <ele>1148.1</ele>
        <time>2019-08-23T13:40:37Z</time>
      </trkpt>
      <trkpt lat="42.738167" lon="0.556268">
        <ele>1147.8</ele>
        <time>2019-08-23T13:40:46Z</time>
      </trkpt>
      <trkpt lat="42.738249" lon="0.556371">
        <ele>1147.4</ele>
        <time>2019-08-23T13:40:57Z</time>
      </trkpt>
      <trkpt lat="42.738315" lon="0.556467">
        <ele>1147.1</ele>
        <time>2019-08-23T13:41:08Z</time>
      </trkpt>
      <trkpt lat="42.738319" lon="0.556552">
        <ele>1071.6</ele>
        <time>2019-08-23T13:41:25Z</time>
      </trkpt>
    </trkseg>
  </trk>
</gpx>

